[[{"header":{"parameterUnit":"m.s-1","parameterCategory":1,"la1":30.6,"la2":29.2853,"lo1":-89.7004,"lo2":-87.6739,"dy":0.0162,"dx":0.0183,"nx":112,"ny":82,"refTime":"2023-05-07T00:00:00:Z","depth":0,"parameterNumber":2,"parameterNumberName":"U-component_of_WINDS"},"data":[0.0,0.0,0.0,0.0,0.0,0.0,0.0,0.0,0.0,0.0,0.0,0.0,0.0,0.0,0.0,0.0,0.0,0.0,0.0,0.0,0.0,0.0,0.0,0.0,0.0,0.0,0.0,0.0,0.0,0.0,0.0,0.0,0.0,0.0,0.0,0.0,0.0,0.0,0.0,0.0,0.0,0.0,0.0,0.0,0.0,0.0,0.0,0.0,0.0,0.0,0.0,0.0,0.0,0.0,0.0,0.0,0.0,0.0,0.0,0.0,0.0,0.0,0.0,0.0,0.0,0.0,0.0,0.0,0.0,0.0,0.0,0.0,0.0,0.0,0.0,0.0,0.0,0.0,0.0,0.0,0.0,0.0,0.0,0.0,0.0,0.0,0.0,0.0,0.0,0.0,-4.7736,-4.8248,-4.8306,-4.8306,-4.8306,-4.8306,-4.8306,-4.8306,0.0,0.0,0.0,0.0,0.0,0.0,0.0,0.0,0.0,0.0,0.0,0.0,0.0,0.0,0.0,0.0,0.0,0.0,0.0,0.0,0.0,0.0,0.0,0.0,0.0,0.0,0.0,0.0,0.0,0.0,0.0,0.0,0.0,0.0,0.0,0.0,0.0,0.0,0.0,0.0,0.0,0.0,0.0,0.0,0.0,0.0,0.0,0.0,0.0,0.0,0.0,0.0,0.0,0.0,0.0,0.0,0.0,0.0,0.0,0.0,0.0,0.0,0.0,0.0,0.0,0.0,0.0,0.0,0.0,0.0,0.0,0.0,0.0,0.0,0.0,0.0,0.0,0.0,0.0,0.0,0.0,0.0,0.0,0.0,0.0,0.0,0.0,0.0,0.0,0.0,0.0,0.0,0.0,0.0,0.0,0.0,0.0,0.0,0.0,0.0,0.0,0.0,0.0,0.0,-4.8191,-4.8287,-4.8306,-4.8306,-4.8306,-4.8306,-4.8306,-4.8306,0.0,0.0,0.0,0.0,0.0,0.0,0.0,0.0,0.0,0.0,0.0,0.0,0.0,0.0,0.0,0.0,0.0,0.0,0.0,0.0,0.0,0.0,0.0,0.0,0.0,0.0,0.0,0.0,0.0,0.0,0.0,0.0,0.0,0.0,0.0,0.0,0.0,0.0,0.0,0.0,0.0,0.0,0.0,0.0,0.0,0.0,0.0,0.0,0.0,0.0,0.0,0.0,0.0,0.0,0.0,0.0,0.0,0.0,0.0,0.0,0.0,0.0,0.0,0.0,0.0,0.0,0.0,0.0,0.0,0.0,0.0,0.0,0.0,0.0,0.0,0.0,0.0,0.0,0.0,0.0,0.0,0.0,0.0,0.0,0.0,0.0,0.0,0.0,0.0,0.0,0.0,0.0,0.0,0.0,0.0,0.0,0.0,0.0,0.0,0.0,0.0,0.0,0.0,-4.7491,-4.8172,-4.7856,-4.8094,-4.8306,-4.8306,-4.8306,-4.8306,-4.8306,-4.8306,0.0,0.0,0.0,0.0,0.0,0.0,0.0,0.0,0.0,0.0,0.0,0.0,0.0,0.0,0.0,0.0,0.0,0.0,0.0,0.0,0.0,0.0,0.0,0.0,0.0,0.0,0.0,0.0,0.0,0.0,0.0,0.0,0.0,0.0,0.0,0.0,0.0,0.0,0.0,0.0,0.0,0.0,0.0,0.0,0.0,0.0,0.0,0.0,0.0,0.0,0.0,0.0,0.0,0.0,0.0,0.0,0.0,0.0,0.0,0.0,0.0,0.0,0.0,0.0,0.0,0.0,0.0,0.0,0.0,0.0,0.0,0.0,0.0,0.0,0.0,0.0,0.0,0.0,0.0,0.0,0.0,0.0,0.0,0.0,0.0,0.0,0.0,0.0,0.0,0.0,0.0,0.0,0.0,0.0,0.0,0.0,0.0,0.0,0.0,0.0,0.0,0.0,-4.6959,-4.7677,-4.7216,-4.7736,-4.8075,-4.8075,-4.821,-4.8306,-4.8306,-4.8306,0.0,0.0,0.0,0.0,0.0,0.0,0.0,0.0,0.0,0.0,0.0,0.0,0.0,0.0,0.0,0.0,0.0,0.0,0.0,0.0,0.0,0.0,0.0,0.0,0.0,0.0,0.0,0.0,0.0,0.0,0.0,0.0,0.0,0.0,0.0,0.0,0.0,0.0,0.0,0.0,0.0,0.0,0.0,0.0,0.0,0.0,0.0,0.0,0.0,0.0,0.0,0.0,0.0,0.0,0.0,0.0,0.0,0.0,0.0,0.0,0.0,0.0,0.0,0.0,0.0,0.0,0.0,0.0,0.0,0.0,0.0,0.0,0.0,0.0,0.0,0.0,0.0,0.0,0.0,0.0,0.0,0.0,0.0,0.0,0.0,0.0,0.0,0.0,0.0,0.0,0.0,0.0,0.0,0.0,0.0,0.0,0.0,0.0,0.0,0.0,0.0,0.0,-4.6454,-4.6524,-4.646,-4.7084,-4.7449,-4.7449,-4.7995,-4.8306,-4.8306,-4.8306,0.0,0.0,0.0,0.0,0.0,0.0,0.0,0.0,0.0,0.0,0.0,0.0,0.0,0.0,0.0,0.0,0.0,0.0,0.0,0.0,0.0,0.0,0.0,0.0,0.0,0.0,0.0,0.0,0.0,0.0,0.0,0.0,0.0,0.0,0.0,0.0,0.0,0.0,0.0,0.0,0.0,0.0,0.0,0.0,0.0,0.0,0.0,0.0,0.0,0.0,0.0,0.0,0.0,0.0,0.0,0.0,0.0,0.0,0.0,0.0,0.0,0.0,0.0,0.0,0.0,0.0,0.0,0.0,0.0,0.0,0.0,0.0,0.0,0.0,0.0,0.0,0.0,0.0,0.0,0.0,0.0,0.0,0.0,0.0,0.0,0.0,0.0,0.0,0.0,0.0,0.0,0.0,0.0,0.0,0.0,0.0,0.0,0.0,0.0,0.0,0.0,0.0,-4.594,-4.6264,-4.5865,-4.6407,-4.6796,-4.6796,-4.6981,-4.711,-4.711,0.0,0.0,0.0,0.0,0.0,0.0,0.0,0.0,0.0,0.0,0.0,0.0,0.0,0.0,0.0,0.0,0.0,0.0,0.0,0.0,0.0,0.0,0.0,0.0,0.0,0.0,0.0,0.0,0.0,0.0,0.0,0.0,0.0,0.0,0.0,0.0,0.0,0.0,0.0,0.0,0.0,0.0,0.0,0.0,0.0,0.0,0.0,0.0,0.0,0.0,0.0,0.0,0.0,0.0,0.0,0.0,0.0,0.0,0.0,0.0,0.0,0.0,0.0,0.0,0.0,0.0,0.0,0.0,0.0,0.0,0.0,0.0,0.0,0.0,0.0,0.0,0.0,0.0,0.0,0.0,0.0,0.0,0.0,0.0,0.0,0.0,0.0,0.0,0.0,0.0,0.0,0.0,0.0,0.0,0.0,0.0,0.0,0.0,0.0,0.0,0.0,0.0,-4.4654,-4.532,-4.5673,-4.5258,-4.5757,-4.6119,-4.6119,-4.6288,-4.6407,-4.6407,0.0,0.0,0.0,0.0,0.0,0.0,0.0,0.0,0.0,0.0,0.0,0.0,0.0,0.0,0.0,0.0,0.0,0.0,0.0,0.0,0.0,0.0,0.0,0.0,0.0,0.0,0.0,0.0,0.0,0.0,0.0,0.0,0.0,0.0,0.0,0.0,0.0,0.0,0.0,0.0,0.0,0.0,0.0,0.0,0.0,0.0,0.0,0.0,0.0,0.0,0.0,0.0,0.0,0.0,0.0,0.0,0.0,0.0,0.0,0.0,0.0,0.0,0.0,0.0,0.0,0.0,0.0,0.0,0.0,0.0,0.0,0.0,0.0,0.0,0.0,0.0,0.0,0.0,0.0,0.0,0.0,0.0,0.0,0.0,0.0,0.0,0.0,0.0,0.0,0.0,0.0,0.0,0.0,0.0,0.0,0.0,0.0,0.0,0.0,0.0,0.0,0.0,-4.4615,-4.4615,-4.4615,-4.4615,-4.5125,-4.5485,-4.5485,-4.6039,-4.6383,0.0,0.0,0.0,0.0,0.0,0.0,0.0,0.0,0.0,0.0,0.0,0.0,0.0,0.0,0.0,0.0,0.0,0.0,0.0,0.0,0.0,0.0,0.0,0.0,0.0,0.0,0.0,0.0,0.0,0.0,0.0,0.0,0.0,0.0,0.0,0.0,0.0,0.0,0.0,0.0,0.0,0.0,0.0,0.0,0.0,0.0,0.0,0.0,0.0,0.0,0.0,0.0,0.0,0.0,0.0,0.0,0.0,0.0,0.0,0.0,0.0,0.0,0.0,0.0,0.0,0.0,0.0,0.0,0.0,0.0,0.0,0.0,0.0,0.0,0.0,0.0,0.0,0.0,0.0,0.0,0.0,0.0,0.0,0.0,0.0,0.0,0.0,0.0,0.0,0.0,0.0,0.0,0.0,0.0,0.0,0.0,0.0,0.0,0.0,0.0,0.0,0.0,0.0,-4.4615,-4.4615,-4.4615,-4.4615,-4.4776,-4.4869,-4.4869,-4.5025,-4.5142,-4.5142,0.0,0.0,0.0,0.0,0.0,0.0,0.0,0.0,0.0,0.0,0.0,0.0,0.0,0.0,0.0,0.0,0.0,0.0,0.0,0.0,0.0,0.0,0.0,0.0,0.0,0.0,0.0,0.0,0.0,0.0,0.0,0.0,0.0,0.0,0.0,0.0,0.0,0.0,0.0,0.0,0.0,0.0,0.0,0.0,0.0,0.0,0.0,0.0,0.0,0.0,0.0,0.0,0.0,0.0,0.0,0.0,0.0,0.0,0.0,0.0,0.0,0.0,0.0,0.0,0.0,0.0,0.0,0.0,0.0,0.0,0.0,0.0,0.0,0.0,0.0,0.0,0.0,0.0,0.0,0.0,0.0,0.0,0.0,0.0,0.0,0.0,0.0,0.0,0.0,0.0,0.0,0.0,0.0,0.0,0.0,0.0,0.0,0.0,0.0,0.0,0.0,0.0,-4.4615,-4.4615,-4.4615,-4.4615,-4.4615,-4.4615,-4.4615,-4.4615,-4.4615,-4.4615,0.0,0.0,0.0,0.0,0.0,0.0,0.0,0.0,0.0,0.0,0.0,0.0,0.0,0.0,0.0,0.0,0.0,0.0,0.0,0.0,0.0,0.0,0.0,0.0,0.0,0.0,0.0,0.0,0.0,0.0,0.0,0.0,0.0,0.0,0.0,0.0,0.0,0.0,0.0,0.0,0.0,0.0,0.0,0.0,0.0,0.0,0.0,0.0,0.0,0.0,0.0,0.0,0.0,0.0,0.0,0.0,0.0,0.0,0.0,0.0,0.0,0.0,0.0,0.0,0.0,0.0,0.0,0.0,0.0,0.0,0.0,0.0,0.0,0.0,0.0,0.0,0.0,0.0,0.0,0.0,0.0,0.0,0.0,0.0,0.0,0.0,0.0,0.0,0.0,0.0,0.0,0.0,0.0,0.0,0.0,0.0,0.0,0.0,0.0,0.0,0.0,0.0,-4.4485,-4.4412,-4.4384,-4.4485,-4.4412,-4.4384,-4.4485,-4.4412,-4.4355,-4.4355,0.0,0.0,0.0,0.0,0.0,0.0,0.0,0.0,0.0,0.0,0.0,0.0,0.0,0.0,0.0,0.0,0.0,0.0,0.0,0.0,0.0,0.0,0.0,0.0,0.0,0.0,0.0,0.0,0.0,0.0,0.0,0.0,0.0,0.0,0.0,0.0,0.0,0.0,0.0,0.0,0.0,0.0,0.0,0.0,0.0,0.0,0.0,0.0,0.0,0.0,0.0,0.0,0.0,0.0,0.0,0.0,0.0,0.0,0.0,0.0,-4.6447,-4.7309,0.0,0.0,0.0,0.0,0.0,0.0,0.0,0.0,0.0,0.0,0.0,0.0,0.0,0.0,0.0,0.0,0.0,0.0,0.0,0.0,0.0,0.0,0.0,0.0,0.0,0.0,0.0,0.0,0.0,0.0,0.0,0.0,0.0,0.0,0.0,0.0,0.0,0.0,0.0,0.0,-4.3502,-4.297,-4.2816,-4.3486,-4.297,-4.2831,-4.3532,-4.2939,-4.2536,-4.2536,-4.2536,0.0,0.0,0.0,0.0,0.0,0.0,0.0,0.0,0.0,0.0,0.0,0.0,0.0,0.0,0.0,0.0,0.0,0.0,0.0,0.0,0.0,0.0,0.0,0.0,0.0,0.0,0.0,0.0,0.0,0.0,0.0,0.0,0.0,0.0,0.0,0.0,0.0,0.0,0.0,0.0,0.0,0.0,0.0,0.0,0.0,0.0,0.0,0.0,0.0,0.0,0.0,0.0,0.0,0.0,0.0,0.0,0.0,0.0,0.0,-4.5539,-4.6018,0.0,0.0,0.0,0.0,0.0,0.0,0.0,0.0,0.0,0.0,0.0,0.0,0.0,0.0,0.0,0.0,0.0,0.0,0.0,0.0,0.0,0.0,0.0,0.0,0.0,0.0,0.0,0.0,0.0,0.0,0.0,0.0,0.0,0.0,0.0,0.0,0.0,0.0,0.0,0.0,-4.2614,-4.2284,-4.2157,-4.2614,-4.2252,-4.2189,-4.2645,-4.2252,-4.1997,-4.1997,-4.1997,0.0,0.0,0.0,0.0,0.0,0.0,0.0,0.0,0.0,0.0,0.0,0.0,0.0,0.0,0.0,0.0,0.0,0.0,0.0,0.0,0.0,0.0,0.0,0.0,0.0,0.0,0.0,0.0,0.0,0.0,0.0,0.0,0.0,0.0,0.0,0.0,0.0,0.0,0.0,0.0,0.0,0.0,0.0,0.0,0.0,0.0,0.0,0.0,0.0,0.0,0.0,0.0,0.0,-4.3504,-4.3361,-4.317,-4.317,-4.3074,-4.293,-4.4163,-4.4256,-4.3646,-4.5779,0.0,0.0,0.0,0.0,0.0,0.0,0.0,0.0,0.0,0.0,0.0,0.0,0.0,0.0,0.0,0.0,0.0,0.0,0.0,0.0,0.0,0.0,-4.2144,-4.0555,-4.0822,-4.1139,-3.9942,0.0,0.0,0.0,0.0,0.0,0.0,0.0,0.0,0.0,0.0,0.0,-4.1756,-4.1642,-4.1609,-4.1772,-4.1642,-4.1609,-4.1772,-4.1642,-4.1543,-4.1543,-4.1543,-4.1609,0.0,0.0,0.0,0.0,0.0,0.0,0.0,0.0,0.0,0.0,0.0,0.0,0.0,0.0,0.0,0.0,0.0,0.0,0.0,0.0,0.0,0.0,0.0,0.0,0.0,0.0,0.0,0.0,0.0,0.0,0.0,0.0,-4.3504,-4.3504,0.0,0.0,0.0,0.0,0.0,0.0,0.0,0.0,0.0,0.0,0.0,0.0,0.0,-4.3693,-4.3504,-4.3504,-4.3504,-4.3504,-4.3504,-4.293,-4.1838,-4.1838,-4.1269,-4.0262,-4.1555,0.0,-4.3551,-4.3882,0.0,0.0,0.0,0.0,0.0,0.0,0.0,0.0,0.0,0.0,0.0,0.0,0.0,0.0,0.0,0.0,0.0,0.0,0.0,0.0,0.0,0.0,-3.9383,-3.8602,-3.8155,-3.7676,-3.6923,-3.8681,-4.0202,-3.9544,-3.9388,-3.9388,0.0,0.0,0.0,0.0,0.0,0.0,-4.0758,-4.022,-4.0025,-4.0792,-4.0185,-4.006,-4.0826,-4.0185,-3.9737,-3.9737,-3.9737,-4.0095,-4.0844,-4.0878,0.0,0.0,0.0,0.0,0.0,0.0,0.0,0.0,0.0,0.0,0.0,0.0,0.0,0.0,0.0,0.0,0.0,0.0,0.0,0.0,0.0,0.0,0.0,0.0,0.0,0.0,0.0,0.0,0.0,-4.1032,-4.1369,-4.1369,-4.1369,-4.1369,0.0,0.0,0.0,0.0,0.0,0.0,0.0,0.0,0.0,-4.2461,-4.2412,-4.207,-4.1369,-4.1369,-4.1198,-4.092,-4.092,-4.0418,-3.9578,-3.9578,-3.9256,-3.8793,-3.9355,-3.991,-4.0544,-4.2337,-4.241,-4.1531,0.0,0.0,0.0,0.0,-4.1951,-4.1564,-4.0979,-4.0121,-3.9375,-3.9763,0.0,0.0,0.0,0.0,0.0,0.0,0.0,-3.9245,-3.8594,-3.8478,-3.8213,-3.6927,-3.6948,-3.7011,-3.6336,-3.718,-3.8145,-3.8441,-3.898,-3.9388,-3.9388,-3.9388,0.0,0.0,0.0,-3.9553,-3.992,-3.9646,-3.9553,-3.9935,-3.9646,-3.9538,-3.9935,-3.961,-3.9388,-3.9388,-3.9388,-3.9574,-3.9955,-3.9955,-3.9967,0.0,0.0,0.0,0.0,0.0,0.0,0.0,0.0,0.0,0.0,0.0,0.0,0.0,0.0,0.0,0.0,0.0,0.0,0.0,0.0,0.0,0.0,0.0,0.0,0.0,0.0,0.0,0.0,-3.9697,-3.9697,-3.9697,-3.9697,-3.9697,0.0,0.0,0.0,0.0,0.0,0.0,-4.1119,-4.2035,-4.2003,-4.0961,-4.0911,-4.0359,-3.927,-3.927,-3.9057,-3.8642,-3.8642,-3.8417,-3.8002,-3.8002,-3.8002,-3.8002,-3.8002,-3.7927,-3.7974,-4.0484,-4.0648,-3.9516,-4.0468,-4.0827,-4.0814,-4.0665,-4.0326,-3.9843,-3.9726,-3.877,-3.7815,-3.8707,-3.8392,-3.7815,-3.8751,0.0,0.0,0.0,0.0,-3.8155,-3.7295,-3.7302,-3.716,-3.5817,-3.5944,-3.621,-3.571,-3.5723,-3.6146,-3.719,-3.8017,-3.8657,-3.8943,-3.898,0.0,-3.9337,-3.9388,-3.9388,-3.9388,-3.9388,-3.9388,-3.9388,-3.9388,-3.9388,-3.9388,-3.9388,-3.9388,-3.9388,-3.9388,-3.9388,-3.9388,-3.9388,-3.9185,-3.8661,0.0,0.0,0.0,0.0,0.0,0.0,0.0,0.0,0.0,0.0,0.0,0.0,0.0,0.0,0.0,0.0,0.0,0.0,0.0,0.0,0.0,0.0,0.0,0.0,0.0,0.0,0.0,0.0,0.0,-3.9697,-3.9697,0.0,0.0,0.0,0.0,-3.9697,-3.9736,-3.9788,-3.9788,-3.9839,-3.9651,-3.907,-3.9058,-3.8743,-3.8103,-3.809,-3.8078,-3.8052,-3.8052,-3.804,-3.8002,-3.8002,-3.8002,-3.8002,-3.8002,-3.7713,-3.731,-3.7961,-3.8175,-3.8101,-3.8187,-3.8187,-3.8124,-3.7594,-3.7427,-3.7291,-3.6808,-3.6559,-3.6499,-3.6546,-3.6534,-3.6499,-3.6546,-3.6593,0.0,0.0,-3.6555,-3.6543,-3.6449,-3.6045,-3.5617,-3.5512,-3.4785,-3.406,-3.4022,-3.4412,-3.5088,-3.6093,-3.6316,-3.6682,-3.7701,0.0,-3.8234,-3.9265,-3.9388,-3.9388,-3.9388,-3.9388,-3.9388,-3.9388,-3.9388,-3.9388,-3.9388,-3.9388,-3.9388,-3.9388,-3.9388,-3.9388,-3.9388,-3.9388,-3.9373,-3.9328,-3.8721,0.0,0.0,0.0,0.0,0.0,0.0,0.0,0.0,0.0,0.0,0.0,0.0,0.0,0.0,0.0,0.0,0.0,0.0,0.0,0.0,0.0,0.0,0.0,0.0,0.0,0.0,0.0,0.0,-3.9697,-3.9697,0.0,-3.9697,-3.9697,-3.9697,-3.9697,-3.9697,-3.9697,-3.9697,-3.9697,-3.9597,-3.9408,-3.9396,-3.9295,-3.9094,-3.9094,-3.873,-3.8002,-3.8002,-3.7638,-3.6996,-3.6996,-3.6996,-3.6996,-3.6996,-3.6835,-3.6719,-3.6908,-3.6996,-3.6996,-3.6996,-3.6996,-3.6971,-3.6769,-3.6707,-3.6669,-3.648,-3.6405,-3.6405,-3.6405,-3.6405,-3.6405,-3.6405,-3.6405,-3.6405,-3.6405,-3.6107,-3.583,-3.583,-3.5429,-3.4969,-3.4969,-3.4668,-3.4424,-3.4424,-3.4572,-3.4833,-3.5185,-3.5748,-3.633,-3.6682,-3.6774,-3.6891,-3.7276,-3.7685,-3.776,-3.7372,-3.7699,-3.7745,-3.7372,-3.7942,-3.8383,-3.8383,-3.898,-3.9104,-3.842,-3.8383,-3.8055,-3.7367,-3.7329,-3.7329,-3.7329,-3.7101,-3.7342,0.0,0.0,0.0,0.0,0.0,0.0,0.0,0.0,0.0,0.0,0.0,0.0,0.0,0.0,0.0,0.0,0.0,0.0,0.0,0.0,0.0,0.0,0.0,0.0,0.0,-3.8214,-3.8214,-3.8214,-3.8214,-3.8214,-3.8214,-3.8214,-3.8214,-3.8214,-3.8214,-3.8214,-3.8214,-3.8214,-3.8117,-3.7936,-3.7923,-3.7839,-3.7657,-3.7657,-3.7242,-3.6529,-3.6529,-3.6154,-3.5477,-3.5477,-3.5477,-3.5465,-3.5806,-3.5938,-3.5926,-3.5789,-3.6013,-3.6405,-3.6405,-3.6405,-3.6405,-3.6405,-3.6405,-3.6405,-3.6405,-3.6405,-3.6405,-3.6405,-3.6405,-3.6405,-3.6405,-3.6405,-3.6405,-3.6405,-3.6094,-3.5818,-3.5818,-3.5542,-3.5278,-3.5278,-3.514,-3.4956,-3.4956,-3.4806,-3.468,-3.468,-3.5215,-3.5815,-3.6185,-3.6212,-3.6348,-3.6698,-3.7097,-3.7221,-3.6834,-3.7111,-3.7207,-3.6834,-3.7405,-3.7781,-3.7568,-3.8553,-3.8616,-3.7357,-3.7587,-3.7305,-3.6237,-3.6198,-3.6198,-3.6198,-3.6198,-3.6565,-3.7252,0.0,0.0,0.0,0.0,0.0,0.0,0.0,0.0,0.0,0.0,0.0,0.0,0.0,0.0,0.0,0.0,0.0,0.0,0.0,0.0,0.0,0.0,0.0,-3.5288,-3.5288,-3.5288,-3.5288,-3.5288,-3.5288,-3.5288,-3.5288,-3.5288,-3.5288,-3.5288,-3.5288,-3.5288,-3.5288,-3.501,-3.4464,-3.4441,-3.4164,-3.3632,-3.3632,-3.3621,-3.361,-3.361,-3.3599,-3.3587,-3.3587,-3.3587,-3.3659,-3.4551,-3.4958,-3.4923,-3.4537,-3.5126,-3.6301,-3.6323,-3.6358,-3.6405,-3.6405,-3.6405,-3.6405,-3.6405,-3.6405,-3.6405,-3.6405,-3.6405,-3.6405,-3.6405,-3.6405,-3.6405,-3.6405,-3.6405,-3.6405,-3.6405,-3.6405,-3.6405,-3.6405,-3.5956,-3.552,-3.552,-3.5107,-3.4731,-3.4731,-3.4731,-3.5053,-3.607,-3.6262,-3.6595,-3.7631,-3.7812,0.0,-3.7798,-3.7812,-3.7826,-3.7798,-3.784,-3.7648,-3.7111,-3.8046,-3.7934,-3.6267,-3.7151,-3.7228,-3.6172,-3.6079,-3.6079,-3.6079,-3.6132,-3.6158,-3.6158,0.0,0.0,0.0,0.0,0.0,0.0,0.0,0.0,0.0,0.0,0.0,0.0,0.0,0.0,0.0,0.0,0.0,0.0,0.0,0.0,0.0,-3.3042,-3.4069,-3.5123,-3.5288,-3.5288,-3.5288,-3.5288,-3.5288,-3.5288,-3.5288,-3.5288,-3.5288,-3.5288,-3.5288,-3.5288,-3.5288,-3.5232,-3.5032,-3.5032,-3.4965,-3.4831,-3.4831,-3.4586,-3.4164,-3.4164,-3.3986,-3.3587,-3.3587,-3.3587,-3.3629,-3.3862,-3.3962,-3.3962,-3.3878,-3.4028,-3.4409,-3.4807,-3.5523,-3.6405,-3.6405,-3.6405,-3.6405,-3.6405,-3.6405,-3.6405,-3.6405,-3.6405,-3.6405,-3.6405,-3.6405,-3.6405,-3.6405,-3.6405,-3.6405,-3.6405,-3.6405,-3.6405,-3.6405,-3.6292,-3.6132,-3.6132,-3.6019,-3.5906,-3.5906,-3.5906,-3.5735,-3.5232,-3.5137,-3.5226,-3.5556,-3.5903,-3.6019,-3.5651,-3.5916,-3.6006,-3.5639,-3.6262,-3.67,-3.654,-3.7154,-3.7001,-3.5771,-3.5615,-3.5061,-3.3982,-3.394,-3.394,-3.394,-3.4733,-3.5129,0.0,0.0,0.0,0.0,0.0,0.0,0.0,0.0,0.0,0.0,0.0,0.0,0.0,0.0,0.0,0.0,0.0,0.0,0.0,0.0,0.0,0.0,-3.1604,-3.2483,-3.3314,-3.3484,-3.3484,-3.3484,-3.3484,-3.3484,-3.3484,-3.3484,-3.3484,-3.3484,-3.3484,-3.3484,-3.3484,-3.3484,-3.3484,-3.3484,-3.3484,-3.3484,-3.3484,-3.3484,-3.3279,-3.2947,-3.2947,-3.2754,-3.2501,-3.2501,-3.2501,-3.248,-3.2857,-3.303,-3.3019,-3.2824,-3.311,-3.3637,0.0,0.0,0.0,0.0,-3.5199,-3.5463,-3.4896,-3.4691,-3.4691,-3.4691,-3.4691,-3.4691,-3.4691,-3.4691,-3.4691,-3.4691,-3.4691,-3.4691,-3.4691,-3.4691,-3.4691,-3.4691,-3.4691,-3.4848,-3.5415,-3.5571,-3.5715,-3.631,-3.6405,0.0,-3.5516,-3.5416,-3.5416,-3.5416,-3.568,-3.5768,-3.5454,-3.5692,-3.5768,-3.5441,-3.596,-3.6251,-3.5974,-3.6648,0.0,0.0,0.0,-3.4438,-3.3167,-3.3124,0.0,0.0,0.0,-3.4037,-3.4037,-3.4609,0.0,0.0,-3.5774,-3.5974,0.0,0.0,0.0,0.0,0.0,0.0,0.0,0.0,0.0,0.0,0.0,0.0,0.0,0.0,0.0,0.0,-3.0889,-3.0889,-3.0889,-3.0889,-3.0889,-3.0889,-3.0889,-3.0889,-3.0889,-3.0889,-3.0889,-3.0889,-3.0889,-3.0889,-3.0889,-3.0889,0.0,0.0,0.0,-3.0889,-3.0889,-3.0889,-3.0889,-3.0889,-3.0889,-3.0889,-3.0889,-3.0889,-3.0889,-3.0918,-3.1712,-3.2058,-3.2037,-3.1698,-3.222,-3.3318,-3.3526,-3.3587,-3.3584,-3.3213,-3.3604,-3.4146,-3.2864,0.0,0.0,-3.2381,-3.237,-3.2359,-3.2303,-3.228,-3.228,-3.228,-3.228,-3.228,-3.228,-3.228,-3.228,-3.228,-3.228,-3.2644,-3.3871,-3.4178,-3.452,-3.5702,-3.5953,-3.5953,-3.5953,-3.6203,-3.6405,-3.6405,-3.6405,-3.6405,-3.6405,-3.6405,-3.6405,-3.6405,-3.6405,0.0,-3.5633,-3.6386,-3.6102,-3.4192,-3.4869,-3.4688,-3.3237,-3.3106,-3.3124,-3.3124,-3.3124,-3.3124,-3.3124,-3.3124,-3.3124,-3.3154,-3.4993,-3.5346,0.0,0.0,0.0,0.0,0.0,0.0,0.0,0.0,0.0,0.0,0.0,0.0,0.0,0.0,0.0,-3.0889,-3.0889,-3.0889,-3.0889,-3.0889,-3.0889,-3.0889,-3.0889,-3.0889,-3.0889,-3.0889,-3.0889,-3.0889,-3.0889,-3.0889,-3.0889,-3.0889,-3.0889,-3.0889,-3.0889,-3.0889,-3.0889,-3.0889,-3.0889,-3.0889,-3.0889,0.0,-3.0889,-3.0889,-3.0889,-3.0889,-3.1072,-3.1148,-3.1138,-3.1049,-3.1192,-3.1549,-3.3052,-3.3587,-3.3576,-3.3529,-3.3597,-3.3727,-3.3455,-3.335,-3.3295,-3.2956,-3.2884,-3.2806,-3.2403,-3.228,0.0,-3.228,-3.228,-3.228,-3.228,-3.228,-3.228,-3.228,-3.228,-3.2381,-3.2644,-3.2694,-3.2794,-3.3032,-3.3082,-3.3082,-3.3082,-3.4945,-3.6405,-3.6405,-3.6405,-3.6405,-3.6405,-3.6405,-3.6405,-3.6405,-3.6405,-3.6367,-3.6267,-3.5966,-3.5625,-3.524,-3.4552,-3.4054,-3.3746,-3.3319,-3.3124,-3.3124,-3.3124,-3.3124,-3.3124,-3.3124,-3.3124,-3.3124,-3.3501,-3.3586,0.0,0.0,0.0,0.0,0.0,0.0,0.0,0.0,0.0,0.0,0.0,-3.0889,-3.0889,0.0,-3.0889,-3.0889,-3.0889,-3.0889,-3.0889,-3.0889,-3.0889,-3.0889,-3.0889,-3.0889,-3.0889,-3.0889,-3.0889,-3.0889,-3.0889,-3.0889,-3.0889,-3.0889,-3.0889,-3.0889,-3.0889,-3.0889,-3.0889,-3.0889,-3.0889,-3.0889,-3.0889,-3.0889,-3.0889,-3.0889,-3.0889,-3.0889,-3.0889,-3.0889,-3.0889,-3.0889,-3.0889,-3.1014,-3.1876,-3.2513,-3.2825,-3.2127,-3.2197,-3.248,-3.1844,-3.1584,-3.1542,-3.1376,-3.1303,-3.125,-3.102,-3.0779,-3.0601,-3.0601,-3.0444,-3.0317,-3.0317,-3.0317,-3.0317,-3.0317,-3.0317,-3.0463,-3.1173,-3.1276,-3.148,-3.218,-3.228,-3.228,-3.228,-3.3441,-3.4593,-3.5271,-3.5415,-3.5619,-3.631,-3.6405,-3.6405,-3.6405,-3.6405,-3.6405,-3.6405,-3.5868,-3.5495,-3.5495,-3.4731,-3.4186,-3.3909,-3.3633,-3.3357,-3.3124,-3.3124,-3.3124,-3.3124,-3.3124,-3.3124,-3.3124,-3.3124,-3.3124,0.0,0.0,0.0,0.0,0.0,0.0,0.0,-3.0889,-3.0889,-3.0889,-3.0889,-3.0889,-3.0889,-3.0889,-3.0889,-3.0889,-3.0889,-3.0889,-3.0889,-3.0889,-3.0889,-3.0889,-3.0889,-3.0889,-3.0889,-3.0889,-3.0889,-3.0889,-3.0889,-3.0889,-3.0889,-3.0889,-3.0889,-3.0889,-3.0889,-3.0889,-3.0889,-3.0889,-3.0889,-3.0889,-3.0889,-3.0889,-3.0889,-3.0889,-3.0889,-3.0889,-3.0889,-3.0889,-3.0889,-3.0889,-3.0889,-3.0889,-3.0889,-3.1317,-3.1804,-3.0712,-3.0824,-3.1326,-3.0254,-2.9824,-2.9814,-2.9773,-2.9744,-2.9678,-2.959,-2.9326,-2.9043,-2.9043,-2.874,-2.8418,-2.8418,-2.8359,-2.8291,-2.8291,-2.8291,-2.8601,-2.966,-2.9911,-3.0214,-3.1327,-3.152,-3.152,-3.152,-3.152,-3.209,-3.3723,-3.397,-3.4471,-3.581,-3.575,-3.5702,-3.5966,-3.575,-3.5702,-3.6013,-3.5815,-3.5658,-3.5658,-3.5144,-3.4675,-3.4236,-3.411,-3.3796,-3.3257,-3.3275,-3.3181,-3.3124,-3.3124,-3.3124,-3.3124,-3.3124,-3.3124,-3.0889,-3.0889,-3.0889,-3.0889,-3.0889,-3.0889,0.0,-3.0889,-3.0889,-3.0889,-3.0889,-3.0889,-3.0889,-3.0889,-3.0889,-3.0889,-3.0889,-3.0889,-3.0889,-3.0889,-3.0889,-3.0889,-3.0889,-3.0889,-3.0889,-3.0889,-3.0889,-3.0889,-3.0889,-3.0889,-3.0889,-3.0889,-3.0889,-3.0889,-3.0889,-3.0889,-3.0889,-3.0889,-3.0889,-3.0889,-3.0889,-3.0889,-3.0889,-3.0889,-3.0889,-3.0889,-3.0889,-3.0889,-3.0889,-3.0889,-3.0889,-3.0889,-3.0889,-3.0966,-3.1033,-3.0869,-3.0897,-3.0964,-3.08,-3.0742,-3.0674,-3.0264,-3.0127,-3.0059,-2.9687,-2.9531,-2.9502,-2.9502,-2.9189,-2.8848,-2.8848,-2.8574,-2.8291,-2.8291,-2.8291,-2.8344,-2.8495,-2.8548,-2.8548,-2.8698,-2.8751,-2.8751,-2.8751,-2.8751,-2.9618,-3.2129,-3.2532,-3.3044,-3.4422,-3.3552,-3.3254,-3.4483,-3.3502,-3.3243,-3.4532,-3.5665,-3.6317,-3.6317,-3.5755,-3.537,-3.532,-3.4843,-3.4374,-3.3822,-3.3809,-3.3571,-3.3124,-3.3124,-3.3124,-3.3124,-3.3124,-3.3124,-3.0889,-3.0889,-3.0889,-3.0889,-3.0889,-3.0889,-3.0889,-3.0889,-3.0889,-3.0889,-3.0889,-3.0889,-3.0889,-3.0889,-3.0889,-3.0889,-3.0889,-3.0889,-3.0889,-3.0889,-3.0889,-3.0889,-3.0889,-3.0889,-3.0889,-3.0889,-3.0889,-3.0889,-3.0889,-3.0889,-3.0889,-3.0889,-3.0889,-3.0889,-3.0889,-3.0889,-3.0889,-3.0889,-3.0889,-3.0889,-3.0889,-3.0889,-3.0889,-3.0889,-3.0889,-3.0889,-3.0889,-3.0889,-3.0889,-3.0889,-3.0889,-3.0889,-3.0889,-3.0889,-3.0889,-3.0889,-3.0889,-3.0889,-3.0889,-3.0889,-3.0859,-3.0664,-3.0605,-3.0566,-3.0391,-3.0146,-2.9932,-2.9932,-2.9629,-2.9238,-2.8984,-2.8789,-2.8594,-2.835,-2.8291,-2.8291,-2.8291,-2.8291,-2.8291,-2.8291,-2.8291,-2.8291,-2.8291,-2.8291,-2.8698,-2.9817,-3.0618,-3.1633,-3.3005,-3.2644,-3.2543,-3.3105,-3.2644,-3.2543,-3.3155,-3.37,-3.3995,-3.3995,-3.3795,-3.3488,-3.3194,-3.3706,-3.373,-3.3196,-3.3945,-3.4261,-3.4035,-3.3709,-3.3558,-3.3545,-3.3275,-3.3124,-3.0889,-3.0889,-3.0889,-3.0889,-3.0889,-3.0889,-3.0889,-3.0889,-3.0889,-3.0889,-3.0889,-3.0889,-3.0889,-3.0889,-3.0889,-3.0889,-3.0889,-3.0889,-3.0889,-3.0889,-3.0889,-3.0889,-3.0889,-3.0889,-3.0889,-3.0889,-3.0889,-3.0889,-3.0889,-3.0889,-3.0889,-3.0889,-3.0889,-3.0889,-3.0889,-3.0889,-3.0889,-3.0889,-3.0889,-3.0889,-3.0889,-3.0889,-3.0889,-3.0889,-3.0889,-3.0889,-3.0889,-3.0889,-3.0889,-3.0889,-3.0889,-3.0889,-3.0889,-3.0889,-3.0889,-3.0889,-3.0889,-3.0889,-3.0889,-3.0889,-3.0889,-3.0889,-3.0889,-3.0889,-3.0889,-3.0654,-3.0391,-3.0391,-3.0078,-2.9668,-2.9355,-2.9189,-2.8994,-2.8564,-2.8467,-2.8437,-2.831,-2.8291,-2.8291,-2.8291,-2.8291,-2.8291,-2.8291,-2.8291,-2.8291,-2.8291,-2.9154,-3.0214,-3.1582,-3.1735,-3.1633,-3.1224,-3.1531,-3.1735,-3.1735,-3.2079,-3.228,-3.228,-3.228,-3.2124,-3.1716,-3.2641,-3.2906,-3.2393,-3.3683,-3.4292,-3.4144,-3.4132,-3.4123,-3.411,-3.3558,-3.3307,-3.0889,-3.0889,-3.0889,-3.0889,-3.0889,-3.0889,-3.0889,-3.0889,-3.0889,-3.0889,-3.0889,-3.0889,-3.0889,-3.0889,-3.0889,-3.0889,-3.0889,-3.0889,-3.0889,-3.0889,-3.0889,-3.0889,-3.0889,-3.0889,-3.0889,-3.0889,-3.0889,-3.0889,-3.0889,-3.0889,-3.0889,-3.0889,-3.0889,-3.0889,-3.0889,-3.0889,-3.0889,-3.0889,-3.0889,-3.0889,-3.0889,-3.0889,-3.0889,-3.0889,-3.0889,-3.0889,-3.0889,-3.0889,-3.0889,-3.0889,-3.0889,-3.0889,-3.0889,-3.0889,-3.0889,-3.0889,-3.0889,-3.0889,-3.0889,-3.0889,-3.0889,-3.0889,-3.0889,-3.0889,-3.0889,-3.0879,-3.0869,-3.0869,-3.0537,-3.0176,-3.0156,-2.9853,-2.9443,-2.9004,-2.8896,-2.8789,-2.8379,-2.8291,-2.8291,-2.8291,-2.8291,-2.8291,-2.8291,-2.8291,-2.8291,-2.8291,-2.8344,-2.8857,-3.0162,-3.0369,-2.9859,-2.8548,-2.9555,-3.0369,-3.0369,-3.152,-3.228,-3.228,-3.228,-3.228,-3.2258,-3.2308,-3.2073,-3.1542,-3.2858,-3.3303,-3.2746,-3.4028,-3.47,-3.4675,-3.4135,-3.3872,-2.953,-3.002,-3.0889,-3.0889,-3.0889,-3.0889,-3.0889,-3.0889,-3.0889,-3.0889,-3.1113,-3.1309,-3.1309,-3.1309,-3.1309,-3.1309,-3.1074,-3.0889,-3.0889,-3.0889,-3.0889,-3.0889,-3.0889,-3.0889,-3.0889,-3.0889,-3.0889,-3.0889,-3.0889,-3.0889,-3.0889,-3.0889,-3.0889,-3.0889,-3.0889,-3.0889,-3.0889,-3.0889,-3.0889,-3.0889,-3.0889,-3.0889,-3.0889,-3.0889,-3.0889,-3.0889,-3.0889,-3.0889,-3.0889,-3.0889,-3.0889,-3.0889,-3.0889,-3.0889,-3.0889,-3.0889,-3.0889,-3.0889,-3.0889,-3.0889,-3.0889,-3.0889,-3.0889,-3.0889,-3.0889,-3.0889,-3.0889,-3.0889,-3.0781,-3.0586,-3.0273,-3.0098,-2.9873,-2.9453,-2.9131,-2.8877,-2.874,-2.8496,-2.8291,-2.8291,-2.8291,-2.8291,-2.8291,-2.8291,-2.8291,-2.8291,-2.8291,-2.8441,-2.89,-2.8953,-2.8804,-2.8344,-2.8698,-2.8953,-2.8953,-2.9408,-2.966,-2.966,-2.966,-2.966,-2.966,-3.0514,-3.0893,-3.0691,-3.2034,-3.2602,-3.243,-3.2547,-3.2577,-3.2566,-3.2054,-3.1763,-2.9403,-3.0089,-3.0889,-3.0889,-3.0889,-3.0889,-3.0889,-3.0889,-3.0889,-3.0889,-3.123,-3.1514,-3.1514,-3.165,-3.1748,-3.1748,-3.1523,-3.1289,-3.1133,-3.1113,-3.1064,-3.0908,-3.0889,-3.0889,-3.0889,-3.0889,-3.0889,-3.0889,-3.0889,-3.0889,-3.0889,-3.0889,-3.0889,-3.0889,-3.0889,-3.0889,-3.0889,-3.0889,-3.0889,-3.0889,-3.0889,-3.0889,-3.0889,-3.0889,-3.0889,-3.0889,-3.0889,-3.0889,-3.0889,-3.0889,-3.0889,-3.0889,-3.0889,-3.0889,-3.0889,-3.0889,-3.0889,-3.0889,-3.0889,-3.0889,-3.0889,-3.0889,-3.0889,-3.0889,-3.0889,-3.0889,-3.0889,-3.0889,-3.0889,-3.082,-3.0518,-3.0449,-3.0332,-2.9893,-2.958,-2.9287,-2.8984,-2.8711,-2.8476,-2.832,-2.8291,-2.8291,-2.8291,-2.8291,-2.8291,-2.8291,-2.8291,-2.8291,-2.8291,-2.8291,-2.8291,-2.8291,-2.8291,-2.8291,-2.8291,-2.8291,-2.8291,-2.8291,-2.8291,-2.8291,-2.8291,-2.9154,-2.9608,-2.9608,-3.0927,-3.1582,-3.1582,-3.1717,-3.1761,-3.175,-3.1258,-3.0986,-3.0333,-3.083,-3.0889,-3.0889,-3.0889,-3.0889,-3.0889,-3.0889,-3.0898,-3.0918,-3.126,-3.1562,-3.1582,-3.1924,-3.2207,-3.2207,-3.2158,-3.1992,-3.1572,-3.1504,-3.1338,-3.0937,-3.0889,-3.0889,-3.0889,-3.0889,-3.0889,-3.0889,-3.0889,-3.0889,-3.0889,-3.0889,-3.0889,-3.0889,-3.0889,-3.0889,-3.0889,-3.0889,-3.0889,-3.0889,-3.0889,-3.0889,-3.0889,-3.0889,-3.0889,-3.0889,-3.0889,-3.0889,-3.0889,-3.0889,-3.0889,-3.0889,-3.0889,-3.0889,-3.0889,-3.0889,-3.0889,-3.0889,-3.0889,-3.0889,-3.0889,-3.0889,-3.0889,-3.0889,-3.0889,-3.0889,-3.0889,-3.0889,-3.0889,-3.0889,-3.0889,-3.0889,-3.0781,-3.0332,-3.0215,-2.9971,-2.9131,-2.8935,-2.8789,-2.8369,-2.8291,-2.8291,-2.8291,-2.8291,-2.8291,-2.8291,-2.8291,-2.8291,-2.8291,-2.8291,-2.8291,-2.8291,-2.8291,-2.8291,-2.8291,-2.8291,-2.8291,-2.8291,-2.8291,-2.8291,-2.8291,-2.8291,-2.8291,-2.8291,-2.9565,-3.0214,-3.0214,-3.148,-3.2079,-3.2067,-3.1551,-3.134,-2.9285,-2.9962,-3.0889,-3.0889,-3.0889,-3.0889,-3.0889,-3.0889,-3.0986,-3.1299,-3.1709,-3.21,-3.2412,-3.2559,-3.2637,-3.2637,-3.21,-3.1641,-3.1533,-3.125,-3.1006,-3.0898,-3.0889,-3.0889,-3.0889,-3.0889,-3.0889,-3.0889,-3.0889,-3.0889,-3.0889,-3.0889,-3.0889,-3.0889,-3.0889,-3.0889,-3.0889,-3.0889,-3.0889,-3.0889,-3.0889,-3.0889,-3.0889,-3.0889,-3.0889,-3.0889,-3.0889,-3.0889,-3.0889,-3.0889,-3.0889,-3.0889,-3.0889,-3.0889,-3.0889,-3.0889,-3.0889,-3.0889,-3.0889,-3.0889,-3.0889,-3.0889,-3.0889,-3.0889,-3.0889,-3.0889,-3.0889,-3.0889,-3.0889,-3.0889,-3.0889,-3.0889,-3.0859,-3.0742,-3.0449,-3.0049,-2.9521,-2.915,-2.8789,-2.8369,-2.8291,-2.8291,-2.8291,-2.8291,-2.8291,-2.8291,-2.8291,-2.8291,-2.8291,-2.8291,-2.8291,-2.8291,-2.8291,-2.8291,-2.8291,-2.8291,-2.8291,-2.8291,-2.8291,-2.8291,-2.8291,-2.8291,-2.8291,-2.8291,-2.8644,-2.8794,-2.8794,-2.9154,-2.9303,-2.9303,-2.9191,-2.914,-2.953,-3.0206,-3.0889,-3.0889,-3.0889,-3.0937,-3.1123,-3.1162,-3.1289,-3.1719,-3.2148,-3.2519,-3.2754,-3.2939,-3.3066,-3.3066,-3.251,-3.2012,-3.1826,-3.1435,-3.1094,-3.0918,-3.0889,-3.0889,-3.0889,-3.0889,-3.0889,-3.0889,-3.0889,-3.0889,-3.0889,-3.0889,-3.0889,-3.0889,-3.0889,-3.0889,-3.0889,-3.0889,-3.0889,-3.0889,-3.0889,-3.0889,-3.0889,-3.0889,-3.0889,-3.0889,-3.0889,-3.0889,-3.0889,-3.0889,-3.0889,-3.0889,-3.0889,-3.0889,-3.0889,-3.0889,-3.0889,-3.0889,-3.0889,-3.0889,-3.0889,-3.0889,-3.0889,-3.0889,-3.0889,-3.0889,-3.0889,-3.0889,-3.0889,-3.0889,-3.0889,-3.0889,-3.0889,-3.0889,-3.0693,-3.0381,-2.9941,-2.9512,-2.9023,-2.8418,-2.8291,-2.8291,-2.8291,-2.8291,-2.8291,-2.8291,-2.8291,-2.8291,-2.8291,-2.8291,-2.8291,-2.8291,-2.8291,-2.8291,-2.8291,-2.8291,-2.8291,-2.8291,-2.8291,-2.8291,-2.8291,-2.8291,-2.8291,-2.8291,-2.8291,-2.8291,-2.8291,-2.8291,-2.8291,-2.8291,-2.8291,-2.8291,-3.0518,-3.0889,-3.0889,-3.0889,-3.0889,-3.0996,-3.1426,-3.1514,-3.166,-3.2148,-3.2539,-3.2812,-3.2871,-3.3174,-3.3408,-3.335,-3.2988,-3.2568,-3.2139,-3.1709,-3.1299,-3.0937,-3.0889,-3.0889,-3.0889,-3.0889,-3.0889,-3.0889,-3.0889,-3.0889,-3.0889,-3.0889,-3.0889,-3.0889,-3.0889,-3.0889,-3.0889,-3.0889,-3.0889,-3.0889,-3.0889,-3.0889,-3.0889,-3.0889,-3.0889,-3.0889,-3.0889,-3.0889,-3.0889,-3.0889,-3.0889,-3.0889,-3.0889,-3.0889,-3.0889,-3.0889,-3.0889,-3.0889,-3.0889,-3.0889,-3.0889,-3.0889,-3.0889,-3.0889,-3.0889,-3.0889,-3.0889,-3.0889,-3.0889,-3.0889,-3.0889,-3.0889,-3.0889,-3.0889,-3.0889,-3.0762,-3.0293,-2.9824,-2.9268,-2.8516,-2.833,-2.8291,-2.8291,-2.8291,-2.8291,-2.8291,-2.8291,-2.8291,-2.8291,-2.8291,-2.8291,-2.8291,-2.8291,-2.8291,-2.8291,-2.8291,-2.8291,-2.8291,-2.8291,-2.8291,-2.8291,-2.8291,-2.8291,-2.8291,-2.8291,-2.8291,-2.8291,-2.8291,-2.8291,-2.8291,-2.8291,-2.8291,-3.083,-3.0889,-3.0889,-3.0889,-3.0889,-3.0996,-3.1426,-3.1514,-3.1738,-3.2519,-3.2744,-3.29,-3.3252,-3.3369,-3.331,-3.2959,-3.2549,-3.2119,-3.1689,-3.1269,-3.0976,-3.0898,-3.0889,-3.0889,-3.0889,-3.0889,-3.0889,-3.0889,-3.0889,-3.0889,-3.0889,-3.0889,-3.0889,-3.0889,-3.0889,-3.0889,-3.0889,-3.0889,-3.0889,-3.0889,-3.0889,-3.0889,-3.0889,-3.0889,-3.0889,-3.0889,-3.0889,-3.0889,-3.0889,-3.0889,-3.0889,-3.0889,-3.0889,-3.0889,-3.0889,-3.0889,-3.0889,-3.0889,-3.0889,-3.0889,-3.0889,-3.0889,-3.0889,-3.0889,-3.0889,-3.0889,-3.0889,-3.0889,-3.0889,-3.0889,-3.0889,-3.0889,-3.0889,-3.0889,-3.0889,-3.0762,-3.0293,-2.958,-2.8994,-2.8838,-2.8535,-2.8291,-2.8291,-2.8291,-2.8291,-2.8291,-2.8291,-2.8291,-2.8291,-2.8291,-2.8291,-2.8291,-2.8291,-2.8291,-2.8291,-2.8291,-2.8291,-2.8291,-2.8291,-2.8291,-2.8291,-2.8291,-2.8291,-2.8291,-2.8291,-2.8291,-2.8291,-2.8291,-2.8291,-2.8291,-2.8291,-2.8291,-3.0889,-3.0889,-3.0889,-3.0889,-3.0889,-3.1055,-3.1709,-3.1855,-3.21,-3.2949,-3.2949,-3.292,-3.334,-3.3242,-3.3027,-3.2832,-3.2441,-3.2012,-3.1582,-3.1152,-3.0889,-3.0889,-3.0889,-3.0889,-3.0889,-3.0889,-3.0889,-3.0889,-3.0889,-3.0889,-3.0889,-3.0889,-3.0889,-3.0889,-3.0889,-3.0889,-3.0889,-3.0889,-3.0889,-3.0889,-3.0889,-3.0889,-3.0889,-3.0889,-3.0889,-3.0889,-3.0889,-3.0889,-3.0889,-3.0889,-3.0889,-3.0889,-3.0889,-3.0889,-3.0889,-3.0889,-3.0889,-3.0889,-3.0889,-3.0889,-3.0889,-3.0889,-3.0889,-3.0889,-3.0889,-3.0889,-3.0889,-3.0889,-3.0889,-3.0889,-3.0889,-3.0889,-3.0889,-3.0889,-3.0889,-3.0762,-3.0293,-2.9697,-2.9189,-2.8965,-2.8584,-2.8291,-2.8291,-2.8291,-2.8291,-2.8291,-2.8291,-2.8291,-2.8291,-2.8291,-2.8291,-2.8291,-2.8291,-2.8291,-2.8291,-2.8291,-2.8291,-2.8291,-2.8291,-2.8291,-2.8291,-2.8291,-2.8291,-2.8291,-2.8291,-2.8291,-2.8291,-2.8291,-2.8291,-2.8291,-2.8291,-2.8291,-3.0889,-3.0889,-3.0889,-3.0889,-3.0889,-3.1084,-3.1855,-3.2031,-3.2246,-3.2998,-3.2891,-3.2764,-3.3086,-3.2881,-3.2627,-3.2539,-3.2246,-3.1875,-3.1445,-3.1103,-3.0889,-3.0889,-3.0889,-3.0889,-3.0889,-3.0889,-3.0889,-3.0889,-3.0889,-3.0889,-3.0889,-3.0889,-3.0889,-3.0889,-3.0889,-3.0889,-3.0889,-3.0889,-3.0889,-3.0889,-3.0889,-3.0889,-3.0889,-3.0889,-3.0889,-3.0889,-3.0889,-3.0889,-3.0889,-3.0889,-3.0889,-3.0889,-3.0889,-3.0889,-3.0889,-3.0889,-3.0889,-3.0889,-3.0889,-3.0889,-3.0889,-3.0889,-3.0889,-3.0889,-3.0889,-3.0889,-3.0889,-3.0889,-3.0889,-3.0889,-3.0889,-3.0889,-3.0889,-3.0889,-3.0889,-3.0791,-3.042,-3.001,-2.958,-2.9141,-2.8711,-2.8398,-2.831,-2.8291,-2.8291,-2.8291,-2.8291,-2.8291,-2.8291,-2.8291,-2.8291,-2.8291,-2.8291,-2.8291,-2.8291,-2.8291,-2.8291,-2.8291,-2.8291,-2.8291,-2.8291,-2.8291,-2.8291,-2.8291,-2.8291,-2.8291,-2.8291,-2.8291,-2.8291,-2.8291,-2.8291,-2.8291,-3.0889,-3.0889,-3.0889,-3.0889,-3.0889,-3.1016,-3.1475,-3.1572,-3.1709,-3.2187,-3.2256,-3.2297,-3.2275,-3.2256,-3.21,-3.1699,-3.1601,-3.1426,-3.1006,-3.0918,-3.0889,-3.0889,-3.0889,-3.0889,-3.0889,-3.0889,-3.0889,-3.0889,-3.0889,-3.0889,-3.0889,-3.0889,-3.0889,-3.0889,-3.0889,-3.0889,-3.0889,-3.0889,-3.0889,-3.0889,-3.0889,-3.0889,-3.0889,-3.0889,-3.0889,-3.0889,-3.0889,-3.0889,-3.0889,-3.0889,-3.0889,-3.0889,-3.0889,-3.0889,-3.0889,-3.0889,-3.0889,-3.0889,-3.0889,-3.0889,-3.0889,-3.0889,-3.0889,-3.0889,-3.0889,-3.0889,-3.0889,-3.0889,-3.0889,-3.0889,-3.0889,-3.0889,-3.0889,-3.0889,-3.0889,-3.0879,-3.084,-3.0459,-3.001,-2.959,-2.916,-2.874,-2.8359,-2.8291,-2.8291,-2.8291,-2.8291,-2.8291,-2.8291,-2.8291,-2.8291,-2.8291,-2.8291,-2.8291,-2.8291,-2.8291,-2.8291,-2.8291,-2.8291,-2.8291,-2.8291,-2.8291,-2.8291,-2.8291,-2.8291,-2.8291,-2.8291,-2.8291,-2.8291,-2.8291,-2.8291,-2.8291,-3.0889,-3.0889,-3.0889,-3.0889,-3.0889,-3.0996,-3.1426,-3.1514,-3.1641,-3.208,-3.1963,-3.1855,-3.2119,-3.1953,-3.1719,-3.1543,-3.1514,-3.1367,-3.0947,-3.0889,-3.0889,-3.0889,-3.0889,-3.0889,-3.0889,-3.0889,-3.0889,-3.0889,-3.0889,-3.0889,-3.0889,-3.0889,-3.0889,-3.0889,-3.0889,-3.0889,-3.0889,-3.0889,-3.0889,-3.0889,-3.0889,-3.0889,-3.0889,-3.0889,-3.0889,-3.0889,-3.0889,-3.0889,-3.0889,-3.0889,-3.0889,-3.0889,-3.0889,-3.0889,-3.0889,-3.0889,-3.0889,-3.0889,-3.0889,-3.0889,-3.0889,-3.0889,-3.0889,-3.0889,-3.0889,-3.0889,-3.0889,-3.0889,-3.0889,-3.0889,-3.0889,-3.0889,-3.0889,-3.0889,-3.0889,-3.0889,-3.0889,-3.0527,-3.0146,-2.998,-2.9394,-2.8867,-2.8701,-2.8457,-2.8291,-2.8291,-2.8291,-2.8291,-2.8291,-2.8291,-2.8291,-2.8291,-2.8291,-2.8291,-2.8291,-2.8291,-2.8291,-2.8291,-2.8291,-2.8291,-2.8291,-2.8291,-2.8291,-2.8291,-2.8291,-2.8291,-2.8291,-2.8291,-2.8291,-2.8291,-2.8291,-2.8291,-3.0889,-3.0889,-3.0889,-3.0889,-3.0889,-3.0967,-3.1269,-3.1328,-3.1416,-3.1728,-3.1543,-3.1426,-3.1728,-3.1543,-3.1328,-3.1328,-3.1328,-3.123,-3.0928,-3.0889,-3.0889,-3.0889,-3.0889,-3.0889,-3.0889,-3.0889,-3.0889,-3.0889,-3.0889,-3.0704,-3.0206,-3.0645,-3.0889,-3.0889,-3.0889,-3.0889,-3.0889,-3.0889,-3.0889,-3.0889,-3.0889,-3.0889,-3.0889,-3.0889,-3.0889,-3.0889,-3.0889,-3.0889,-3.0889,-3.0889,-3.0889,-3.0889,-3.0889,-3.0889,-3.0889,-3.0889,-3.0889,-3.0889,-3.0889,-3.0889,-3.0889,-3.0889,-3.0889,-3.0889,-3.0889,-3.0889,-3.0889,-3.0889,-3.0889,-3.0889,-3.0889,-3.0889,-3.0889,-3.0889,-3.0889,-3.0889,-3.0889,-3.0635,-3.0361,-3.0225,-2.9707,-2.9258,-2.9131,-2.876,-2.8476,-2.8476,-2.8369,-2.8291,-2.8291,-2.8291,-2.8291,-2.8291,-2.8291,-2.8291,-2.8291,-2.8291,-2.8291,-2.8291,-2.8291,-2.8291,-2.8291,-2.8291,-2.8291,-2.8291,-2.8291,-2.8291,-2.8291,-2.8291,-2.8291,-2.8291,-2.8291,-2.8291,-3.0889,-3.0889,-3.0889,-3.0889,-3.0889,-3.0889,-3.0898,-3.0898,-3.0898,-3.0898,-3.0898,-3.0898,-3.0898,-3.0898,-3.0898,-3.0898,-3.0898,-3.0898,-3.0889,-3.0889,-3.0889,-3.0889,-3.0889,-3.0889,-3.0889,-3.0889,-3.0889,-3.0889,-3.0889,-3.0206,-2.8477,-3.002,-3.0889,-3.0889,-3.0889,-3.0889,-3.0889,-3.0889,-3.0889,-3.0889,-3.0889,-3.0889,-3.0889,-3.0889,-3.0889,-3.0889,-3.0889,-3.0889,-3.0889,-3.0889,-3.0889,-3.0889,-3.0889,-3.0889,-3.0889,-3.0889,-3.0889,-3.0889,-3.0889,-3.0889,-3.0889,-3.0889,-3.0889,-3.0889,-3.0889,-3.0889,-3.0889,-3.0889,-3.0889,-3.0889,-3.0889,-3.0889,-3.0889,-3.0889,-3.0889,-3.0889,-3.0889,-3.0889,-3.0752,-3.0283,-3.0185,-3.0049,-2.9629,-2.9199,-2.8916,-2.8916,-2.8555,-2.8291,-2.8291,-2.8291,-2.8291,-2.8291,-2.8291,-2.8291,-2.8291,-2.8291,-2.8291,-2.8291,-2.8291,-2.8291,-2.8291,-2.8291,-2.8291,-2.8291,-2.8291,-2.8291,-2.8291,-2.8291,-2.8291,-2.8291,-2.8291,-2.8291,-3.0889,-3.0889,-3.0889,-3.0889,-3.0889,-3.0889,-3.0889,-3.0889,-3.0889,-3.0889,-3.0889,-3.0889,-3.0889,-3.0889,-3.0889,-3.0889,-3.0889,-3.0889,-3.0889,-3.0889,-3.0889,-3.0889,-3.0889,-3.0889,-3.0889,-3.0889,-3.0889,-3.0889,-3.0889,-3.0147,-2.8477,-2.8911,-2.9216,-2.9216,-3.0333,-3.0889,-3.0889,-3.0889,-3.0889,-3.0889,-3.0889,-3.0889,-3.083,-2.9717,-2.9835,-3.083,-2.9707,-2.9844,-3.0889,-3.0889,-3.0889,-3.0889,-3.0889,-3.0889,-3.0889,-3.0889,-3.0889,-3.0889,-3.0889,-3.0889,-3.0889,-3.0889,-3.0889,-3.0889,-3.0889,-3.0889,-3.0889,-3.0889,-3.0889,-3.0889,-3.0889,-3.0889,-3.0889,-3.0889,-3.0889,-3.0889,-3.0889,-3.0889,-3.085,-3.0703,-3.042,-3.0156,-3.0019,-2.9648,-2.9258,-2.8965,-2.8809,-2.8613,-2.833,-2.8291,-2.8291,-2.8291,-2.8291,-2.8291,-2.8291,-2.8291,-2.8291,-2.8291,-2.8291,-2.8291,-2.8291,-2.8291,-2.8291,-2.8291,-2.8291,-2.8291,-2.8291,-2.8291,-2.8291,-2.8291,-2.8291,-2.8291,-3.0889,-3.0889,-3.0889,-3.0889,-3.0889,-3.0889,-3.0889,-3.0889,-3.0889,-3.0889,-3.0889,-3.0889,-3.0889,-3.0889,-3.0889,-3.0889,-3.0889,-3.0889,-3.0889,-3.0889,-3.0889,-3.0889,-3.0889,-3.0889,-3.0889,-3.0889,-3.0889,-3.0889,-3.0889,-3.0147,-2.8477,-2.8417,-2.811,-2.7503,-2.9098,-2.9962,-2.9962,-3.0577,-3.0889,-3.0889,-3.0889,-3.0889,-3.083,-2.9157,-2.897,-2.9903,-2.8852,-2.897,0.0,-3.0645,-3.0889,-3.083,-3.0206,-2.9962,-2.9962,-2.9962,-2.9962,-3.003,-3.0704,-3.0889,-3.0889,-3.0889,-3.0889,-3.0889,-3.0889,-3.0889,-3.0889,-3.0889,-3.0889,-3.0889,-3.0889,-3.0889,-3.0889,-3.0889,-3.0889,-3.0889,-3.0889,-3.0889,-3.0889,-3.0889,-3.0654,-3.0459,-3.0459,-3.0098,-2.9717,-2.9443,-2.9268,-2.9014,-2.8584,-2.8535,-2.8467,-2.831,-2.8291,-2.8291,-2.8291,-2.8291,-2.8291,-2.8291,-2.8291,-2.8291,-2.8291,-2.8291,-2.8291,-2.8291,-2.8291,-2.8291,-2.8291,-2.8291,-2.8291,-2.8291,-2.8291,-2.8291,0.0,-3.0889,-3.0889,-3.0889,-3.0889,-3.0889,-3.0889,-3.0889,0.0,-3.0889,-3.0889,-3.0889,-3.0889,-3.0889,-3.0889,-3.0889,-3.0889,-3.0889,-3.0889,-3.0889,-3.0889,-3.0889,-3.0889,-3.0889,-3.0889,-3.0889,-3.0889,-3.0889,-3.0889,-3.0147,-2.8298,-2.8239,-2.7443,-2.5733,-2.7202,-2.8179,-2.8417,-3.0079,-3.0889,-3.0889,-3.0889,-3.083,-3.0645,-2.897,-2.8239,-2.8239,-2.8239,-2.8298,-2.8536,-3.0206,-3.0889,-3.0704,-2.903,-2.8417,-2.8417,-2.8417,-2.8417,-2.8664,-3.0333,-3.0889,-3.0889,-3.0762,-3.082,-3.0889,-3.0762,-3.083,-3.0889,-3.0889,-3.0889,-3.0889,-3.0889,-3.0889,-3.0889,-3.0889,-3.0889,-3.0889,-3.0889,-3.0889,-3.0889,-3.0889,-3.0889,-3.0889,-3.0889,-3.0537,-3.0234,-3.0205,-2.9863,-2.9453,-2.9023,-2.8935,-2.8769,-2.8379,-2.831,-2.8291,-2.8291,-2.8291,-2.8291,-2.8291,-2.8291,-2.8291,-2.8291,-2.8291,-2.8291,-2.8291,-2.8291,-2.8291,-2.8291,-2.8291,-2.8291,-2.8291,-2.8291,-2.8291,-3.0889,0.0,-3.0889,-3.0889,-3.0889,-3.0889,0.0,-3.0889,-3.0889,-3.0889,-3.0889,-3.0889,-3.0889,-3.0889,-3.0889,-3.0889,-3.0889,-3.0889,-3.0889,-3.0889,-3.0889,-3.0889,-3.0889,-3.0889,-3.0889,-3.0889,-3.0889,-3.0889,-3.0889,-2.9658,-2.6712,-2.6582,-2.5253,-2.2334,-2.3861,-2.5932,-2.8358,-3.0079,-3.0889,-3.0889,-3.0889,-3.0216,-2.8911,-2.7323,-2.6582,-2.6582,-2.6582,-2.7254,-2.8536,-3.0206,-3.0889,-3.0704,-2.903,-2.8417,-2.8417,-2.8417,-2.8417,-2.8664,-3.0333,-3.0889,-3.0704,-2.9403,-2.9835,-3.0645,-2.9403,-2.9903,-3.0889,-3.0889,-3.0889,-3.0889,-3.0889,-3.0889,-3.0889,-3.0889,-3.0889,-3.0889,-3.0889,-3.0889,-3.0889,-3.0889,-3.0889,-3.0889,-3.0889,-3.0801,-3.0605,-3.0244,-3.0107,-2.9902,-2.9473,-2.9121,-2.8877,-2.8779,-2.8486,-2.8291,-2.8291,-2.8291,-2.8291,-2.8291,-2.8291,-2.8291,-2.8291,-2.8291,-2.8291,-2.8291,-2.8291,-2.8291,-2.8291,-2.8291,-2.8291,-2.8291,-2.8291,-2.8291,-3.0889,-3.0889,-3.0889,-3.0889,-3.0889,-3.0889,-3.0889,-3.0889,-3.0889,-3.0889,-3.0889,-3.0645,-2.9893,-3.0392,-3.0401,-2.892,-2.9903,-3.0889,-3.0889,-3.0889,-3.0889,-3.0889,-3.0889,-3.0889,-3.0889,-3.0889,-3.0889,-3.0889,-3.0206,-2.8979,-2.7194,-2.5688,-2.4108,-2.2278,-2.3146,-2.4786,-2.7263,-2.8911,-3.0147,-3.0889,-3.0147,-2.9285,-2.8298,-2.5993,-2.4901,-2.4901,-2.4901,-2.5802,-2.7383,-2.8298,-2.9098,-2.953,-2.7151,-2.6183,-2.6183,-2.6183,-2.666,-2.7503,-2.9157,-3.0265,-3.0772,-2.9844,-2.9648,-2.9589,-2.8664,-2.903,-2.9893,-3.0704,-3.0889,-3.0889,-3.0889,-3.0889,-3.0889,-3.0889,-3.0889,-3.0889,-3.0889,-3.0889,-3.0889,-3.0889,-3.0889,-3.0889,-3.0889,-3.0889,-3.0801,-3.0557,-3.0518,-3.0351,-2.9912,-2.9648,-2.9434,-2.9238,-2.8828,-2.8584,-2.8584,-2.8398,-2.8291,-2.8291,-2.8291,-2.8291,-2.8291,-2.8291,-2.8291,-2.8291,-2.8291,-2.8291,-2.8291,-2.8291,-2.8291,-2.8291,-2.8291,-2.8291,-3.0889,-3.0889,-3.0889,-3.0889,-3.0889,-3.0889,-3.0889,-3.0889,-3.0889,-3.0889,-3.0704,-3.0147,-2.8979,-2.953,-2.9353,-2.6772,-2.8673,-3.0587,-3.083,-3.0889,-3.0889,-3.0889,-3.0889,-3.0889,-3.0889,-3.0889,-3.0889,-3.0889,-2.9344,-2.8298,-2.8051,-2.5208,-2.345,-2.3201,-2.3208,-2.3993,-2.5619,-2.7443,-2.9098,-3.0518,-2.9098,-2.8298,-2.7931,-2.497,-2.345,-2.3201,-2.3512,-2.4532,-2.5976,-2.5976,-2.6953,-2.8051,-2.4848,-2.3574,-2.3574,-2.3574,-2.4479,-2.5924,-2.7751,-2.9344,-3.0518,-3.0518,-2.9589,-2.8358,-2.811,-2.8051,-2.8298,-2.9776,-3.0518,-3.083,-3.0577,-3.0704,-3.0772,-3.0274,-3.0333,-3.0518,-3.0518,-3.0518,-3.0577,-3.083,-3.0889,-3.0889,-3.0889,-3.0889,-3.0889,-3.0889,-3.0889,-3.0752,-3.0351,-3.0244,-3.0059,-2.9707,-2.9277,-2.9023,-2.9023,-2.8633,-2.8389,-2.8389,-2.833,-2.8291,-2.8291,-2.8291,-2.8291,-2.8291,-2.8291,-2.8291,-2.8291,-2.8291,-2.8291,-2.8291,-2.8291,-2.8291,-3.0889,-3.0889,-3.0889,-3.0889,-3.0889,-3.0889,-3.0889,-3.0889,-3.0889,-3.0889,-2.9776,-2.9157,-3.0333,-2.8426,-2.7013,-2.7871,-2.8417,-2.9285,-3.0704,-3.0889,-3.0889,-3.0889,-3.0889,-3.0889,-3.0889,-3.0889,-3.0889,-3.0889,-2.9344,-2.7811,-2.647,-2.4602,-2.2959,-2.1538,-2.1481,-2.2278,-2.3931,-2.6901,-2.8536,-2.8783,-2.8545,-2.7692,-2.6288,-2.4479,-2.2834,-2.1544,-2.2959,-2.4532,-2.5976,-2.5976,-2.6953,-2.8051,-2.4848,-2.3574,-2.3574,-2.3574,-2.3752,-2.4417,-2.7391,-2.8545,-2.8783,-2.8783,-2.8605,-2.8179,-2.6772,-2.634,-2.6409,-2.6712,-2.8733,-3.0577,-2.9157,-2.9844,-3.0206,-2.7391,-2.7811,-2.8783,-2.8783,-2.8783,-2.9216,-3.0635,-3.0889,-3.0889,-3.0889,-3.0889,-3.0889,-3.0889,-3.0889,-3.0869,-3.0791,-3.0439,-3.0176,-3.0107,-2.9726,-2.9473,-2.9473,-2.9072,-2.8818,-2.8818,-2.8496,-2.8291,-2.8291,-2.8291,-2.8291,-2.8291,-2.8291,-2.8291,-2.8291,-2.8291,-2.8291,-2.8291,-2.8291,-2.8291,-3.0889,-3.0889,-3.0889,-3.0889,-3.0889,-3.0889,-3.0889,-3.0889,-3.0645,-2.9717,-2.8911,-2.8119,-2.7099,-2.6417,-2.6219,-2.6953,-2.6357,-2.6357,-2.8,-2.8979,-2.953,-2.953,-3.0333,-3.0518,-2.9658,-3.0392,-3.0147,-2.8367,-2.7563,-2.6409,-2.4778,-2.3139,-2.1908,-2.1109,-2.1109,-2.1481,-2.2223,-2.4602,-2.666,-2.8358,-2.666,-2.5871,-2.5915,-2.3373,-2.1853,-2.1172,-2.1908,-2.3675,-2.5915,-2.5077,-2.5627,-2.6893,-2.454,-2.3084,-2.2341,-2.327,-2.3574,-2.3938,-2.6288,-2.7073,-2.7073,-2.7073,-2.6539,-2.5696,-2.4901,-2.4717,-2.4717,-2.4717,-2.6417,-2.8059,-2.7323,-2.7692,-2.788,-2.6349,-2.6582,-2.7073,-2.7073,-2.7811,-2.8605,-2.9403,-3.0274,-3.0889,-3.0889,-3.0889,-3.0889,-3.0889,-3.0889,-3.0889,-3.0889,-3.0703,-3.0576,-3.0576,-3.0176,-2.9902,-2.9902,-2.9521,-2.9072,-2.8613,-2.8398,-2.8291,-2.8291,-2.8291,-2.8291,-2.8291,-2.8291,-2.8291,-2.8291,-2.8291,-2.8291,-2.8291,-2.8291,-2.8291,-3.0889,-3.0889,-3.0889,-3.0889,-3.0889,-3.0889,-3.0889,-3.0889,-3.0518,-2.9226,-2.8358,-2.7202,-2.5093,-2.5138,-2.5436,-2.5436,-2.4417,-2.4178,-2.5794,-2.7073,-2.7871,-2.7871,-2.9285,-2.9658,-2.7991,-2.9344,-2.9098,-2.6219,-2.568,-2.4901,-2.3698,-2.2034,-2.1109,-2.1109,-2.1109,-2.1109,-2.1109,-2.2341,-2.4655,-2.7803,-2.497,-2.4417,-2.5915,-2.2577,-2.1109,-2.1109,-2.1109,-2.2937,-2.5855,-2.3869,-2.417,-2.5802,-2.3807,-2.2215,-2.1229,-2.2529,-2.3021,-2.3263,-2.4893,-2.5436,-2.5497,-2.5855,-2.4893,-2.3574,-2.3574,-2.3325,-2.3021,-2.3021,-2.3923,-2.4947,-2.5314,-2.5741,-2.5794,-2.5069,-2.513,-2.5436,-2.5436,-2.6417,-2.7391,-2.7743,-2.9157,-3.0333,-3.0333,-3.0645,-3.0889,-3.0889,-3.0889,-3.0889,-3.0889,-3.0889,-3.0889,-3.0889,-3.0576,-3.0312,-3.0205,-2.9902,-2.9394,-2.8643,-2.8496,-2.8398,-2.8301,-2.8291,-2.8291,-2.8291,-2.8291,-2.8291,-2.8291,-2.8291,-2.8291,-2.8291,-2.8291,-2.8291,-3.0889,-3.0889,-3.0889,-3.0889,-3.0889,-3.0889,-3.0889,-3.0889,-3.0889,-3.0762,-2.8307,-2.6591,-2.7811,-2.5696,-2.3752,-2.3752,-2.3698,-2.4178,-2.5794,-2.6098,-2.6158,-2.6158,-2.7623,-2.7931,-2.634,-2.7623,-2.7871,-2.6098,-2.4594,-2.369,-2.3636,-2.2034,-2.1109,-2.1109,-2.1109,-2.1109,-2.1109,-2.1235,-2.2944,-2.6158,-2.4417,-2.4417,-2.5915,-2.2577,-2.1109,-2.1109,-2.1109,-2.2937,-2.5733,-2.2577,-2.3124,-2.568,-2.2514,-2.1235,-2.1109,-2.1235,-2.1292,-2.1538,-2.3201,-2.3752,-2.3993,-2.5497,-2.4893,-2.3574,-2.3574,-2.2529,-2.1292,-2.1292,-2.1355,-2.1783,-2.3387,-2.4901,-2.5253,-2.2208,-2.2647,-2.3752,-2.3752,-2.3876,-2.4417,-2.5863,-2.7503,-2.8605,-2.8605,-2.9893,-3.0889,-3.0889,-3.0889,-3.0889,-3.0889,-3.0889,-3.0889,-3.0889,-3.0859,-3.0664,-3.0234,-3.0166,-2.9961,-2.9502,-2.9101,-2.8701,-2.831,-2.8291,-2.8291,-2.8291,-2.8291,-2.8291,-2.8291,-2.8291,-2.8291,-2.8291,-2.8291,-2.8291,-3.0889,-3.0889,-3.0889,-3.0889,-3.0889,-3.0889,-3.0889,-3.0889,-3.0333,-2.8247,-2.6832,-2.5558,-2.4101,-2.2889,-2.2034,-2.2034,-2.2034,-2.2278,-2.2882,-2.3861,-2.454,-2.454,-2.5932,-2.6288,-2.4655,-2.5984,-2.5802,-2.3124,-2.3318,-2.3146,-2.2097,-2.1418,-2.1109,-2.1109,-2.1109,-2.1109,-2.1109,-2.1109,-2.2757,-2.5984,-2.3311,-2.3435,-2.5915,-2.2577,-2.1109,-2.1109,-2.1109,-2.2937,-2.5855,-2.3559,-2.3985,-2.5672,-2.2389,-2.1109,-2.1109,-2.1109,-2.1109,-2.1172,-2.1853,-2.2034,-2.2153,-2.2757,-2.2514,-2.2034,-2.2034,-2.1601,-2.1109,-2.1109,-2.1109,-2.1235,-2.1853,-2.2522,-2.264,-2.1418,-2.1601,-2.2034,-2.2034,-2.2834,-2.3752,-2.4417,-2.581,-2.6893,-2.6893,-2.7443,-2.8179,-2.9216,-2.9344,-2.9717,-3.0772,-3.0889,-3.0889,-3.0889,-3.0889,-3.082,-3.0644,-3.0635,-3.0439,-2.999,-2.956,-2.9131,-2.8701,-2.8682,-2.8564,-2.8301,-2.8291,-2.8291,-2.8291,-2.8291,-2.8291,-2.8291,-2.8291,-2.8291,-3.0889,-3.0889,-3.0889,-3.0889,-3.0518,-3.0089,-3.0089,-3.0089,-2.9471,-2.7194,-2.5924,-2.4401,-2.1601,-2.1109,-2.1109,-2.1109,-2.1109,-2.1109,-2.1109,-2.2097,-2.2834,-2.2834,-2.4232,-2.4594,-2.2959,-2.4294,-2.4101,-2.1292,-2.2153,-2.2278,-2.1172,-2.1109,-2.1109,-2.1109,-2.1109,-2.1109,-2.1109,-2.1109,-2.2514,-2.52,-2.2452,-2.282,-2.5915,-2.2577,-2.1109,-2.1109,-2.1109,-2.2702,-2.5138,-2.3504,-2.3435,-2.4217,-2.1964,-2.1109,-2.1109,-2.1109,-2.1109,-2.1109,-2.1109,-2.1109,-2.1109,-2.1109,-2.1109,-2.1109,-2.1109,-2.1109,-2.1109,-2.1109,-2.1109,-2.1109,-2.1109,-2.1109,-2.1109,-2.1109,-2.1109,-2.1109,-2.1109,-2.1971,-2.2834,-2.2834,-2.4108,-2.5261,-2.5261,-2.568,-2.634,-2.7503,-2.8051,-2.8792,-2.9962,-3.0577,-3.0889,-3.0889,-3.0889,-3.0889,-3.0889,-3.0889,-3.0752,-3.043,-3.0146,-2.9726,-2.915,-2.9121,-2.8926,-2.8496,-2.8496,-2.8428,-2.8291,-2.8291,-2.8291,-2.8291,-2.8291,-2.8291,-3.0889,-3.0889,-3.0889,-3.0889,-2.9648,-2.8417,-2.8358,-2.8358,-2.8358,-2.8358,-2.5818,-2.3084,-2.1418,-2.1109,-2.1109,-2.1109,-2.1109,-2.1109,-2.1109,-2.1109,-2.1109,-2.1109,-2.2591,-2.2897,-2.1229,-2.2591,-2.2897,-2.1235,-2.1109,-2.1109,-2.1109,-2.1109,-2.1109,-2.1109,-2.1109,-2.1109,-2.1109,-2.1109,-2.1908,-2.3574,-2.1908,-2.282,-2.5855,-2.2577,-2.1109,-2.1109,-2.1109,-2.2034,-2.345,-2.179,-2.1109,-2.1109,-2.1109,-2.1109,-2.1109,-2.1109,-2.1109,-2.1109,-2.1109,-2.1109,-2.1109,-2.1109,-2.1109,-2.1109,-2.1109,-2.1109,-2.1109,-2.1109,-2.1109,-2.1109,-2.1109,-2.1109,-2.1109,-2.1109,-2.1109,-2.1109,-2.1109,-2.1109,-2.1109,-2.1109,-2.2466,-2.3574,-2.3574,-2.4901,-2.5976,-2.5976,-2.7323,-2.8358,-2.8417,-2.9844,-3.0889,-3.0889,-3.0889,-3.0889,-3.0889,-3.0889,-3.0889,-3.0889,-3.0889,-3.0498,-2.9665,-2.9636,-2.9375,-2.8935,-2.8926,-2.8721,-2.8301,-2.8301,-2.8301,-2.8291,-2.8291,-2.8291,-3.0889,-3.0889,-3.0635,-2.9462,-2.8792,-2.811,-2.6953,-2.6712,-2.6409,-2.5269,-2.3318,-2.1664,-2.1172,-2.1109,-2.1109,-2.1109,-2.1109,-2.1109,-2.1109,-2.1109,-2.1109,-2.1109,-2.1544,-2.1664,-2.1172,-2.1538,-2.1664,-2.1172,-2.1109,-2.1109,-2.1109,-2.1109,-2.1109,-2.1109,-2.1109,-2.1109,-2.1109,-2.1109,-2.1908,-2.3574,-2.1908,-2.2215,-2.424,-2.209,-2.1109,-2.1109,-2.1109,-2.2034,-2.3574,-2.3084,-2.2153,-2.1109,-2.1109,-2.1109,-2.1109,-2.1109,-2.1109,-2.1109,-2.1109,-2.1109,-2.1109,-2.1109,-2.1109,-2.1109,-2.1109,-2.1109,-2.1109,-2.1109,-2.1109,-2.1109,-2.1109,-2.1109,-2.1109,-2.1109,-2.1109,-2.1109,-2.1109,-2.1109,-2.1109,-2.1109,-2.1475,-2.1846,-2.1846,-2.2215,-2.2944,-2.4108,-2.4725,-2.5818,-2.8119,-2.9844,-3.0889,-3.0889,-2.9835,-2.9648,-3.082,-2.9835,-2.9157,-2.9157,-2.9157,-2.9395,-2.9972,-3.001,-2.9814,-2.9385,-2.9375,-2.916,-2.873,-2.873,-2.8584,-2.8291,-2.8291,-2.8291,-3.0889,-3.0392,-2.9648,-2.8664,-2.7452,-2.6053,-2.4401,-2.4586,-2.4594,-2.2952,-2.179,-2.1109,-2.1109,-2.1109,-2.1109,-2.1109,-2.1109,-2.1109,-2.1109,-2.1109,-2.1109,-2.1109,-2.1109,-2.1109,-2.1109,-2.1109,-2.1109,-2.1109,-2.1109,-2.1109,-2.1109,-2.1109,-2.1109,-2.1109,-2.1109,-2.1109,-2.1109,-2.1109,-2.1601,-2.2584,-2.1601,-2.1601,-2.2591,-2.1544,-2.1109,-2.1109,-2.1109,-2.1664,-2.2591,-2.2591,-2.2034,-2.1109,-2.1109,-2.1109,-2.1109,-2.1109,-2.1109,-2.1109,-2.1109,-2.1109,-2.1109,-2.1109,-2.1109,-2.1109,-2.1109,-2.1109,-2.1109,-2.1109,-2.1109,-2.1109,-2.1109,-2.1109,-2.1109,-2.1109,-2.1109,-2.1109,-2.1109,-2.1109,-2.1109,-2.1109,-2.1109,-2.1109,-2.1109,-2.1109,-2.1418,-2.2466,-2.3146,-2.454,-2.7142,-2.8307,-2.8979,-2.8979,-2.8059,-2.7871,-2.8861,-2.8059,-2.7443,-2.7443,-2.7443,-2.7756,-2.8476,-2.8526,-2.8333,-2.7882,-2.7873,-2.7671,-2.7212,-2.7212,-2.7354,-2.7595,-2.7595,-2.7844,-3.0704,-2.9589,-2.8358,-2.8051,-2.5627,-2.2959,-2.1481,-2.2278,-2.2959,-2.1418,-2.1109,-2.1109,-2.1109,-2.1109,-2.1109,-2.1109,-2.1109,-2.1109,-2.1109,-2.1109,-2.1109,-2.1109,-2.1109,-2.1109,-2.1109,-2.1109,-2.1109,-2.1109,-2.1109,-2.1109,-2.1109,-2.1109,-2.1109,-2.1109,-2.1109,-2.1109,-2.1109,-2.1109,-2.1109,-2.1109,-2.1109,-2.1109,-2.1109,-2.1109,-2.1109,-2.1109,-2.1109,-2.1109,-2.1109,-2.1109,-2.1109,-2.1109,-2.1109,-2.1109,-2.1109,-2.1109,-2.1109,-2.1109,-2.1109,-2.1109,-2.1109,-2.1109,-2.1109,-2.1109,-2.1109,-2.1109,-2.1109,-2.1109,-2.1109,-2.1109,-2.1109,-2.1109,-2.1109,-2.1109,-2.1109,-2.1109,-2.1109,-2.1109,-2.1109,-2.1109,-2.1109,-2.1109,-2.1109,-2.1109,-2.1109,-2.1109,-2.2529,-2.4116,-2.5619,-2.5924,-2.5976,-2.5976,-2.5863,-2.5855,-2.5976,-2.5863,-2.5802,-2.5802,-2.5802,-2.5733,-2.5558,-2.5855,-2.5819,-2.537,-2.5362,-2.5189,-2.4777,-2.4777,-2.5291,-2.632,-2.6489,-2.7142,-2.9285,-2.8664,-2.7811,-2.5269,-2.3139,-2.1538,-2.1166,-2.1355,-2.1544,-2.1172,-2.1109,-2.1109,-2.1109,-2.1109,-2.1109,-2.1109,-2.1109,-2.1109,-2.1109,-2.1109,-2.1109,-2.1109,-2.1109,-2.1109,-2.1109,-2.1109,-2.1109,-2.1109,-2.1109,-2.1109,-2.1109,-2.1109,-2.1109,-2.1109,-2.1109,-2.1109,-2.1109,-2.1109,-2.1109,-2.1109,-2.1109,-2.1109,-2.1109,-2.1109,-2.1109,-2.1109,-2.1109,-2.1109,-2.1109,-2.1109,-2.1109,-2.1109,-2.1109,-2.1109,-2.1109,-2.1109,-2.1109,-2.1109,-2.1109,-2.1109,-2.1109,-2.1109,-2.1109,-2.1109,-2.1109,-2.1109,-2.1109,-2.1109,-2.1109,-2.1109,-2.1109,-2.1109,-2.1109,-2.1109,-2.1109,-2.1109,-2.1109,-2.1109,-2.1109,-2.1109,-2.1109,-2.1109,-2.1109,-2.1109,-2.1109,-2.1109,-2.2529,-2.376,-2.4054,-2.52,-2.5976,-2.5976,-2.4901,-2.4663,-2.5915,-2.484,-2.4116,-2.4116,-2.4116,-2.3504,-2.2208,-2.464,-2.5943,-2.5861,-2.5861,-2.5619,-2.5197,-2.5197,-2.5134,-2.5135,-2.636,-2.713,-2.9835,-2.8426,-2.647,-2.3193,-2.1727,-2.1109,-2.1109,-2.1109,-2.1109,-2.1109,-2.1109,-2.1109,-2.1109,-2.1109,-2.1109,-2.1109,-2.1109,-2.1109,-2.1109,-2.1109,-2.1109,-2.1109,-2.1109,-2.1109,-2.1109,-2.1109,-2.1109,-2.1109,-2.1109,-2.1109,-2.1109,-2.1109,-2.1109,-2.1109,-2.1109,-2.1109,-2.1109,-2.1109,-2.1109,-2.1109,-2.1109,-2.1109,-2.1109,-2.1109,-2.1109,-2.1109,-2.1109,-2.1109,-2.1109,-2.1109,-2.1109,-2.1109,-2.1109,-2.1109,-2.1109,-2.1109,-2.1109,-2.1109,-2.1109,-2.1109,-2.1109,-2.1109,-2.1109,-2.1109,-2.1109,-2.1109,-2.1109,-2.1109,-2.1109,-2.1109,-2.1109,-2.1109,-2.1109,-2.1109,-2.1109,-2.1109,-2.1109,-2.1109,-2.1109,-2.1109,-2.1109,-2.1109,-2.1109,-2.1109,-2.1109,-2.1109,-2.1846,-2.2404,-2.2404,-2.3131,-2.3668,-2.3668,-2.2889,-2.2764,-2.3551,-2.2889,-2.2404,-2.2404,-2.2404,-2.2034,-2.1172,-2.2757,-2.3668,-2.3668,-2.3668,-2.3524,-2.329,-2.329,-2.3483,-2.3873,-2.4703,-2.5369,-3.0518,-2.8068,-2.4885,-2.1846,-2.1109,-2.1109,-2.1109,-2.1109,-2.1109,-2.1109,-2.1109,-2.1109,-2.1109,-2.1109,-2.1109,-2.1109,-2.1109,-2.1109,-2.1109,-2.1109,-2.1109,-2.1109,-2.1109,-2.1109,-2.1109,-2.1109,-2.1109,-2.1109,-2.1109,-2.1109,-2.1109,-2.1109,-2.1109,-2.1109,-2.1109,-2.1109,-2.1109,-2.1109,-2.1109,-2.1109,-2.1109,-2.1109,-2.1109,-2.1109,-2.1109,-2.1109,-2.1109,-2.1109,-2.1109,-2.1109,-2.1109,-2.1109,-2.1109,-2.1109,-2.1109,-2.1109,-2.1109,-2.1109,-2.1109,-2.1109,-2.1109,-2.1109,-2.1109,-2.1109,-2.1109,-2.1109,-2.1109,-2.1109,-2.1109,-2.1109,-2.1109,-2.1109,-2.1109,-2.1109,-2.1109,-2.1109,-2.1109,-2.1109,-2.1109,-2.1109,-2.1109,-2.1109,-2.1109,-2.1109,-2.1109,-2.1109,-2.1109,-2.1109,-2.1109,-2.1109,-2.1109,-2.1109,-2.1109,-2.1109,-2.1109,-2.1109,-2.1109,-2.1109,-2.1109,-2.1109,-2.1109,-2.1109,-2.1109,-2.1109,-2.1109,-2.1109,-2.1109,-2.1109,-2.1596,-2.262,-2.2865,-2.355,-2.9157,-2.6357,-2.3442,-2.1538,-2.1109,-2.1109,-2.1109,-2.1109,-2.1109,-2.1109,-2.1109,-2.1109,-2.1109,-2.1109,-2.1109,-2.1109,-2.1109,-2.1109,-2.1109,-2.1109,-2.1109,-2.1109,-2.1109,-2.1109,-2.1109,-2.1109,-2.1109,-2.1109,-2.1109,-2.1109,-2.1109,-2.1109,-2.1109,-2.1109,-2.1109,-2.1109,-2.1109,-2.1109,-2.1109,-2.1109,-2.1109,-2.1109,-2.1109,-2.1109,-2.1109,-2.1109,-2.1109,-2.1109,-2.1109,-2.1109,-2.1109,-2.1109,-2.1109,-2.1109,-2.1109,-2.1109,-2.1109,-2.1109,-2.1109,-2.1109,-2.1109,-2.1109,-2.1109,-2.1109,-2.1109,-2.1109,-2.1109,-2.1109,-2.1109,-2.1109,-2.1109,-2.1109,-2.1109,-2.1109,-2.1109,-2.1109,-2.1109,-2.1109,-2.1109,-2.1109,-2.1109,-2.1109,-2.1109,-2.1109,-2.1109,-2.1109,-2.1109,-2.1109,-2.1109,-2.1109,-2.1109,-2.1109,-2.1109,-2.1109,-2.1109,-2.1109,-2.1109,-2.1109,-2.1109,-2.1109,-2.1109,-2.1109,-2.1109,-2.1109,-2.1109,-2.1109,-2.1109,-2.1109,-2.1152,-2.1357,-2.2831,-2.36,-2.7751,-2.6045,-2.4348,-2.172,-2.1109,-2.1109,-2.1109,-2.1109,-2.1109,-2.1109,-2.1109,-2.1109,-2.1109,-2.1109,-2.1109,-2.1109,-2.1109,-2.1109,-2.1109,-2.1109,-2.1109,-2.1109,-2.1109,-2.1109,-2.1109,-2.1109,-2.1109,-2.1109,-2.1109,-2.1109,-2.1109,-2.1109,-2.1109,-2.1109,-2.1109,-2.1109,-2.1109,-2.1109,-2.1109,-2.1109,-2.1109,-2.1109,-2.1109,-2.1109,-2.1109,-2.1109,-2.1109,-2.1109,-2.1109,-2.1109,-2.1109,-2.1109,-2.1109,-2.1109,-2.1109,-2.1109,-2.1109,-2.1109,-2.1109,-2.1109,-2.1109,-2.1109,-2.1109,-2.1109,-2.1109,-2.1109,-2.1109,-2.1109,-2.1109,-2.1109,-2.1109,-2.1109,-2.1109,-2.1109,-2.1109,-2.1109,-2.1109,-2.1109,-2.1109,-2.1109,-2.1109,-2.1109,-2.1109,-2.1109,-2.1109,-2.1109,-2.1109,-2.1109,-2.1109,-2.1109,-2.1109,-2.1109,-2.1109,-2.1109,-2.1109,-2.1109,-2.1109,-2.1109,-2.1109,-2.1109,-2.1109,-2.1109,-2.1109,-2.1109,-2.1109,-2.1109,-2.1109,-2.1109,-2.1109,-2.1109,-2.1853,-2.2223,-2.7383,-2.6288,-2.5314,-2.2459,-2.1418,-2.1109,-2.1109,-2.1109,-2.1109,-2.1109,-2.1109,-2.1109,-2.1109,-2.1109,-2.1109,-2.1109,-2.1109,-2.1109,-2.1109,-2.1109,-2.1109,-2.1109,-2.1109,-2.1109,-2.1109,-2.1109,-2.1109,-2.1109,-2.1109,-2.1109,-2.1109,-2.1109,-2.1109,-2.1109,-2.1109,-2.1109,-2.1109,-2.1109,-2.1109,-2.1109,-2.1109,-2.1109,-2.1109,-2.1109,-2.1109,-2.1109,-2.1109,-2.1109,-2.1109,-2.1109,-2.1109,-2.1109,-2.1109,-2.1109,-2.1109,-2.1109,-2.1109,-2.1109,-2.1109,-2.1109,-2.1109,-2.1109,-2.1109,-2.1109,-2.1109,-2.1109,-2.1109,-2.1109,-2.1109,-2.1109,-2.1109,-2.1109,-2.1109,-2.1109,-2.1109,-2.1109,-2.1109,-2.1109,-2.1109,-2.1109,-2.1109,-2.1109,-2.1109,-2.1109,-2.1109,-2.1109,-2.1109,-2.1109,-2.1109,-2.1109,-2.1109,-2.1109,-2.1109,-2.1109,-2.1109,-2.1109,-2.1109,-2.1109,-2.1109,-2.1109,-2.1109,-2.1109,-2.1109,-2.1109,-2.1109,-2.1109,-2.1109,-2.1109,-2.1109,-2.1109,-2.1109,-2.1109,-2.8733,-2.7134,-2.5619,-2.3876,-2.2278,-2.1109,-2.1109,-2.1109,-2.1109,-2.1109,-2.1109,-2.1109,-2.1109,-2.1109,-2.1109,-2.1109,-2.1109,-2.1109,-2.1109,-2.1109,-2.1109,-2.1109,-2.1109,-2.1109,-2.1109,-2.1109,-2.1109,-2.1109,-2.1109,-2.1109,-2.1109,-2.1109,-2.1109,-2.1109,-2.1109,-2.1109,-2.1109,-2.1109,-2.1109,-2.1109,-2.1109,-2.1109,-2.1109,-2.1109,-2.1109,-2.1109,-2.1109,-2.1109,-2.1109,-2.1109,-2.1109,-2.1109,-2.1109,-2.1109,-2.1109,-2.1109,-2.1109,-2.1109,-2.1109,-2.1109,-2.1109,-2.1109,-2.1109,-2.1109,-2.1109,-2.1109,-2.1109,-2.1109,-2.1109,-2.1109,-2.1109,-2.1109,-2.1109,-2.1109,-2.1109,-2.1109,-2.1109,-2.1109,-2.1109,-2.1109,-2.1109,-2.1109,-2.1109,-2.1109,-2.1109,-2.1109,-2.1109,-2.1109,-2.1109,-2.1109,-2.1109,-2.1109,-2.1109,-2.1109,-2.1109,-2.1109,-2.1109,-2.1109,-2.1109,-2.1109,-2.1109,-2.1109,-2.1109,-2.1109,-2.1109,-2.1109,-2.1109,-2.1109,-2.1109,-2.1109,-2.1109,-2.1109,-2.8852,-2.7263,-2.5619,-2.3993,-2.2341,-2.1109,-2.1109,-2.1109,-2.1109,-2.1109,-2.1109,-2.1109,-2.1109,-2.1109,-2.1109,-2.1109,-2.1109,-2.1109,-2.1109,-2.1109,-2.1109,-2.1109,-2.1109,-2.1109,-2.1109,-2.1109,-2.1109,-2.1109,-2.1109,-2.1109,-2.1109,-2.1109,-2.1109,-2.1109,-2.1109,-2.1109,-2.1109,-2.1109,-2.1109,-2.1109,-2.1109,-2.1109,-2.1109,-2.1109,-2.1109,-2.1109,-2.1109,-2.1109,-2.1109,-2.1109,-2.1109,-2.1109,-2.1109,-2.1109,-2.1109,-2.1109,-2.1109,-2.1109,-2.1109,-2.1109,-2.1109,-2.1109,-2.1109,-2.1109,-2.1109,-2.1109,-2.1109,-2.1109,-2.1109,-2.1109,-2.1109,-2.1109,-2.1109,-2.1109,-2.1109,-2.1109,-2.1109,-2.1109,-2.1109,-2.1109,-2.1109,-2.1109,-2.1109,-2.1109,-2.1109,-2.1109,-2.1109,-2.1109,-2.1109,-2.1109,-2.1109,-2.1109,-2.1109,-2.1109,-2.1109,-2.1109,-2.1109,-2.1109,-2.1109,-2.1109,-2.1109,-2.1109,-2.1109,-2.1109,-2.1109,-2.1109,-2.1109,-2.1109,-2.1109,-2.1109,-2.1109,-2.1109,-2.953,-2.8059,-2.653,-2.5513,-2.3566,-2.1908,-2.1908,-2.1475,-2.1109,-2.1109,-2.1109,-2.1109,-2.1109,-2.1109,-2.1109,-2.1109,-2.1109,-2.1109,-2.1109,-2.1109,-2.1109,-2.1109,-2.1109,-2.1109,-2.1109,-2.1109,-2.1109,-2.1109,-2.1109,-2.1109,-2.1109,-2.1109,-2.1109,-2.1109,-2.1109,-2.1109,-2.1109,-2.1109,-2.1109,-2.1109,-2.1109,-2.1109,-2.1109,-2.1109,-2.1109,-2.1109,-2.1109,-2.1109,-2.1109,-2.1109,-2.1109,-2.1109,-2.1109,-2.1109,-2.1109,-2.1109,-2.1109,-2.1109,-2.1109,-2.1109,-2.1109,-2.1109,-2.1109,-2.1109,-2.1109,-2.1109,-2.1109,-2.1109,-2.1109,-2.1109,-2.1109,-2.1109,-2.1109,-2.1109,-2.1109,-2.1109,-2.1109,-2.1109,-2.1109,-2.1109,-2.1109,-2.1109,-2.1109,-2.1109,-2.1109,-2.1109,-2.1109,-2.1109,-2.1109,-2.1109,-2.1109,-2.1109,-2.1109,-2.1109,-2.1109,-2.1109,-2.1109,-2.1109,-2.1109,-2.1109,-2.1109,-2.1109,-2.1109,-2.1109,-2.1109,-2.1109,-2.1109,-2.1109,-2.1109,-2.1109,-2.1109,-2.1109,0.0,0.0,0.0,-2.8417,-2.6001,-2.369,-2.369,-2.2404,-2.1172,-2.1172,-2.1109,-2.1109,-2.1109,-2.1109,-2.1109,-2.1109,-2.1109,-2.1109,-2.1109,-2.1109,-2.1109,-2.1109,-2.1109,-2.1109,-2.1109,-2.1109,-2.1109,-2.1109,-2.1109,-2.1109,-2.1109,-2.1109,-2.1109,-2.1109,-2.1109,-2.1109,-2.1109,-2.1109,-2.1109,-2.1109,-2.1109,-2.1109,-2.1109,-2.1109,-2.1109,-2.1109,-2.1109,-2.1109,-2.1109,-2.1109,-2.1109,-2.1109,-2.1109,-2.1109,-2.1109,-2.1109,-2.1109,-2.1109,-2.1109,-2.1109,-2.1109,-2.1109,-2.1109,-2.1109,-2.1109,-2.1109,-2.1109,-2.1109,-2.1109,-2.1109,-2.1109,-2.1109,-2.1109,-2.1109,-2.1109,-2.1109,-2.1109,-2.1109,-2.1109,-2.1109,-2.1109,-2.1109,-2.1109,-2.1109,-2.1109,-2.1109,-2.1109,-2.1109,-2.1109,-2.1109,-2.1109,-2.1109,-2.1109,-2.1109,-2.1109,-2.1109,-2.1109,-2.1109,-2.1109,-2.1109,-2.1109,-2.1109,-2.1109,-2.1109,-2.1109,-2.1109,-2.1109,-2.1109,-2.1109,-2.1109,-2.1109,-2.1109,-3.0889,0.0,0.0,0.0,0.0,0.0,-2.5314,-2.4108,-2.2897,-2.2897,-2.1908,-2.1109,-2.1109,-2.1109,-2.1109,-2.1109,-2.1109,-2.1109,-2.1109,-2.1109,-2.1109,-2.1109,-2.1109,-2.1109,-2.1109,-2.1109,-2.1109,-2.1109,-2.1109,-2.1109,-2.1109,-2.1109,-2.1109,-2.1109,-2.1109,-2.1109,-2.1109,-2.1109,-2.1109,-2.1109,-2.1109,-2.1109,-2.1109,-2.1109,-2.1109,-2.1109,-2.1109,-2.1109,-2.1109,-2.1109,-2.1109,-2.1109,-2.1109,-2.1109,-2.1109,-2.1109,-2.1109,-2.1109,-2.1109,-2.1109,-2.1109,-2.1109,-2.1109,-2.1109,-2.1109,-2.1109,-2.1109,-2.1109,-2.1109,-2.1109,-2.1109,-2.1109,-2.1109,-2.1109,-2.1109,-2.1109,-2.1109,-2.1109,-2.1109,-2.1109,-2.1109,-2.1109,-2.1109,-2.1109,-2.1109,-2.1109,-2.1109,-2.1109,-2.1109,-2.1109,-2.1109,-2.1109,-2.1109,-2.1109,-2.1109,-2.1109,-2.1109,-2.1109,-2.1109,-2.1109,-2.1109,-2.1109,-2.1109,-2.1109,-2.1109,-2.1109,-2.1109,-2.1109,-2.1109,-2.1109,-2.1109,-2.1109,-3.0889,-3.0206,-2.9462,-2.9462,0.0,0.0,-2.7013,-2.5269,-2.3574,-2.3574,-2.2285,-2.1109,-2.1109,-2.1109,-2.1109,-2.1109,-2.1109,-2.1109,-2.1109,-2.1109,-2.1109,-2.1109,-2.1109,-2.1109,-2.1109,-2.1109,-2.1109,-2.1109,-2.1109,-2.1109,-2.1109,-2.1109,-2.1109,-2.1109,-2.1109,-2.1109,-2.1109,-2.1109,-2.1109,-2.1109,-2.1109,-2.1109,-2.1109,-2.1109,-2.1109,-2.1109,-2.1109,-2.1109,-2.1109,-2.1109,-2.1109,-2.1109,-2.1109,-2.1109,-2.1109,-2.1109,-2.1109,-2.1109,-2.1109,-2.1109,-2.1109,-2.1109,-2.1109,-2.1109,-2.1109,-2.1109,-2.1109,-2.1109,-2.1109,-2.1109,-2.1109,-2.1109,-2.1109,-2.1109,-2.1109,-2.1109,-2.1109,-2.1109,-2.1109,-2.1109,-2.1109,-2.1109,-2.1109,-2.1109,-2.1109,-2.1109,-2.1109,-2.1109,-2.1109,-2.1109,-2.1109,-2.1109,-2.1109,-2.1109,-2.1109,-2.1109,-2.1109,-2.1109,-2.1109,-2.1109,-2.1109,-2.1109,-2.1109,-2.1109,-2.1109,-2.1109,-2.1109,-2.1109,-2.1109,-2.1109,-2.1109,-2.1109,-3.0889,-3.0889,-3.0889,-3.0889,-2.9776,0.0,-2.8664,-2.6305,-2.4116,-2.4116,-2.2827,-2.1657,-2.1657,-2.1657,-2.1657,-2.1657,-2.1475,-2.1292,-2.1109,-2.1109,-2.1109,-2.1109,-2.1109,-2.1109,-2.1109,-2.1109,-2.1109,-2.1109,-2.1109,-2.1109,-2.1109,-2.1109,-2.1109,-2.1109,-2.1109,-2.1109,-2.1109,-2.1109,-2.1109,-2.1109,-2.1109,-2.1109,-2.1109,-2.1109,-2.1109,-2.1109,-2.1109,-2.1109,-2.1109,-2.1109,-2.1109,-2.1109,-2.1109,-2.1109,-2.1109,-2.1109,-2.1109,-2.1109,-2.1109,-2.1109,-2.1109,-2.1109,-2.1109,-2.1109,-2.1109,-2.1109,-2.1109,-2.1109,-2.1109,-2.1109,-2.1109,-2.1109,-2.1109,-2.1109,-2.1109,-2.1109,-2.1109,-2.1109,-2.1109,-2.1109,-2.1109,-2.1109,-2.1109,-2.1109,-2.1109,-2.1109,-2.1109,-2.1109,-2.1109,-2.1109,-2.1109,-2.1109,-2.1109,-2.1109,-2.1109,-2.1109,-2.1109,-2.1109,-2.1109,-2.1109,-2.1109,-2.1109,-2.1109,-2.1109,-2.1109,-2.1109,-2.1109,-2.1109,-2.1109,-2.1109,-2.1109,-2.1109,-3.0889,-3.0889,-3.0889,-3.0889,-3.0645,0.0,-3.0392,-2.8861,-2.7452,-2.7452,-2.6167,-2.5069,-2.5069,-2.5069,-2.5069,-2.5069,-2.3985,-2.2647,-2.1292,-2.1109,-2.1109,-2.1109,-2.1109,-2.1109,-2.1109,-2.1109,-2.1109,-2.1109,-2.1109,-2.1109,-2.1109,-2.1109,-2.1109,-2.1109,-2.1109,-2.1109,-2.1109,-2.1109,-2.1109,-2.1109,-2.1109,-2.1109,-2.1109,-2.1109,-2.1109,-2.1109,-2.1109,-2.1109,-2.1109,-2.1109,-2.1109,-2.1109,-2.1109,-2.1109,-2.1109,-2.1109,-2.1109,-2.1109,-2.1109,-2.1109,-2.1109,-2.1109,-2.1109,-2.1109,-2.1109,-2.1109,-2.1109,-2.1109,-2.1109,-2.1109,-2.1109,-2.1109,-2.1109,-2.1109,-2.1109,-2.1109,-2.1109,-2.1109,-2.1109,-2.1109,-2.1109,-2.1109,-2.1109,-2.1109,-2.1109,-2.1109,-2.1109,-2.1109,-2.1109,-2.1109,-2.1109,-2.1109,-2.1109,-2.1109,-2.1109,-2.1109,-2.1109,-2.1109,-2.1109,-2.1109,-2.1109,-2.1109,-2.1109,-2.1109,-2.1109,-2.1109,-2.1109,-2.1109,-2.1109,-2.1109,-2.1109,-2.1109,-3.1112,-3.0889,-3.0889,-3.0889,-3.0889,0.0,0.0,-2.9589,-2.8417,-2.8417,-2.7134,-2.5976,-2.5976,-2.5976,-2.5976,-2.5976,-2.5322,-2.4532,-2.3668,-2.2146,-2.1109,-2.1109,-2.1109,-2.1109,-2.1109,-2.1109,-2.1109,-2.1109,-2.1109,-2.1109,-2.1109,-2.1109,-2.1109,-2.1109,-2.1109,-2.1109,-2.1109,-2.1109,-2.1109,-2.1109,-2.1109,-2.1109,-2.1109,-2.1109,-2.1109,-2.1109,-2.1109,-2.1109,-2.1109,-2.1109,-2.1109,-2.1109,-2.1109,-2.1109,-2.1109,-2.1109,-2.1109,-2.1109,-2.1109,-2.1109,-2.1109,-2.1109,-2.1109,-2.1109,-2.1109,-2.1109,-2.1109,-2.1109,-2.1109,-2.1109,-2.1109,-2.1109,-2.1109,-2.1109,-2.1109,-2.1109,-2.1109,-2.1109,-2.1109,-2.1109,-2.1109,-2.1109,-2.1109,-2.1109,-2.1109,-2.1109,-2.1109,-2.1109,-2.1109,-2.1109,-2.1109,-2.1109,-2.1109,-2.1109,-2.1109,-2.1109,-2.1109,-2.1109,-2.1109,-2.1109,-2.1109,-2.1109,-2.1109,-2.1109,-2.1109,-2.1109,-2.1109,-2.1109,-2.1109,-2.1109,-2.1109,-2.1109,-3.1662,-3.1112,-3.0889,-3.0889,-3.0889,-3.0889,0.0,0.0,0.0,-2.8852,-2.7871,-2.6961,-2.6961,-2.6961,-2.6961,-2.6961,-2.6651,-2.647,-2.647,-2.3915,-2.1902,-2.1601,-2.1292,-2.1109,-2.1109,-2.1109,-2.1109,-2.1109,-2.1109,-2.1109,-2.1109,-2.1109,-2.1109,-2.1109,-2.1109,-2.1109,-2.1109,-2.1109,-2.1109,-2.1109,-2.1109,-2.1109,-2.1109,-2.1109,-2.1109,-2.1109,-2.1109,-2.1109,-2.1109,-2.1109,-2.1109,-2.1109,-2.1109,-2.1109,-2.1109,-2.1109,-2.1109,-2.1109,-2.1109,-2.1109,-2.1109,-2.1109,-2.1109,-2.1109,-2.1109,-2.1109,-2.1109,-2.1109,-2.1109,-2.1109,-2.1109,-2.1109,-2.1109,-2.1109,-2.1109,-2.1109,-2.1109,-2.1109,-2.1109,-2.1109,-2.1109,-2.1109,-2.1109,-2.1109,-2.1109,-2.1109,-2.1109,-2.1109,-2.1109,-2.1109,-2.1109,-2.1109,-2.1109,-2.1109,-2.1109,-2.1109,-2.1109,-2.1109,-2.1109,-2.1109,-2.1109,-2.1109,-2.1109,-2.1109,-2.1109,-2.1109,-2.1109,-2.1109,-2.1109,-2.1109,-2.1109,-2.1109,-3.2918,-3.1883,-3.0889,-3.0889,-3.0889,-3.0889,-3.0889,0.0,-3.0635,-3.0635,0.0,-3.0333,-3.0333,0.0,0.0,-3.0333,-2.9098,-2.811,-2.811,-2.6591,-2.4893,-2.3512,-2.1971,-2.1109,-2.1109,-2.1109,-2.1109,-2.1109,-2.1109,-2.1109,-2.1109,-2.1109,-2.1109,-2.1109,-2.1109,-2.1109,-2.1109,-2.1109,-2.1109,-2.1109,-2.1109,-2.1109,-2.1109,-2.1109,-2.1109,-2.1109,-2.1109,-2.1109,-2.1109,-2.1109,-2.1109,-2.1109,-2.1109,-2.1109,-2.1109,-2.1109,-2.1109,-2.1109,-2.1109,-2.1109,-2.1109,-2.1109,-2.1109,-2.1109,-2.1109,-2.1109,-2.1109,-2.1109,-2.1109,-2.1109,-2.1109,-2.1109,-2.1109,-2.1109,-2.1109,-2.1109,-2.1109,-2.1109,-2.1109,-2.1109,-2.1109,-2.1109,-2.1109,-2.1109,-2.1109,-2.1109,-2.1109,-2.1109,-2.1109,-2.1109,-2.1109,-2.1109,-2.1109,-2.1109,-2.1109,-2.1109,-2.1109,-2.1109,-2.1109,-2.1109,-2.1109,-2.1109,-2.1109,-2.1109,-2.1109,-2.1109,-2.1109,-2.1109,-2.1109,-2.1109,-2.1109,-2.1109,-3.4626,-3.3304,-3.2369,-3.3258,-3.216,-3.1112,-3.1988,-3.1488,-3.0889,-3.0889,0.0,0.0,0.0,0.0,0.0,0.0,-3.0333,-2.9835,-2.9835,-2.8426,-2.678,-2.52,-2.434,-2.3551,-2.2647,-2.1664,-2.1109,-2.1109,-2.1109,-2.1109,-2.1109,-2.1109,-2.1109,-2.1109,-2.1109,-2.1109,-2.1109,-2.1109,-2.1109,-2.1109,-2.1109,-2.1109,-2.1109,-2.1109,-2.1109,-2.1109,-2.1109,-2.1109,-2.1109,-2.1109,-2.1109,-2.1109,-2.1109,-2.1109,-2.1109,-2.1109,-2.1109,-2.1109,-2.1109,-2.1109,-2.1109,-2.1109,-2.1109,-2.1109,-2.1109,-2.1109,-2.1109,-2.1109,-2.1109,-2.1109,-2.1109,-2.1109,-2.1109,-2.1109,-2.1109,-2.1109,-2.1109,-2.1109,-2.1109,-2.1109,-2.1109,-2.1109,-2.1109,-2.1109,-2.1109,-2.1109,-2.1109,-2.1109,-2.1109,-2.1109,-2.1109,-2.1109,-2.1109,-2.1109,-2.1109,-2.1109,-2.1109,-2.1109,-2.1109,-2.1109,-2.1109,-2.1109,-2.1109,-2.1109,-2.1109,-2.1109,-2.1109,-2.1109,-2.1109,-2.1109,-2.1109,-2.1109,-3.6108,-3.4515,-3.3462,-3.4902,-3.3698,-3.2379,-3.3473,-3.2871,-3.2102,-3.2102,-3.2102,0.0,0.0,0.0,-3.1383,-3.0947,0.0,-3.0889,-3.0889,-2.9835,-2.8486,-2.6832,-2.6288,-2.5383,-2.3752,-2.2529,-2.1601,-2.1109,-2.1109,-2.1109,-2.1109,-2.1109,-2.1109,-2.1109,-2.1109,-2.1109,-2.1109,-2.1109,-2.1109,-2.1109,-2.1109,-2.1109,-2.1109,-2.1109,-2.1109,-2.1109,-2.1109,-2.1109,-2.1109,-2.1109,-2.1109,-2.1109,-2.1109,-2.1109,-2.1109,-2.1109,-2.1109,-2.1109,-2.1109,-2.1109,-2.1109,-2.1109,-2.1109,-2.1109,-2.1109,-2.1109,-2.1109,-2.1109,-2.1109,-2.1109,-2.1109,-2.1109,-2.1109,-2.1109,-2.1109,-2.1109,-2.1109,-2.1109,-2.1109,-2.1109,-2.1109,-2.1109,-2.1109,-2.1109,-2.1109,-2.1109,-2.1109,-2.1109,-2.1109,-2.1109,-2.1109,-2.1109,-2.1109,-2.1109,-2.1109,-2.1109,-2.1109,-2.1109,-2.1109,-2.1109,-2.1109,-2.1109,-2.1109,-2.1109,-2.1109,-2.1109,-2.1109,-2.1109,-2.1109,-2.1109,-2.1109,-2.1109,-3.7026,-3.5321,-3.3462,-3.4902,-3.5245,-3.5178,-3.5245,-3.5178,-3.5189,-3.5189,-3.5189,-3.4736,-3.3293,-3.3021,-3.2587,-3.1112,-3.0889,0.0,0.0,-3.083,-3.0206,-2.8545,-2.6953,-2.5383,-2.3752,-2.3574,-2.2834,-2.1235,-2.1109,-2.1109,-2.1109,-2.1109,-2.1109,-2.1109,-2.1109,-2.1109,-2.1109,-2.1109,-2.1109,-2.1109,-2.1109,-2.1109,-2.1109,-2.1109,-2.1109,-2.1109,-2.1109,-2.1109,-2.1109,-2.1109,-2.1109,-2.1109,-2.1109,-2.1109,-2.1109,-2.1109,-2.1109,-2.1109,-2.1109,-2.1109,-2.1109,-2.1109,-2.1109,-2.1109,-2.1109,-2.1109,-2.1109,-2.1109,-2.1109,-2.1109,-2.1109,-2.1109,-2.1109,-2.1109,-2.1109,-2.1109,-2.1109,-2.1109,-2.1109,-2.1109,-2.1109,-2.1109,-2.1109,-2.1109,-2.1109,-2.1109,-2.1109,-2.1109,-2.1109,-2.1109,-2.1109,-2.1109,-2.1109,-2.1109,-2.1109,-2.1109,-2.1109,-2.1109,-2.1109,-2.1109,-2.1109,-2.1109,-2.1109,-2.1109,-2.1109,-2.1109,-2.1109,-2.1109,-2.1109,-2.1109,-2.1109,-2.1109,-3.7358,-3.6745,-3.6368,-3.782,-3.6715,-3.5563,-3.6541,-3.5999,-3.5288,-3.5288,-3.5288,-3.5123,-3.4626,-3.457,-3.4069,-3.2587,-3.2369,-3.2045,0.0,-3.0889,-3.0704,-3.0147,-2.8605,-2.7383,-2.6841,-2.4848,-2.3387,-2.2772,-2.1727,-2.1109,-2.1109,-2.1109,-2.1109,-2.1109,-2.1109,-2.1109,-2.1109,-2.1109,-2.1109,-2.1109,-2.1109,-2.1109,-2.1109,-2.1109,-2.1109,-2.1109,-2.1109,-2.1109,-2.1109,-2.1109,-2.1109,-2.1109,-2.1109,-2.1109,-2.1109,-2.1109,-2.1109,-2.1109,-2.1109,-2.1109,-2.1109,-2.1109,-2.1109,-2.1109,-2.1109,-2.1109,-2.1109,-2.1109,-2.1109,-2.1109,-2.1109,-2.1109,-2.1109,-2.1109,-2.1109,-2.1109,-2.1109,-2.1109,-2.1109,-2.1109,-2.1109,-2.1109,-2.1109,-2.1109,-2.1109,-2.1109,-2.1109,-2.1109,-2.1109,-2.1109,-2.1109,-2.1109,-2.1109,-2.1109,-2.1109,-2.1109,-2.1109,-2.1109,-2.1109,-2.1109,-2.1109,-2.1109,-2.1109,-2.1109,-2.1109,-2.1109,-2.1109,-2.1109,-2.1109,-2.1109,-2.1109,-2.1109,-3.6703,-3.6703,-3.693,-3.7926,-3.7103,-3.6325,-3.7305,-3.7145,-3.6715,-3.6162,-3.6499,-3.6391,-3.4792,-3.5398,-3.5288,-3.2758,-3.2747,-3.2587,0.0,-3.0889,-3.0889,-3.0889,-2.9962,-2.8852,-2.7683,-2.5688,-2.3993,-2.2772,-2.1727,-2.1109,-2.1109,-2.1109,-2.1109,-2.1109,-2.1109,-2.1109,-2.1109,-2.1109,-2.1109,-2.1109,-2.1109,-2.1109,-2.1109,-2.1109,-2.1109,-2.1109,-2.1109,-2.1109,-2.1109,-2.1109,-2.1109,-2.1109,-2.1109,-2.1109,-2.1109,-2.1109,-2.1109,-2.1109,-2.1109,-2.1109,-2.1109,-2.1109,-2.1109,-2.1109,-2.1109,-2.1109,-2.1109,-2.1109,-2.1109,-2.1109,-2.1109,-2.1109,-2.1109,-2.1109,-2.1109,-2.1109,-2.1109,-2.1109,-2.1109,-2.1109,-2.1109,-2.1109,-2.1109,-2.1109,-2.1109,-2.1109,-2.1109,-2.1109,-2.1109,-2.1109,-2.1109,-2.1109,-2.1109,-2.1109,-2.1109,-2.1109,-2.1109,-2.1109,-2.1109,-2.1109,-2.1109,-2.1109,-2.1156,-2.1263,-2.1162,-2.1162,-2.1269,-2.1162,-2.1109,-2.1109,-2.1109,-2.1109]},{"header":{"parameterUnit":"m.s-1","parameterCategory":1,"la1":30.6,"la2":29.2853,"lo1":-89.7004,"lo2":-87.6739,"dy":0.0162,"dx":0.0183,"nx":112,"ny":82,"refTime":"2023-05-07T00:00:00:Z","depth":0,"parameterNumber":3,"parameterNumberName":"V-component_of_WINDS"},"data":[0.0,0.0,0.0,0.0,0.0,0.0,0.0,0.0,0.0,0.0,0.0,0.0,0.0,0.0,0.0,0.0,0.0,0.0,0.0,0.0,0.0,0.0,0.0,0.0,0.0,0.0,0.0,0.0,0.0,0.0,0.0,0.0,0.0,0.0,0.0,0.0,0.0,0.0,0.0,0.0,0.0,0.0,0.0,0.0,0.0,0.0,0.0,0.0,0.0,0.0,0.0,0.0,0.0,0.0,0.0,0.0,0.0,0.0,0.0,0.0,0.0,0.0,0.0,0.0,0.0,0.0,0.0,0.0,0.0,0.0,0.0,0.0,0.0,0.0,0.0,0.0,0.0,0.0,0.0,0.0,0.0,0.0,0.0,0.0,0.0,0.0,0.0,0.0,0.0,0.0,1.8864,1.774,1.7582,1.7582,1.7582,1.7582,1.7582,1.7582,0.0,0.0,0.0,0.0,0.0,0.0,0.0,0.0,0.0,0.0,0.0,0.0,0.0,0.0,0.0,0.0,0.0,0.0,0.0,0.0,0.0,0.0,0.0,0.0,0.0,0.0,0.0,0.0,0.0,0.0,0.0,0.0,0.0,0.0,0.0,0.0,0.0,0.0,0.0,0.0,0.0,0.0,0.0,0.0,0.0,0.0,0.0,0.0,0.0,0.0,0.0,0.0,0.0,0.0,0.0,0.0,0.0,0.0,0.0,0.0,0.0,0.0,0.0,0.0,0.0,0.0,0.0,0.0,0.0,0.0,0.0,0.0,0.0,0.0,0.0,0.0,0.0,0.0,0.0,0.0,0.0,0.0,0.0,0.0,0.0,0.0,0.0,0.0,0.0,0.0,0.0,0.0,0.0,0.0,0.0,0.0,0.0,0.0,0.0,0.0,0.0,0.0,0.0,0.0,1.7838,1.7635,1.7582,1.7582,1.7582,1.7582,1.7582,1.7582,0.0,0.0,0.0,0.0,0.0,0.0,0.0,0.0,0.0,0.0,0.0,0.0,0.0,0.0,0.0,0.0,0.0,0.0,0.0,0.0,0.0,0.0,0.0,0.0,0.0,0.0,0.0,0.0,0.0,0.0,0.0,0.0,0.0,0.0,0.0,0.0,0.0,0.0,0.0,0.0,0.0,0.0,0.0,0.0,0.0,0.0,0.0,0.0,0.0,0.0,0.0,0.0,0.0,0.0,0.0,0.0,0.0,0.0,0.0,0.0,0.0,0.0,0.0,0.0,0.0,0.0,0.0,0.0,0.0,0.0,0.0,0.0,0.0,0.0,0.0,0.0,0.0,0.0,0.0,0.0,0.0,0.0,0.0,0.0,0.0,0.0,0.0,0.0,0.0,0.0,0.0,0.0,0.0,0.0,0.0,0.0,0.0,0.0,0.0,0.0,0.0,0.0,0.0,1.9369,1.7891,1.861,1.8042,1.7582,1.7582,1.7582,1.7582,1.7582,1.7582,0.0,0.0,0.0,0.0,0.0,0.0,0.0,0.0,0.0,0.0,0.0,0.0,0.0,0.0,0.0,0.0,0.0,0.0,0.0,0.0,0.0,0.0,0.0,0.0,0.0,0.0,0.0,0.0,0.0,0.0,0.0,0.0,0.0,0.0,0.0,0.0,0.0,0.0,0.0,0.0,0.0,0.0,0.0,0.0,0.0,0.0,0.0,0.0,0.0,0.0,0.0,0.0,0.0,0.0,0.0,0.0,0.0,0.0,0.0,0.0,0.0,0.0,0.0,0.0,0.0,0.0,0.0,0.0,0.0,0.0,0.0,0.0,0.0,0.0,0.0,0.0,0.0,0.0,0.0,0.0,0.0,0.0,0.0,0.0,0.0,0.0,0.0,0.0,0.0,0.0,0.0,0.0,0.0,0.0,0.0,0.0,0.0,0.0,0.0,0.0,0.0,0.0,2.0479,1.8961,1.9981,1.8864,1.8094,1.8094,1.7786,1.7582,1.7582,1.7582,0.0,0.0,0.0,0.0,0.0,0.0,0.0,0.0,0.0,0.0,0.0,0.0,0.0,0.0,0.0,0.0,0.0,0.0,0.0,0.0,0.0,0.0,0.0,0.0,0.0,0.0,0.0,0.0,0.0,0.0,0.0,0.0,0.0,0.0,0.0,0.0,0.0,0.0,0.0,0.0,0.0,0.0,0.0,0.0,0.0,0.0,0.0,0.0,0.0,0.0,0.0,0.0,0.0,0.0,0.0,0.0,0.0,0.0,0.0,0.0,0.0,0.0,0.0,0.0,0.0,0.0,0.0,0.0,0.0,0.0,0.0,0.0,0.0,0.0,0.0,0.0,0.0,0.0,0.0,0.0,0.0,0.0,0.0,0.0,0.0,0.0,0.0,0.0,0.0,0.0,0.0,0.0,0.0,0.0,0.0,0.0,0.0,0.0,0.0,0.0,0.0,0.0,2.16,2.1448,2.1541,2.029,1.9472,1.9472,1.8304,1.7582,1.7582,1.7582,0.0,0.0,0.0,0.0,0.0,0.0,0.0,0.0,0.0,0.0,0.0,0.0,0.0,0.0,0.0,0.0,0.0,0.0,0.0,0.0,0.0,0.0,0.0,0.0,0.0,0.0,0.0,0.0,0.0,0.0,0.0,0.0,0.0,0.0,0.0,0.0,0.0,0.0,0.0,0.0,0.0,0.0,0.0,0.0,0.0,0.0,0.0,0.0,0.0,0.0,0.0,0.0,0.0,0.0,0.0,0.0,0.0,0.0,0.0,0.0,0.0,0.0,0.0,0.0,0.0,0.0,0.0,0.0,0.0,0.0,0.0,0.0,0.0,0.0,0.0,0.0,0.0,0.0,0.0,0.0,0.0,0.0,0.0,0.0,0.0,0.0,0.0,0.0,0.0,0.0,0.0,0.0,0.0,0.0,0.0,0.0,0.0,0.0,0.0,0.0,0.0,0.0,2.2717,2.2005,2.2868,2.1702,2.0896,2.0896,2.0428,2.0179,2.0179,0.0,0.0,0.0,0.0,0.0,0.0,0.0,0.0,0.0,0.0,0.0,0.0,0.0,0.0,0.0,0.0,0.0,0.0,0.0,0.0,0.0,0.0,0.0,0.0,0.0,0.0,0.0,0.0,0.0,0.0,0.0,0.0,0.0,0.0,0.0,0.0,0.0,0.0,0.0,0.0,0.0,0.0,0.0,0.0,0.0,0.0,0.0,0.0,0.0,0.0,0.0,0.0,0.0,0.0,0.0,0.0,0.0,0.0,0.0,0.0,0.0,0.0,0.0,0.0,0.0,0.0,0.0,0.0,0.0,0.0,0.0,0.0,0.0,0.0,0.0,0.0,0.0,0.0,0.0,0.0,0.0,0.0,0.0,0.0,0.0,0.0,0.0,0.0,0.0,0.0,0.0,0.0,0.0,0.0,0.0,0.0,0.0,0.0,0.0,0.0,0.0,0.0,2.5586,2.4097,2.3335,2.4254,2.3126,2.2307,2.2307,2.1954,2.1702,2.1702,0.0,0.0,0.0,0.0,0.0,0.0,0.0,0.0,0.0,0.0,0.0,0.0,0.0,0.0,0.0,0.0,0.0,0.0,0.0,0.0,0.0,0.0,0.0,0.0,0.0,0.0,0.0,0.0,0.0,0.0,0.0,0.0,0.0,0.0,0.0,0.0,0.0,0.0,0.0,0.0,0.0,0.0,0.0,0.0,0.0,0.0,0.0,0.0,0.0,0.0,0.0,0.0,0.0,0.0,0.0,0.0,0.0,0.0,0.0,0.0,0.0,0.0,0.0,0.0,0.0,0.0,0.0,0.0,0.0,0.0,0.0,0.0,0.0,0.0,0.0,0.0,0.0,0.0,0.0,0.0,0.0,0.0,0.0,0.0,0.0,0.0,0.0,0.0,0.0,0.0,0.0,0.0,0.0,0.0,0.0,0.0,0.0,0.0,0.0,0.0,0.0,0.0,2.5693,2.5693,2.5693,2.5693,2.4501,2.3741,2.3741,2.2517,2.1752,0.0,0.0,0.0,0.0,0.0,0.0,0.0,0.0,0.0,0.0,0.0,0.0,0.0,0.0,0.0,0.0,0.0,0.0,0.0,0.0,0.0,0.0,0.0,0.0,0.0,0.0,0.0,0.0,0.0,0.0,0.0,0.0,0.0,0.0,0.0,0.0,0.0,0.0,0.0,0.0,0.0,0.0,0.0,0.0,0.0,0.0,0.0,0.0,0.0,0.0,0.0,0.0,0.0,0.0,0.0,0.0,0.0,0.0,0.0,0.0,0.0,0.0,0.0,0.0,0.0,0.0,0.0,0.0,0.0,0.0,0.0,0.0,0.0,0.0,0.0,0.0,0.0,0.0,0.0,0.0,0.0,0.0,0.0,0.0,0.0,0.0,0.0,0.0,0.0,0.0,0.0,0.0,0.0,0.0,0.0,0.0,0.0,0.0,0.0,0.0,0.0,0.0,0.0,2.5693,2.5693,2.5693,2.5693,2.5333,2.5128,2.5128,2.4766,2.451,2.451,0.0,0.0,0.0,0.0,0.0,0.0,0.0,0.0,0.0,0.0,0.0,0.0,0.0,0.0,0.0,0.0,0.0,0.0,0.0,0.0,0.0,0.0,0.0,0.0,0.0,0.0,0.0,0.0,0.0,0.0,0.0,0.0,0.0,0.0,0.0,0.0,0.0,0.0,0.0,0.0,0.0,0.0,0.0,0.0,0.0,0.0,0.0,0.0,0.0,0.0,0.0,0.0,0.0,0.0,0.0,0.0,0.0,0.0,0.0,0.0,0.0,0.0,0.0,0.0,0.0,0.0,0.0,0.0,0.0,0.0,0.0,0.0,0.0,0.0,0.0,0.0,0.0,0.0,0.0,0.0,0.0,0.0,0.0,0.0,0.0,0.0,0.0,0.0,0.0,0.0,0.0,0.0,0.0,0.0,0.0,0.0,0.0,0.0,0.0,0.0,0.0,0.0,2.5693,2.5693,2.5693,2.5693,2.5693,2.5693,2.5693,2.5693,2.5693,2.5693,0.0,0.0,0.0,0.0,0.0,0.0,0.0,0.0,0.0,0.0,0.0,0.0,0.0,0.0,0.0,0.0,0.0,0.0,0.0,0.0,0.0,0.0,0.0,0.0,0.0,0.0,0.0,0.0,0.0,0.0,0.0,0.0,0.0,0.0,0.0,0.0,0.0,0.0,0.0,0.0,0.0,0.0,0.0,0.0,0.0,0.0,0.0,0.0,0.0,0.0,0.0,0.0,0.0,0.0,0.0,0.0,0.0,0.0,0.0,0.0,0.0,0.0,0.0,0.0,0.0,0.0,0.0,0.0,0.0,0.0,0.0,0.0,0.0,0.0,0.0,0.0,0.0,0.0,0.0,0.0,0.0,0.0,0.0,0.0,0.0,0.0,0.0,0.0,0.0,0.0,0.0,0.0,0.0,0.0,0.0,0.0,0.0,0.0,0.0,0.0,0.0,0.0,2.5878,2.5965,2.6014,2.5878,2.5965,2.6014,2.5878,2.5965,2.6062,2.6062,0.0,0.0,0.0,0.0,0.0,0.0,0.0,0.0,0.0,0.0,0.0,0.0,0.0,0.0,0.0,0.0,0.0,0.0,0.0,0.0,0.0,0.0,0.0,0.0,0.0,0.0,0.0,0.0,0.0,0.0,0.0,0.0,0.0,0.0,0.0,0.0,0.0,0.0,0.0,0.0,0.0,0.0,0.0,0.0,0.0,0.0,0.0,0.0,0.0,0.0,0.0,0.0,0.0,0.0,0.0,0.0,0.0,0.0,0.0,0.0,4.0554,3.9697,0.0,0.0,0.0,0.0,0.0,0.0,0.0,0.0,0.0,0.0,0.0,0.0,0.0,0.0,0.0,0.0,0.0,0.0,0.0,0.0,0.0,0.0,0.0,0.0,0.0,0.0,0.0,0.0,0.0,0.0,0.0,0.0,0.0,0.0,0.0,0.0,0.0,0.0,0.0,0.0,2.7315,2.8038,2.8272,2.7305,2.8038,2.8215,2.7268,2.8085,2.8623,2.8623,2.8623,0.0,0.0,0.0,0.0,0.0,0.0,0.0,0.0,0.0,0.0,0.0,0.0,0.0,0.0,0.0,0.0,0.0,0.0,0.0,0.0,0.0,0.0,0.0,0.0,0.0,0.0,0.0,0.0,0.0,0.0,0.0,0.0,0.0,0.0,0.0,0.0,0.0,0.0,0.0,0.0,0.0,0.0,0.0,0.0,0.0,0.0,0.0,0.0,0.0,0.0,0.0,0.0,0.0,0.0,0.0,0.0,0.0,0.0,0.0,4.1455,4.0982,0.0,0.0,0.0,0.0,0.0,0.0,0.0,0.0,0.0,0.0,0.0,0.0,0.0,0.0,0.0,0.0,0.0,0.0,0.0,0.0,0.0,0.0,0.0,0.0,0.0,0.0,0.0,0.0,0.0,0.0,0.0,0.0,0.0,0.0,0.0,0.0,0.0,0.0,0.0,0.0,2.8541,2.8993,2.9177,2.8541,2.9039,2.9131,2.8495,2.9039,2.9407,2.9407,2.9407,0.0,0.0,0.0,0.0,0.0,0.0,0.0,0.0,0.0,0.0,0.0,0.0,0.0,0.0,0.0,0.0,0.0,0.0,0.0,0.0,0.0,0.0,0.0,0.0,0.0,0.0,0.0,0.0,0.0,0.0,0.0,0.0,0.0,0.0,0.0,0.0,0.0,0.0,0.0,0.0,0.0,0.0,0.0,0.0,0.0,0.0,0.0,0.0,0.0,0.0,0.0,0.0,0.0,4.3504,4.3646,4.3834,4.3834,4.3929,4.4069,4.2834,4.2738,4.3361,4.1219,0.0,0.0,0.0,0.0,0.0,0.0,0.0,0.0,0.0,0.0,0.0,0.0,0.0,0.0,0.0,0.0,0.0,0.0,0.0,0.0,0.0,0.0,3.6959,3.7325,3.6596,3.5526,3.4492,0.0,0.0,0.0,0.0,0.0,0.0,0.0,0.0,0.0,0.0,0.0,2.9715,2.9909,2.9954,2.9727,2.9909,2.9954,2.9727,2.9909,3.0045,3.0045,3.0045,2.9954,0.0,0.0,0.0,0.0,0.0,0.0,0.0,0.0,0.0,0.0,0.0,0.0,0.0,0.0,0.0,0.0,0.0,0.0,0.0,0.0,0.0,0.0,0.0,0.0,0.0,0.0,0.0,0.0,0.0,0.0,0.0,0.0,4.3504,4.3504,0.0,0.0,0.0,0.0,0.0,0.0,0.0,0.0,0.0,0.0,0.0,0.0,0.0,4.3313,4.3504,4.3504,4.3504,4.3504,4.3504,4.4069,4.5161,4.5161,4.5734,4.6726,4.5448,0.0,4.3456,4.3122,0.0,0.0,0.0,0.0,0.0,0.0,0.0,0.0,0.0,0.0,0.0,0.0,0.0,0.0,0.0,0.0,0.0,0.0,0.0,0.0,0.0,0.0,3.8449,3.81,3.7413,3.6702,3.6047,3.4829,3.3734,3.3181,3.3124,3.3124,0.0,0.0,0.0,0.0,0.0,0.0,3.1134,3.1921,3.2196,3.1089,3.1965,3.2152,3.1045,3.1965,3.2612,3.2612,3.2612,3.2108,3.0989,3.0944,0.0,0.0,0.0,0.0,0.0,0.0,0.0,0.0,0.0,0.0,0.0,0.0,0.0,0.0,0.0,0.0,0.0,0.0,0.0,0.0,0.0,0.0,0.0,0.0,0.0,0.0,0.0,0.0,0.0,4.5973,4.5644,4.5644,4.5644,4.5644,0.0,0.0,0.0,0.0,0.0,0.0,0.0,0.0,0.0,4.4549,4.4595,4.4918,4.5644,4.5644,4.5456,4.5049,4.5049,4.5186,4.5329,4.5329,4.5659,4.613,4.5574,4.5011,4.444,4.3366,4.3157,4.3384,0.0,0.0,0.0,0.0,4.1769,4.1383,4.089,4.0916,4.1041,4.0199,0.0,0.0,0.0,0.0,0.0,0.0,0.0,3.9503,4.014,3.9327,3.838,3.849,3.7763,3.6931,3.6336,3.567,3.4954,3.416,3.3513,3.3124,3.3124,3.3124,0.0,0.0,0.0,3.2896,3.2326,3.2754,3.2896,3.2339,3.2754,3.2884,3.2339,3.2797,3.3124,3.3124,3.3124,3.284,3.2283,3.2283,3.1862,0.0,0.0,0.0,0.0,0.0,0.0,0.0,0.0,0.0,0.0,0.0,0.0,0.0,0.0,0.0,0.0,0.0,0.0,0.0,0.0,0.0,0.0,0.0,0.0,0.0,0.0,0.0,0.0,4.7309,4.7309,4.7309,4.7309,4.7309,0.0,0.0,0.0,0.0,0.0,0.0,4.5869,4.4978,4.4847,4.5591,4.5636,4.6021,4.68,4.68,4.6546,4.6052,4.6052,4.5783,4.5289,4.5289,4.5289,4.5289,4.5289,4.52,4.4956,4.37,4.3494,4.3791,4.2832,4.2463,4.2449,4.2294,4.1942,4.162,4.1408,4.1667,4.1906,4.1057,4.1351,4.1906,4.1014,0.0,0.0,0.0,0.0,4.0207,4.1059,4.0177,3.9159,3.9605,3.88,3.7825,3.7385,3.6911,3.6304,3.5292,3.4457,3.3827,3.3556,3.3513,0.0,3.3154,3.3124,3.3124,3.3124,3.3124,3.3124,3.3124,3.3124,3.3124,3.3124,3.3124,3.3124,3.3124,3.3124,3.3124,3.3124,3.3124,3.288,3.2441,0.0,0.0,0.0,0.0,0.0,0.0,0.0,0.0,0.0,0.0,0.0,0.0,0.0,0.0,0.0,0.0,0.0,0.0,0.0,0.0,0.0,0.0,0.0,0.0,0.0,0.0,0.0,0.0,0.0,4.7309,4.7309,0.0,0.0,0.0,0.0,4.7309,4.7251,4.7207,4.7207,4.7164,4.6837,4.6254,4.6239,4.5968,4.5409,4.5394,4.5379,4.5349,4.5349,4.5334,4.5289,4.5289,4.5289,4.5289,4.5289,4.4945,4.4366,4.4941,4.5195,4.5206,4.5108,4.5108,4.5034,4.4408,4.4113,4.405,4.3384,4.3185,4.321,4.317,4.3155,4.321,4.317,4.313,0.0,0.0,4.3086,4.3071,4.315,4.2673,4.2166,4.2228,4.1181,4.0234,4.0189,3.8896,3.7381,3.633,3.6079,3.5734,3.4774,0.0,3.4275,3.324,3.3124,3.3124,3.3124,3.3124,3.3124,3.3124,3.3124,3.3124,3.3124,3.3124,3.3124,3.3124,3.3124,3.3124,3.3124,3.3124,3.3111,3.3074,3.2491,0.0,0.0,0.0,0.0,0.0,0.0,0.0,0.0,0.0,0.0,0.0,0.0,0.0,0.0,0.0,0.0,0.0,0.0,0.0,0.0,0.0,0.0,0.0,0.0,0.0,0.0,0.0,0.0,4.7309,4.7309,0.0,4.7309,4.7309,4.7309,4.7309,4.7309,4.7309,4.7309,4.7309,4.7189,4.6965,4.695,4.683,4.6591,4.6591,4.6157,4.5289,4.5289,4.4855,4.3992,4.3992,4.3992,4.3992,4.3992,4.3898,4.3663,4.3888,4.3992,4.3992,4.3992,4.3992,4.3962,4.3723,4.3648,4.3604,4.3379,4.329,4.329,4.329,4.329,4.329,4.329,4.329,4.329,4.329,4.303,4.2701,4.2701,4.2222,4.1767,4.1767,4.1407,4.1025,4.1025,4.0568,3.9982,3.9594,3.7753,3.6093,3.5734,3.5668,3.5547,3.5143,3.545,3.5598,3.5156,3.5463,3.5585,3.5156,3.454,3.4108,3.4108,3.3513,3.3398,3.4066,3.4108,3.4415,3.5075,3.5116,3.5116,3.5116,3.4901,3.4443,0.0,0.0,0.0,0.0,0.0,0.0,0.0,0.0,0.0,0.0,0.0,0.0,0.0,0.0,0.0,0.0,0.0,0.0,0.0,0.0,0.0,0.0,0.0,0.0,0.0,4.8366,4.8366,4.8366,4.8366,4.8366,4.8366,4.8366,4.8366,4.8366,4.8366,4.8366,4.8366,4.8366,4.8243,4.8013,4.7998,4.7891,4.7661,4.7661,4.7242,4.6337,4.6337,4.5861,4.5002,4.5002,4.5002,4.4987,4.4415,4.4182,4.4167,4.3901,4.3591,4.329,4.329,4.329,4.329,4.329,4.329,4.329,4.329,4.329,4.329,4.329,4.329,4.329,4.329,4.329,4.329,4.329,4.3015,4.2686,4.2686,4.2357,4.2043,4.2043,4.1878,4.1752,4.1752,4.1572,4.1422,4.1422,3.9541,3.7824,3.747,3.7417,3.7312,3.6939,3.7259,3.7384,3.6915,3.7273,3.737,3.6915,3.628,3.5775,3.5573,3.4562,3.4315,3.5142,3.4897,3.517,3.6158,3.6198,3.6198,3.6198,3.6198,3.5854,3.5197,0.0,0.0,0.0,0.0,0.0,0.0,0.0,0.0,0.0,0.0,0.0,0.0,0.0,0.0,0.0,0.0,0.0,0.0,0.0,0.0,0.0,0.0,0.0,5.0397,5.0397,5.0397,5.0397,5.0397,5.0397,5.0397,5.0397,5.0397,5.0397,5.0397,5.0397,5.0397,5.0397,5.0115,4.9448,4.9416,4.9133,4.848,4.848,4.8464,4.8448,4.8448,4.8432,4.8416,4.8416,4.8416,4.8295,4.6693,4.5972,4.5925,4.5213,4.4358,4.3453,4.3384,4.3329,4.329,4.329,4.329,4.329,4.329,4.329,4.329,4.329,4.329,4.329,4.329,4.329,4.329,4.329,4.329,4.329,4.329,4.329,4.329,4.329,4.2851,4.2425,4.2425,4.1931,4.1482,4.1482,4.1482,4.1133,4.006,3.9834,3.9502,3.8461,3.831,0.0,3.8297,3.831,3.8324,3.8297,3.8255,3.7978,3.7355,3.6262,3.5841,3.6267,3.5332,3.5251,3.6251,3.6316,3.6316,3.6316,3.629,3.6237,3.6237,0.0,0.0,0.0,0.0,0.0,0.0,0.0,0.0,0.0,0.0,0.0,0.0,0.0,0.0,0.0,0.0,0.0,0.0,0.0,0.0,0.0,5.199,5.1229,5.0512,5.0397,5.0397,5.0397,5.0397,5.0397,5.0397,5.0397,5.0397,5.0397,5.0397,5.0397,5.0397,5.0397,5.0317,5.0147,5.0147,5.0051,4.9859,4.9859,4.9625,4.9133,4.9133,4.8877,4.8416,4.8416,4.8416,4.8363,4.7914,4.7723,4.7723,4.7495,4.7268,4.6821,4.5055,4.3966,4.329,4.329,4.329,4.329,4.329,4.329,4.329,4.329,4.329,4.329,4.329,4.329,4.329,4.329,4.329,4.329,4.329,4.329,4.329,4.329,4.3155,4.306,4.306,4.2925,4.2791,4.2791,4.2791,4.2399,4.116,4.0959,4.0882,4.0543,4.094,4.1072,4.0563,4.0955,4.1057,4.0549,3.9834,3.927,3.9099,3.7643,3.7162,3.8026,3.7367,3.7434,3.8494,3.8531,3.8531,3.8531,3.7738,3.7343,0.0,0.0,0.0,0.0,0.0,0.0,0.0,0.0,0.0,0.0,0.0,0.0,0.0,0.0,0.0,0.0,0.0,0.0,0.0,0.0,0.0,0.0,5.299,5.2364,5.1793,5.1683,5.1683,5.1683,5.1683,5.1683,5.1683,5.1683,5.1683,5.1683,5.1683,5.1683,5.1683,5.1683,5.1683,5.1683,5.1683,5.1683,5.1683,5.1683,5.149,5.11,5.11,5.0922,5.0528,5.0528,5.0528,5.0495,4.9759,4.9433,4.9417,4.9125,4.8743,4.8263,0.0,0.0,0.0,0.0,4.455,4.3989,4.4365,4.4502,4.4502,4.4502,4.4502,4.4502,4.4502,4.4502,4.4502,4.4502,4.4502,4.4502,4.4502,4.4502,4.4502,4.4502,4.4502,4.4403,4.4028,4.3927,4.381,4.3369,4.329,0.0,4.2327,4.2207,4.2207,4.2207,4.2521,4.2626,4.2252,4.2536,4.2626,4.2237,4.1642,4.1155,4.093,3.9559,0.0,0.0,0.0,3.8585,3.9352,3.9388,0.0,0.0,0.0,3.8472,3.8472,3.7852,0.0,0.0,3.6643,3.6448,0.0,0.0,0.0,0.0,0.0,0.0,0.0,0.0,0.0,0.0,0.0,0.0,0.0,0.0,0.0,0.0,5.3501,5.3501,5.3501,5.3501,5.3501,5.3501,5.3501,5.3501,5.3501,5.3501,5.3501,5.3501,5.3501,5.3501,5.3501,5.3501,0.0,0.0,0.0,5.3501,5.3501,5.3501,5.3501,5.3501,5.3501,5.3501,5.3501,5.3501,5.3501,5.3416,5.1876,5.1179,5.1146,5.0482,4.9733,4.8933,4.8554,4.8416,4.8299,4.7654,4.6465,4.5313,4.618,0.0,0.0,4.6353,4.6337,4.6321,4.624,4.6208,4.6208,4.6208,4.6208,4.6208,4.6208,4.6208,4.6208,4.6208,4.6208,4.5977,4.5153,4.4946,4.4684,4.3795,4.3615,4.3615,4.3615,4.3433,4.329,4.329,4.329,4.329,4.329,4.329,4.329,4.329,4.329,0.0,4.256,4.1582,4.0895,4.0659,3.9586,3.9121,3.9523,3.9454,3.9388,3.9388,3.9388,3.9388,3.9388,3.9388,3.9388,3.9337,3.7444,3.7084,0.0,0.0,0.0,0.0,0.0,0.0,0.0,0.0,0.0,0.0,0.0,0.0,0.0,0.0,0.0,5.3501,5.3501,5.3501,5.3501,5.3501,5.3501,5.3501,5.3501,5.3501,5.3501,5.3501,5.3501,5.3501,5.3501,5.3501,5.3501,5.3501,5.3501,5.3501,5.3501,5.3501,5.3501,5.3501,5.3501,5.3501,5.3501,0.0,5.3501,5.3501,5.3501,5.3501,5.3146,5.3011,5.2994,5.2842,5.269,5.2249,4.9466,4.8416,4.84,4.8219,4.7981,4.7722,4.789,4.7962,4.7882,4.7285,4.7073,4.6961,4.6385,4.6208,0.0,4.6208,4.6208,4.6208,4.6208,4.6208,4.6208,4.6208,4.6208,4.6138,4.5977,4.5941,4.5869,4.5674,4.5638,4.5638,4.5638,4.4327,4.329,4.329,4.329,4.329,4.329,4.329,4.329,4.329,4.329,4.3245,4.3125,4.2485,4.2082,4.1998,4.0815,4.0137,4.0217,3.9709,3.9388,3.9388,3.9388,3.9388,3.9388,3.9388,3.9388,3.9388,3.8965,3.8892,0.0,0.0,0.0,0.0,0.0,0.0,0.0,0.0,0.0,0.0,0.0,5.3501,5.3501,0.0,5.3501,5.3501,5.3501,5.3501,5.3501,5.3501,5.3501,5.3501,5.3501,5.3501,5.3501,5.3501,5.3501,5.3501,5.3501,5.3501,5.3501,5.3501,5.3501,5.3501,5.3501,5.3501,5.3501,5.3501,5.3501,5.3501,5.3501,5.3501,5.3501,5.3501,5.3501,5.3501,5.3501,5.3501,5.3501,5.3501,5.3501,5.3315,5.1637,5.0427,4.9711,5.0187,4.9817,4.9189,4.9626,4.9816,4.975,4.9369,4.9254,4.9171,4.8809,4.843,4.8149,4.8149,4.7902,4.7589,4.7589,4.7589,4.7589,4.7589,4.7589,4.7473,4.6986,4.6918,4.6781,4.6279,4.6208,4.6208,4.6208,4.54,4.4577,4.4143,4.4028,4.3888,4.3369,4.329,4.329,4.329,4.329,4.329,4.329,4.2746,4.2396,4.2396,4.1482,4.0741,4.0412,4.0083,3.9753,3.9388,3.9388,3.9388,3.9388,3.9388,3.9388,3.9388,3.9388,3.9388,0.0,0.0,0.0,0.0,0.0,0.0,0.0,5.3501,5.3501,5.3501,5.3501,5.3501,5.3501,5.3501,5.3501,5.3501,5.3501,5.3501,5.3501,5.3501,5.3501,5.3501,5.3501,5.3501,5.3501,5.3501,5.3501,5.3501,5.3501,5.3501,5.3501,5.3501,5.3501,5.3501,5.3501,5.3501,5.3501,5.3501,5.3501,5.3501,5.3501,5.3501,5.3501,5.3501,5.3501,5.3501,5.3501,5.3501,5.3501,5.3501,5.3501,5.3501,5.3501,5.2639,5.1521,5.227,5.1682,5.0622,5.1361,5.1657,5.164,5.1438,5.1388,5.1403,5.1251,5.0794,5.0304,5.0304,4.9779,4.9221,4.9221,4.912,4.9001,4.9001,4.9001,4.8798,4.8047,4.7868,4.7655,4.6884,4.673,4.673,4.673,4.673,4.6365,4.5264,4.5079,4.4721,4.3732,4.3756,4.3795,4.363,4.3756,4.3795,4.3591,4.2968,4.259,4.259,4.1976,4.1324,4.0801,4.0651,4.0277,3.9634,3.9568,3.9544,3.9388,3.9388,3.9388,3.9388,3.9388,3.9388,5.3501,5.3501,5.3501,5.3501,5.3501,5.3501,0.0,5.3501,5.3501,5.3501,5.3501,5.3501,5.3501,5.3501,5.3501,5.3501,5.3501,5.3501,5.3501,5.3501,5.3501,5.3501,5.3501,5.3501,5.3501,5.3501,5.3501,5.3501,5.3501,5.3501,5.3501,5.3501,5.3501,5.3501,5.3501,5.3501,5.3501,5.3501,5.3501,5.3501,5.3501,5.3501,5.3501,5.3501,5.3501,5.3501,5.3501,5.3501,5.3501,5.3501,5.3501,5.3501,5.3501,5.3366,5.3213,5.3332,5.3247,5.3095,5.3213,5.3247,5.3129,5.2418,5.2181,5.2063,5.142,5.115,5.1099,5.1099,5.0557,4.9965,4.9965,4.9492,4.9001,4.9001,4.9001,4.897,4.8861,4.8829,4.8829,4.8719,4.8688,4.8688,4.8688,4.8688,4.8096,4.6314,4.6032,4.569,4.4759,4.5342,4.5561,4.4737,4.5379,4.5545,4.4699,4.375,4.3185,4.3185,4.2611,4.2246,4.2186,4.1617,4.0965,4.0307,4.0292,4.0008,3.9388,3.9388,3.9388,3.9388,3.9388,3.9388,5.3501,5.3501,5.3501,5.3501,5.3501,5.3501,5.3501,5.3501,5.3501,5.3501,5.3501,5.3501,5.3501,5.3501,5.3501,5.3501,5.3501,5.3501,5.3501,5.3501,5.3501,5.3501,5.3501,5.3501,5.3501,5.3501,5.3501,5.3501,5.3501,5.3501,5.3501,5.3501,5.3501,5.3501,5.3501,5.3501,5.3501,5.3501,5.3501,5.3501,5.3501,5.3501,5.3501,5.3501,5.3501,5.3501,5.3501,5.3501,5.3501,5.3501,5.3501,5.3501,5.3501,5.3501,5.3501,5.3501,5.3501,5.3501,5.3501,5.3501,5.345,5.3112,5.301,5.2942,5.2638,5.2215,5.1843,5.1843,5.1319,5.0642,5.0202,4.9864,4.9526,4.9103,4.9001,4.9001,4.9001,4.9001,4.9001,4.9001,4.9001,4.9001,4.9001,4.9001,4.8719,4.795,4.7373,4.6678,4.5742,4.5977,4.6048,4.567,4.5977,4.6048,4.5634,4.5232,4.5011,4.5011,4.4746,4.444,4.405,4.3239,4.2499,4.1826,4.1271,4.0831,4.0561,4.0172,3.9993,3.9978,3.9568,3.9388,5.3501,5.3501,5.3501,5.3501,5.3501,5.3501,5.3501,5.3501,5.3501,5.3501,5.3501,5.3501,5.3501,5.3501,5.3501,5.3501,5.3501,5.3501,5.3501,5.3501,5.3501,5.3501,5.3501,5.3501,5.3501,5.3501,5.3501,5.3501,5.3501,5.3501,5.3501,5.3501,5.3501,5.3501,5.3501,5.3501,5.3501,5.3501,5.3501,5.3501,5.3501,5.3501,5.3501,5.3501,5.3501,5.3501,5.3501,5.3501,5.3501,5.3501,5.3501,5.3501,5.3501,5.3501,5.3501,5.3501,5.3501,5.3501,5.3501,5.3501,5.3501,5.3501,5.3501,5.3501,5.3501,5.3095,5.2638,5.2638,5.2097,5.1386,5.0845,5.0557,5.0219,4.9475,4.9306,4.9255,4.9035,4.9001,4.9001,4.9001,4.9001,4.9001,4.9001,4.9001,4.9001,4.9001,4.8401,4.7655,4.6712,4.6609,4.6678,4.6952,4.6747,4.6609,4.6609,4.6349,4.6208,4.6208,4.6208,4.5984,4.5507,4.4824,4.4167,4.3478,4.2536,4.1971,4.179,4.104,4.0666,4.0651,3.9993,3.9694,5.3501,5.3501,5.3501,5.3501,5.3501,5.3501,5.3501,5.3501,5.3501,5.3501,5.3501,5.3501,5.3501,5.3501,5.3501,5.3501,5.3501,5.3501,5.3501,5.3501,5.3501,5.3501,5.3501,5.3501,5.3501,5.3501,5.3501,5.3501,5.3501,5.3501,5.3501,5.3501,5.3501,5.3501,5.3501,5.3501,5.3501,5.3501,5.3501,5.3501,5.3501,5.3501,5.3501,5.3501,5.3501,5.3501,5.3501,5.3501,5.3501,5.3501,5.3501,5.3501,5.3501,5.3501,5.3501,5.3501,5.3501,5.3501,5.3501,5.3501,5.3501,5.3501,5.3501,5.3501,5.3501,5.3484,5.3467,5.3467,5.2892,5.2266,5.2232,5.1708,5.0997,5.0236,5.005,4.9864,4.9154,4.9001,4.9001,4.9001,4.9001,4.9001,4.9001,4.9001,4.9001,4.9001,4.897,4.8625,4.7688,4.7556,4.7901,4.8829,4.8112,4.7556,4.7556,4.673,4.6208,4.6208,4.6208,4.6208,4.6176,4.6141,4.5805,4.5152,4.4203,4.3402,4.2771,4.1834,4.1354,4.1324,4.0681,4.0367,5.4106,5.3881,5.3501,5.3501,5.3501,5.3501,5.3501,5.3501,5.3501,5.3501,5.389,5.4228,5.4228,5.4228,5.4228,5.4228,5.3822,5.3501,5.3501,5.3501,5.3501,5.3501,5.3501,5.3501,5.3501,5.3501,5.3501,5.3501,5.3501,5.3501,5.3501,5.3501,5.3501,5.3501,5.3501,5.3501,5.3501,5.3501,5.3501,5.3501,5.3501,5.3501,5.3501,5.3501,5.3501,5.3501,5.3501,5.3501,5.3501,5.3501,5.3501,5.3501,5.3501,5.3501,5.3501,5.3501,5.3501,5.3501,5.3501,5.3501,5.3501,5.3501,5.3501,5.3501,5.3501,5.3501,5.3501,5.3501,5.3315,5.2976,5.2435,5.2131,5.1742,5.1014,5.0456,5.0016,4.9779,4.9357,4.9001,4.9001,4.9001,4.9001,4.9001,4.9001,4.9001,4.9001,4.9001,4.8892,4.8576,4.8545,4.8656,4.897,4.8719,4.8545,4.8545,4.8225,4.8047,4.8047,4.8047,4.8047,4.8047,4.744,4.7007,4.6812,4.5856,4.5286,4.5049,4.4287,4.3925,4.391,4.3219,4.2925,5.4154,5.3865,5.3501,5.3501,5.3501,5.3501,5.3501,5.3501,5.3501,5.3501,5.4093,5.4583,5.4583,5.482,5.4989,5.4989,5.46,5.4194,5.3923,5.389,5.3805,5.3534,5.3501,5.3501,5.3501,5.3501,5.3501,5.3501,5.3501,5.3501,5.3501,5.3501,5.3501,5.3501,5.3501,5.3501,5.3501,5.3501,5.3501,5.3501,5.3501,5.3501,5.3501,5.3501,5.3501,5.3501,5.3501,5.3501,5.3501,5.3501,5.3501,5.3501,5.3501,5.3501,5.3501,5.3501,5.3501,5.3501,5.3501,5.3501,5.3501,5.3501,5.3501,5.3501,5.3501,5.3501,5.3501,5.3501,5.3501,5.3382,5.2858,5.2739,5.2536,5.1775,5.1234,5.0727,5.0202,4.9729,4.9323,4.9052,4.9001,4.9001,4.9001,4.9001,4.9001,4.9001,4.9001,4.9001,4.9001,4.9001,4.9001,4.9001,4.9001,4.9001,4.9001,4.9001,4.9001,4.9001,4.9001,4.9001,4.9001,4.8401,4.808,4.808,4.7172,4.6712,4.6712,4.5934,4.5571,4.5555,4.485,4.4563,5.375,5.3534,5.3501,5.3501,5.3501,5.3501,5.3501,5.3501,5.3518,5.3551,5.4143,5.4668,5.4702,5.5294,5.5784,5.5784,5.57,5.5412,5.4685,5.4566,5.4279,5.3585,5.3501,5.3501,5.3501,5.3501,5.3501,5.3501,5.3501,5.3501,5.3501,5.3501,5.3501,5.3501,5.3501,5.3501,5.3501,5.3501,5.3501,5.3501,5.3501,5.3501,5.3501,5.3501,5.3501,5.3501,5.3501,5.3501,5.3501,5.3501,5.3501,5.3501,5.3501,5.3501,5.3501,5.3501,5.3501,5.3501,5.3501,5.3501,5.3501,5.3501,5.3501,5.3501,5.3501,5.3501,5.3501,5.3501,5.3501,5.3501,5.3501,5.3501,5.3315,5.2536,5.2334,5.1911,5.0456,5.0118,4.9864,4.9137,4.9001,4.9001,4.9001,4.9001,4.9001,4.9001,4.9001,4.9001,4.9001,4.9001,4.9001,4.9001,4.9001,4.9001,4.9001,4.9001,4.9001,4.9001,4.9001,4.9001,4.9001,4.9001,4.9001,4.9001,4.8129,4.7655,4.7655,4.6781,4.6349,4.6333,4.5693,4.5387,5.4218,5.3913,5.3501,5.3501,5.3501,5.3501,5.3501,5.3501,5.367,5.4211,5.4921,5.5598,5.6139,5.6393,5.6528,5.6528,5.5598,5.4803,5.4617,5.4126,5.3704,5.3518,5.3501,5.3501,5.3501,5.3501,5.3501,5.3501,5.3501,5.3501,5.3501,5.3501,5.3501,5.3501,5.3501,5.3501,5.3501,5.3501,5.3501,5.3501,5.3501,5.3501,5.3501,5.3501,5.3501,5.3501,5.3501,5.3501,5.3501,5.3501,5.3501,5.3501,5.3501,5.3501,5.3501,5.3501,5.3501,5.3501,5.3501,5.3501,5.3501,5.3501,5.3501,5.3501,5.3501,5.3501,5.3501,5.3501,5.3501,5.3501,5.3501,5.3501,5.345,5.3247,5.2739,5.2046,5.1133,5.049,4.9864,4.9137,4.9001,4.9001,4.9001,4.9001,4.9001,4.9001,4.9001,4.9001,4.9001,4.9001,4.9001,4.9001,4.9001,4.9001,4.9001,4.9001,4.9001,4.9001,4.9001,4.9001,4.9001,4.9001,4.9001,4.9001,4.875,4.8639,4.8639,4.8401,4.8289,4.8289,4.8105,4.8022,5.4106,5.3799,5.3501,5.3501,5.3501,5.3585,5.3907,5.3974,5.4194,5.4938,5.5683,5.6325,5.6731,5.7053,5.7273,5.7273,5.6308,5.5446,5.5124,5.4448,5.3856,5.3551,5.3501,5.3501,5.3501,5.3501,5.3501,5.3501,5.3501,5.3501,5.3501,5.3501,5.3501,5.3501,5.3501,5.3501,5.3501,5.3501,5.3501,5.3501,5.3501,5.3501,5.3501,5.3501,5.3501,5.3501,5.3501,5.3501,5.3501,5.3501,5.3501,5.3501,5.3501,5.3501,5.3501,5.3501,5.3501,5.3501,5.3501,5.3501,5.3501,5.3501,5.3501,5.3501,5.3501,5.3501,5.3501,5.3501,5.3501,5.3501,5.3501,5.3501,5.3501,5.3501,5.3162,5.2621,5.186,5.1116,5.027,4.9221,4.9001,4.9001,4.9001,4.9001,4.9001,4.9001,4.9001,4.9001,4.9001,4.9001,4.9001,4.9001,4.9001,4.9001,4.9001,4.9001,4.9001,4.9001,4.9001,4.9001,4.9001,4.9001,4.9001,4.9001,4.9001,4.9001,4.9001,4.9001,4.9001,4.9001,4.9001,4.9001,5.3668,5.3501,5.3501,5.3501,5.3501,5.3687,5.4431,5.4583,5.4837,5.5683,5.6359,5.6833,5.6934,5.7459,5.7865,5.7763,5.7137,5.641,5.5666,5.4921,5.4211,5.3585,5.3501,5.3501,5.3501,5.3501,5.3501,5.3501,5.3501,5.3501,5.3501,5.3501,5.3501,5.3501,5.3501,5.3501,5.3501,5.3501,5.3501,5.3501,5.3501,5.3501,5.3501,5.3501,5.3501,5.3501,5.3501,5.3501,5.3501,5.3501,5.3501,5.3501,5.3501,5.3501,5.3501,5.3501,5.3501,5.3501,5.3501,5.3501,5.3501,5.3501,5.3501,5.3501,5.3501,5.3501,5.3501,5.3501,5.3501,5.3501,5.3501,5.3501,5.3501,5.3501,5.3501,5.3281,5.2469,5.1657,5.0693,4.939,4.9069,4.9001,4.9001,4.9001,4.9001,4.9001,4.9001,4.9001,4.9001,4.9001,4.9001,4.9001,4.9001,4.9001,4.9001,4.9001,4.9001,4.9001,4.9001,4.9001,4.9001,4.9001,4.9001,4.9001,4.9001,4.9001,4.9001,4.9001,4.9001,4.9001,4.9001,4.9001,5.3534,5.3501,5.3501,5.3501,5.3501,5.3687,5.4431,5.4583,5.4972,5.6325,5.6714,5.6985,5.7594,5.7797,5.7695,5.7087,5.6376,5.5632,5.4888,5.416,5.3653,5.3518,5.3501,5.3501,5.3501,5.3501,5.3501,5.3501,5.3501,5.3501,5.3501,5.3501,5.3501,5.3501,5.3501,5.3501,5.3501,5.3501,5.3501,5.3501,5.3501,5.3501,5.3501,5.3501,5.3501,5.3501,5.3501,5.3501,5.3501,5.3501,5.3501,5.3501,5.3501,5.3501,5.3501,5.3501,5.3501,5.3501,5.3501,5.3501,5.3501,5.3501,5.3501,5.3501,5.3501,5.3501,5.3501,5.3501,5.3501,5.3501,5.3501,5.3501,5.3501,5.3501,5.3501,5.3281,5.2469,5.1234,5.0219,4.9949,4.9424,4.9001,4.9001,4.9001,4.9001,4.9001,4.9001,4.9001,4.9001,4.9001,4.9001,4.9001,4.9001,4.9001,4.9001,4.9001,4.9001,4.9001,4.9001,4.9001,4.9001,4.9001,4.9001,4.9001,4.9001,4.9001,4.9001,4.9001,4.9001,4.9001,4.9001,4.9001,5.3501,5.3501,5.3501,5.3501,5.3501,5.3788,5.4921,5.5175,5.5598,5.707,5.707,5.7019,5.7746,5.7577,5.7205,5.6867,5.619,5.5446,5.4702,5.3957,5.3501,5.3501,5.3501,5.3501,5.3501,5.3501,5.3501,5.3501,5.3501,5.3501,5.3501,5.3501,5.3501,5.3501,5.3501,5.3501,5.3501,5.3501,5.3501,5.3501,5.3501,5.3501,5.3501,5.3501,5.3501,5.3501,5.3501,5.3501,5.3501,5.3501,5.3501,5.3501,5.3501,5.3501,5.3501,5.3501,5.3501,5.3501,5.3501,5.3501,5.3501,5.3501,5.3501,5.3501,5.3501,5.3501,5.3501,5.3501,5.3501,5.3501,5.3501,5.3501,5.3501,5.3501,5.3501,5.3281,5.2469,5.1437,5.0557,5.0168,4.9509,4.9001,4.9001,4.9001,4.9001,4.9001,4.9001,4.9001,4.9001,4.9001,4.9001,4.9001,4.9001,4.9001,4.9001,4.9001,4.9001,4.9001,4.9001,4.9001,4.9001,4.9001,4.9001,4.9001,4.9001,4.9001,4.9001,4.9001,4.9001,4.9001,4.9001,4.9001,5.3501,5.3501,5.3501,5.3501,5.3501,5.3839,5.5175,5.548,5.5852,5.7154,5.6968,5.6748,5.7306,5.6951,5.6511,5.6359,5.5852,5.5209,5.4465,5.3873,5.3501,5.3501,5.3501,5.3501,5.3501,5.3501,5.3501,5.3501,5.3501,5.3501,5.3501,5.3501,5.3501,5.3501,5.3501,5.3501,5.3501,5.3501,5.3501,5.3501,5.3501,5.3501,5.3501,5.3501,5.3501,5.3501,5.3501,5.3501,5.3501,5.3501,5.3501,5.3501,5.3501,5.3501,5.3501,5.3501,5.3501,5.3501,5.3501,5.3501,5.3501,5.3501,5.3501,5.3501,5.3501,5.3501,5.3501,5.3501,5.3501,5.3501,5.3501,5.3501,5.3501,5.3501,5.3501,5.3331,5.2689,5.1978,5.1234,5.0473,4.9729,4.9187,4.9035,4.9001,4.9001,4.9001,4.9001,4.9001,4.9001,4.9001,4.9001,4.9001,4.9001,4.9001,4.9001,4.9001,4.9001,4.9001,4.9001,4.9001,4.9001,4.9001,4.9001,4.9001,4.9001,4.9001,4.9001,4.9001,4.9001,4.9001,4.9001,4.9001,5.3501,5.3501,5.3501,5.3501,5.3501,5.3721,5.4515,5.4685,5.4921,5.575,5.5869,5.58,5.5902,5.5869,5.5598,5.4905,5.4735,5.4431,5.3704,5.3551,5.3501,5.3501,5.3501,5.3501,5.3501,5.3501,5.3501,5.3501,5.3501,5.3501,5.3501,5.3501,5.3501,5.3501,5.3501,5.3501,5.3501,5.3501,5.3501,5.3501,5.3501,5.3501,5.3501,5.3501,5.3501,5.3501,5.3501,5.3501,5.3501,5.3501,5.3501,5.3501,5.3501,5.3501,5.3501,5.3501,5.3501,5.3501,5.3501,5.3501,5.3501,5.3501,5.3501,5.3501,5.3501,5.3501,5.3501,5.3501,5.3501,5.3501,5.3501,5.3501,5.3501,5.3501,5.3501,5.3484,5.3416,5.2756,5.1978,5.1251,5.0507,4.9779,4.912,4.9001,4.9001,4.9001,4.9001,4.9001,4.9001,4.9001,4.9001,4.9001,4.9001,4.9001,4.9001,4.9001,4.9001,4.9001,4.9001,4.9001,4.9001,4.9001,4.9001,4.9001,4.9001,4.9001,4.9001,4.9001,4.9001,4.9001,4.9001,4.9001,5.3501,5.3501,5.3501,5.3501,5.3501,5.3687,5.4431,5.4583,5.4803,5.5564,5.5361,5.5175,5.5632,5.5344,5.4938,5.4634,5.4583,5.4329,5.3602,5.3501,5.3501,5.3501,5.3501,5.3501,5.3501,5.3501,5.3501,5.3501,5.3501,5.3501,5.3501,5.3501,5.3501,5.3501,5.3501,5.3501,5.3501,5.3501,5.3501,5.3501,5.3501,5.3501,5.3501,5.3501,5.3501,5.3501,5.3501,5.3501,5.3501,5.3501,5.3501,5.3501,5.3501,5.3501,5.3501,5.3501,5.3501,5.3501,5.3501,5.3501,5.3501,5.3501,5.3501,5.3501,5.3501,5.3501,5.3501,5.3501,5.3501,5.3501,5.3501,5.3501,5.3501,5.3501,5.3501,5.3501,5.3501,5.2875,5.2215,5.1928,5.0913,4.9999,4.9712,4.9289,4.9001,4.9001,4.9001,4.9001,4.9001,4.9001,4.9001,4.9001,4.9001,4.9001,4.9001,4.9001,4.9001,4.9001,4.9001,4.9001,4.9001,4.9001,4.9001,4.9001,4.9001,4.9001,4.9001,4.9001,4.9001,4.9001,4.9001,4.9001,5.3501,5.3501,5.3501,5.3501,5.3501,5.3636,5.416,5.4262,5.4414,5.4955,5.4634,5.4431,5.4955,5.4634,5.4262,5.4262,5.4262,5.4093,5.3568,5.3501,5.3501,5.3501,5.3501,5.3501,5.3501,5.3501,5.3501,5.3501,5.3501,5.3584,5.3799,5.3618,5.3501,5.3501,5.3501,5.3501,5.3501,5.3501,5.3501,5.3501,5.3501,5.3501,5.3501,5.3501,5.3501,5.3501,5.3501,5.3501,5.3501,5.3501,5.3501,5.3501,5.3501,5.3501,5.3501,5.3501,5.3501,5.3501,5.3501,5.3501,5.3501,5.3501,5.3501,5.3501,5.3501,5.3501,5.3501,5.3501,5.3501,5.3501,5.3501,5.3501,5.3501,5.3501,5.3501,5.3501,5.3501,5.3061,5.2587,5.235,5.1454,5.0676,5.0456,4.9813,4.9323,4.9323,4.9137,4.9001,4.9001,4.9001,4.9001,4.9001,4.9001,4.9001,4.9001,4.9001,4.9001,4.9001,4.9001,4.9001,4.9001,4.9001,4.9001,4.9001,4.9001,4.9001,4.9001,4.9001,4.9001,4.9001,4.9001,4.9001,5.3501,5.3501,5.3501,5.3501,5.3501,5.3501,5.3518,5.3518,5.3518,5.3518,5.3518,5.3518,5.3518,5.3518,5.3518,5.3518,5.3518,5.3518,5.3501,5.3501,5.3501,5.3501,5.3501,5.3501,5.3501,5.3501,5.3501,5.3501,5.3501,5.3799,5.4558,5.3881,5.3501,5.3501,5.3501,5.3501,5.3501,5.3501,5.3501,5.3501,5.3501,5.3501,5.3501,5.3501,5.3501,5.3501,5.3501,5.3501,5.3501,5.3501,5.3501,5.3501,5.3501,5.3501,5.3501,5.3501,5.3501,5.3501,5.3501,5.3501,5.3501,5.3501,5.3501,5.3501,5.3501,5.3501,5.3501,5.3501,5.3501,5.3501,5.3501,5.3501,5.3501,5.3501,5.3501,5.3501,5.3501,5.3501,5.3264,5.2452,5.2283,5.2046,5.1319,5.0574,5.0084,5.0084,4.9458,4.9001,4.9001,4.9001,4.9001,4.9001,4.9001,4.9001,4.9001,4.9001,4.9001,4.9001,4.9001,4.9001,4.9001,4.9001,4.9001,4.9001,4.9001,4.9001,4.9001,4.9001,4.9001,4.9001,4.9001,4.9001,5.3501,5.3501,5.3501,5.3501,5.3501,5.3501,5.3501,5.3501,5.3501,5.3501,5.3501,5.3501,5.3501,5.3501,5.3501,5.3501,5.3501,5.3501,5.3501,5.3501,5.3501,5.3501,5.3501,5.3501,5.3501,5.3501,5.3501,5.3501,5.3501,5.3832,5.4558,5.4374,5.4232,5.4232,5.375,5.3501,5.3501,5.3501,5.3501,5.3501,5.3501,5.3501,5.3534,5.4027,5.3962,5.3534,5.4009,5.3979,5.3501,5.3501,5.3501,5.3501,5.3501,5.3501,5.3501,5.3501,5.3501,5.3501,5.3501,5.3501,5.3501,5.3501,5.3501,5.3501,5.3501,5.3501,5.3501,5.3501,5.3501,5.3501,5.3501,5.3501,5.3501,5.3501,5.3501,5.3501,5.3501,5.3501,5.3433,5.3179,5.2689,5.2232,5.1995,5.1352,5.0676,5.0168,4.9898,4.956,4.9069,4.9001,4.9001,4.9001,4.9001,4.9001,4.9001,4.9001,4.9001,4.9001,4.9001,4.9001,4.9001,4.9001,4.9001,4.9001,4.9001,4.9001,4.9001,4.9001,4.9001,4.9001,4.9001,4.9001,5.3501,5.3501,5.3501,5.3501,5.3501,5.3501,5.3501,5.3501,5.3501,5.3501,5.3501,5.3501,5.3501,5.3501,5.3501,5.3501,5.3501,5.3501,5.3501,5.3501,5.3501,5.3501,5.3501,5.3501,5.3501,5.3501,5.3501,5.3501,5.3501,5.3832,5.4558,5.4589,5.4726,5.5012,5.4296,5.3913,5.3913,5.3634,5.3501,5.3501,5.3501,5.3501,5.3534,5.4264,5.4342,5.3946,5.4405,5.4342,0.0,5.3618,5.3501,5.3534,5.3799,5.3913,5.3913,5.3913,5.3913,5.3898,5.3584,5.3501,5.3501,5.3501,5.3501,5.3501,5.3501,5.3501,5.3501,5.3501,5.3501,5.3501,5.3501,5.3501,5.3501,5.3501,5.3501,5.3501,5.3501,5.3501,5.3501,5.3501,5.3095,5.2756,5.2756,5.2131,5.1471,5.0997,5.0693,5.0253,4.9509,4.9424,4.9306,4.9035,4.9001,4.9001,4.9001,4.9001,4.9001,4.9001,4.9001,4.9001,4.9001,4.9001,4.9001,4.9001,4.9001,4.9001,4.9001,4.9001,4.9001,4.9001,4.9001,4.9001,0.0,5.3501,5.3501,5.3501,5.3501,5.3501,5.3501,5.3501,0.0,5.3501,5.3501,5.3501,5.3501,5.3501,5.3501,5.3501,5.3501,5.3501,5.3501,5.3501,5.3501,5.3501,5.3501,5.3501,5.3501,5.3501,5.3501,5.3501,5.3501,5.3832,5.4651,5.4682,5.5042,5.5819,5.5161,5.4713,5.4589,5.3848,5.3501,5.3501,5.3501,5.3534,5.3618,5.4342,5.4682,5.4682,5.4682,5.4651,5.4527,5.3799,5.3501,5.3584,5.431,5.4589,5.4589,5.4589,5.4589,5.4482,5.375,5.3501,5.3501,5.3551,5.3517,5.3501,5.3551,5.3534,5.3501,5.3501,5.3501,5.3501,5.3501,5.3501,5.3501,5.3501,5.3501,5.3501,5.3501,5.3501,5.3501,5.3501,5.3501,5.3501,5.3501,5.2892,5.2367,5.2317,5.1725,5.1014,5.027,5.0118,4.983,4.9154,4.9035,4.9001,4.9001,4.9001,4.9001,4.9001,4.9001,4.9001,4.9001,4.9001,4.9001,4.9001,4.9001,4.9001,4.9001,4.9001,4.9001,4.9001,4.9001,4.9001,5.3501,0.0,5.3501,5.3501,5.3501,5.3501,0.0,5.3501,5.3501,5.3501,5.3501,5.3501,5.3501,5.3501,5.3501,5.3501,5.3501,5.3501,5.3501,5.3501,5.3501,5.3501,5.3501,5.3501,5.3501,5.3501,5.3501,5.3501,5.3501,5.4059,5.5379,5.5419,5.6059,5.7431,5.6729,5.577,5.462,5.3848,5.3501,5.3501,5.3501,5.3816,5.4374,5.5102,5.5419,5.5419,5.5419,5.5114,5.4527,5.3799,5.3501,5.3584,5.431,5.4589,5.4589,5.4589,5.4589,5.4482,5.375,5.3501,5.3584,5.4154,5.3962,5.3618,5.4154,5.3946,5.3501,5.3501,5.3501,5.3501,5.3501,5.3501,5.3501,5.3501,5.3501,5.3501,5.3501,5.3501,5.3501,5.3501,5.3501,5.3501,5.3501,5.3348,5.301,5.2384,5.2147,5.1792,5.1048,5.0439,5.0016,4.9847,4.934,4.9001,4.9001,4.9001,4.9001,4.9001,4.9001,4.9001,4.9001,4.9001,4.9001,4.9001,4.9001,4.9001,4.9001,4.9001,4.9001,4.9001,4.9001,4.9001,5.3501,5.3501,5.3501,5.3501,5.3501,5.3501,5.3501,5.3501,5.3501,5.3501,5.3501,5.3618,5.3929,5.3717,5.3734,5.4391,5.3946,5.3501,5.3501,5.3501,5.3501,5.3501,5.3501,5.3501,5.3501,5.3501,5.3501,5.3501,5.3799,5.4359,5.5144,5.5882,5.6624,5.7474,5.7109,5.6331,5.5131,5.4374,5.3832,5.3501,5.3832,5.4218,5.4651,5.5741,5.6259,5.6259,5.6259,5.5808,5.5072,5.4651,5.4296,5.4106,5.5208,5.5674,5.5674,5.5674,5.5425,5.5012,5.4264,5.3766,5.3568,5.3979,5.4042,5.4074,5.4482,5.431,5.3929,5.3584,5.3501,5.3501,5.3501,5.3501,5.3501,5.3501,5.3501,5.3501,5.3501,5.3501,5.3501,5.3501,5.3501,5.3501,5.3501,5.3501,5.3348,5.2926,5.2858,5.257,5.1809,5.1352,5.098,5.0642,4.9932,4.9509,4.9509,4.9187,4.9001,4.9001,4.9001,4.9001,4.9001,4.9001,4.9001,4.9001,4.9001,4.9001,4.9001,4.9001,4.9001,4.9001,4.9001,4.9001,5.3501,5.3501,5.3501,5.3501,5.3501,5.3501,5.3501,5.3501,5.3501,5.3501,5.3584,5.3832,5.4359,5.4106,5.4203,5.535,5.4499,5.3651,5.3534,5.3501,5.3501,5.3501,5.3501,5.3501,5.3501,5.3501,5.3501,5.3501,5.4186,5.4651,5.4757,5.6122,5.6964,5.7065,5.7083,5.6695,5.5893,5.5042,5.4296,5.3668,5.4296,5.4651,5.4818,5.6249,5.6964,5.7065,5.6938,5.6421,5.5706,5.5706,5.5262,5.4757,5.6304,5.6912,5.6912,5.6912,5.6465,5.5752,5.4909,5.4186,5.3668,5.3668,5.4074,5.462,5.4726,5.4757,5.4651,5.3994,5.3668,5.3534,5.3634,5.3584,5.3568,5.3783,5.375,5.3668,5.3668,5.3668,5.3634,5.3534,5.3501,5.3501,5.3501,5.3501,5.3501,5.3501,5.3501,5.3264,5.257,5.2384,5.2063,5.1454,5.071,5.027,5.027,4.9593,4.9171,4.9171,4.9069,4.9001,4.9001,4.9001,4.9001,4.9001,4.9001,4.9001,4.9001,4.9001,4.9001,4.9001,4.9001,4.9001,5.3501,5.3501,5.3501,5.3501,5.3501,5.3501,5.3501,5.3501,5.3501,5.3501,5.3994,5.4264,5.375,5.4606,5.5232,5.4848,5.4589,5.4218,5.3584,5.3501,5.3501,5.3501,5.3501,5.3501,5.3501,5.3501,5.3501,5.3501,5.4186,5.4878,5.5495,5.6412,5.7184,5.7797,5.7839,5.7474,5.6721,5.5309,5.4527,5.4419,5.4544,5.4939,5.5581,5.6465,5.7234,5.7815,5.7184,5.6421,5.5706,5.5706,5.5262,5.4757,5.6304,5.6912,5.6912,5.6912,5.6817,5.6492,5.5089,5.4544,5.4419,5.4419,5.4513,5.4713,5.535,5.5535,5.5524,5.5379,5.4468,5.3634,5.4264,5.3979,5.3799,5.5089,5.4878,5.4419,5.4419,5.4419,5.4232,5.3601,5.3501,5.3501,5.3501,5.3501,5.3501,5.3501,5.3501,5.3467,5.3331,5.2723,5.2266,5.2147,5.1488,5.1048,5.1048,5.0355,4.9915,4.9915,4.9357,4.9001,4.9001,4.9001,4.9001,4.9001,4.9001,4.9001,4.9001,4.9001,4.9001,4.9001,4.9001,4.9001,5.3501,5.3501,5.3501,5.3501,5.3501,5.3501,5.3501,5.3501,5.3618,5.4027,5.4374,5.4743,5.5255,5.5541,5.5592,5.5262,5.557,5.557,5.4805,5.4359,5.4106,5.4106,5.375,5.3668,5.4059,5.3717,5.3832,5.4637,5.4982,5.5524,5.6313,5.7091,5.7637,5.7997,5.7997,5.7839,5.7516,5.6412,5.5425,5.462,5.5425,5.5798,5.5734,5.6953,5.7679,5.7973,5.7637,5.6807,5.5734,5.6159,5.591,5.5291,5.6438,5.7134,5.7449,5.7058,5.6912,5.6739,5.5581,5.5203,5.5203,5.5203,5.5483,5.59,5.6259,5.634,5.634,5.634,5.5541,5.4774,5.5102,5.4939,5.4866,5.5552,5.5419,5.5203,5.5203,5.4878,5.4513,5.4154,5.3783,5.3501,5.3501,5.3501,5.3501,5.3501,5.3501,5.3501,5.3501,5.3179,5.2959,5.2959,5.2266,5.1792,5.1792,5.1133,5.0355,4.956,4.9187,4.9001,4.9001,4.9001,4.9001,4.9001,4.9001,4.9001,4.9001,4.9001,4.9001,4.9001,4.9001,4.9001,5.3501,5.3501,5.3501,5.3501,5.3501,5.3501,5.3501,5.3501,5.3668,5.4249,5.462,5.5161,5.6195,5.6132,5.5976,5.5976,5.6492,5.6616,5.5791,5.5203,5.4848,5.4848,5.4218,5.4059,5.4787,5.4186,5.4296,5.5592,5.5865,5.6259,5.6861,5.7589,5.7997,5.7997,5.7997,5.7997,5.7997,5.7449,5.6367,5.4861,5.6249,5.6492,5.5734,5.7315,5.7997,5.7997,5.7997,5.713,5.5762,5.6747,5.6598,5.5808,5.6773,5.7498,5.7932,5.7376,5.7159,5.704,5.6241,5.5976,5.5948,5.5762,5.6241,5.6912,5.6912,5.7015,5.7159,5.7159,5.6703,5.6196,5.6031,5.5836,5.5791,5.6141,5.6114,5.5976,5.5976,5.5541,5.5089,5.4891,5.4264,5.375,5.375,5.3618,5.3501,5.3501,5.3501,5.3501,5.3501,5.3501,5.3501,5.3501,5.2959,5.2503,5.2317,5.1792,5.0913,4.961,4.9357,4.9187,4.9018,4.9001,4.9001,4.9001,4.9001,4.9001,4.9001,4.9001,4.9001,4.9001,4.9001,4.9001,5.3501,5.3501,5.3501,5.3501,5.3501,5.3501,5.3501,5.3501,5.3501,5.3551,5.4668,5.5437,5.4878,5.59,5.6817,5.6817,5.6861,5.6616,5.5791,5.5649,5.5621,5.5621,5.4952,5.4818,5.5535,5.4952,5.4848,5.5649,5.6394,5.6843,5.6887,5.7589,5.7997,5.7997,5.7997,5.7997,5.7997,5.795,5.7148,5.5621,5.6492,5.6492,5.5734,5.7315,5.7997,5.7997,5.7997,5.713,5.5819,5.7315,5.7054,5.5865,5.734,5.795,5.7997,5.795,5.7909,5.7797,5.7065,5.6817,5.6695,5.5948,5.6241,5.6912,5.6912,5.7376,5.7909,5.7909,5.7886,5.7684,5.6989,5.6259,5.6059,5.748,5.7309,5.6817,5.6817,5.6765,5.6492,5.578,5.5012,5.4513,5.4513,5.3929,5.3501,5.3501,5.3501,5.3501,5.3501,5.3501,5.3501,5.3501,5.345,5.3112,5.2367,5.2249,5.1894,5.1099,5.0405,4.9712,4.9035,4.9001,4.9001,4.9001,4.9001,4.9001,4.9001,4.9001,4.9001,4.9001,4.9001,4.9001,5.3501,5.3501,5.3501,5.3501,5.3501,5.3501,5.3501,5.3501,5.375,5.4699,5.532,5.592,5.6606,5.7191,5.7589,5.7589,5.7589,5.7474,5.7173,5.6729,5.6438,5.6438,5.577,5.5581,5.6367,5.5724,5.5808,5.7054,5.6997,5.7109,5.7565,5.7862,5.7997,5.7997,5.7997,5.7997,5.7997,5.7997,5.7223,5.5724,5.6978,5.6927,5.5734,5.7315,5.7997,5.7997,5.7997,5.713,5.5762,5.6876,5.6677,5.5847,5.7389,5.7997,5.7997,5.7997,5.7997,5.7973,5.7679,5.7589,5.7522,5.7223,5.734,5.7589,5.7589,5.7774,5.7997,5.7997,5.7997,5.795,5.7679,5.7358,5.729,5.7862,5.7774,5.7589,5.7589,5.7234,5.6817,5.6492,5.5826,5.5291,5.5291,5.5042,5.4713,5.4232,5.4186,5.4027,5.3568,5.3501,5.3501,5.3501,5.3501,5.3382,5.3078,5.3061,5.2723,5.1944,5.12,5.0456,4.9712,4.9678,4.9475,4.9018,4.9001,4.9001,4.9001,4.9001,4.9001,4.9001,4.9001,4.9001,5.3501,5.3501,5.3501,5.3501,5.3668,5.3865,5.3865,5.3865,5.4139,5.5144,5.5752,5.6456,5.7774,5.7997,5.7997,5.7997,5.7997,5.7997,5.7997,5.7565,5.7234,5.7234,5.6571,5.6394,5.7184,5.6545,5.6606,5.7909,5.7522,5.7474,5.7973,5.7997,5.7997,5.7997,5.7997,5.7997,5.7997,5.7997,5.734,5.6104,5.7364,5.7198,5.5734,5.7315,5.7997,5.7997,5.7997,5.7266,5.6132,5.692,5.6927,5.6536,5.7594,5.7997,5.7997,5.7997,5.7997,5.7997,5.7997,5.7997,5.7997,5.7997,5.7997,5.7997,5.7997,5.7997,5.7997,5.7997,5.7997,5.7997,5.7997,5.7997,5.7997,5.7997,5.7997,5.7997,5.7997,5.7613,5.7234,5.7234,5.6624,5.6077,5.6077,5.5865,5.5535,5.5012,5.4757,5.4437,5.3913,5.3634,5.3501,5.3501,5.3501,5.3501,5.3501,5.3501,5.3264,5.2706,5.2215,5.1488,5.049,5.0439,5.0101,4.9357,4.9357,4.9238,4.9001,4.9001,4.9001,4.9001,4.9001,4.9001,5.3501,5.3501,5.3501,5.3501,5.4042,5.4589,5.462,5.462,5.462,5.462,5.5844,5.7134,5.7862,5.7997,5.7997,5.7997,5.7997,5.7997,5.7997,5.7997,5.7997,5.7997,5.7351,5.7209,5.7932,5.7351,5.7209,5.795,5.7997,5.7997,5.7997,5.7997,5.7997,5.7997,5.7997,5.7997,5.7997,5.7997,5.7637,5.6912,5.7637,5.7198,5.5762,5.7315,5.7997,5.7997,5.7997,5.7589,5.6964,5.7703,5.7997,5.7997,5.7997,5.7997,5.7997,5.7997,5.7997,5.7997,5.7997,5.7997,5.7997,5.7997,5.7997,5.7997,5.7997,5.7997,5.7997,5.7997,5.7997,5.7997,5.7997,5.7997,5.7997,5.7997,5.7997,5.7997,5.7997,5.7997,5.7997,5.7997,5.7401,5.6912,5.6912,5.6259,5.5706,5.5706,5.5102,5.462,5.4589,5.3979,5.3501,5.3501,5.3501,5.3501,5.3501,5.3501,5.3501,5.3501,5.3501,5.2824,5.1252,5.1202,5.0879,5.0118,5.0101,4.9746,4.9018,4.9018,4.9018,4.9001,4.9001,4.9001,5.3501,5.3501,5.3601,5.4121,5.4437,5.4726,5.5262,5.5379,5.5524,5.6095,5.6997,5.775,5.7973,5.7997,5.7997,5.7997,5.7997,5.7997,5.7997,5.7997,5.7997,5.7997,5.7815,5.775,5.7973,5.7797,5.775,5.7973,5.7997,5.7997,5.7997,5.7997,5.7997,5.7997,5.7997,5.7997,5.7997,5.7997,5.7637,5.6912,5.7637,5.7498,5.6589,5.7546,5.7997,5.7997,5.7997,5.7589,5.6912,5.7134,5.7522,5.7997,5.7997,5.7997,5.7997,5.7997,5.7997,5.7997,5.7997,5.7997,5.7997,5.7997,5.7997,5.7997,5.7997,5.7997,5.7997,5.7997,5.7997,5.7997,5.7997,5.7997,5.7997,5.7997,5.7997,5.7997,5.7997,5.7997,5.7997,5.7997,5.7821,5.766,5.766,5.7498,5.7148,5.6624,5.6358,5.5844,5.4743,5.3979,5.3501,5.3501,5.3962,5.4042,5.3517,5.3962,5.4264,5.4264,5.4264,5.358,5.2045,5.1978,5.164,5.0896,5.0879,5.0507,4.9763,4.9763,4.9509,4.9001,4.9001,4.9001,5.3501,5.3717,5.4042,5.4482,5.5059,5.5713,5.6456,5.6376,5.6394,5.7166,5.7703,5.7997,5.7997,5.7997,5.7997,5.7997,5.7997,5.7997,5.7997,5.7997,5.7997,5.7997,5.7997,5.7997,5.7997,5.7997,5.7997,5.7997,5.7997,5.7997,5.7997,5.7997,5.7997,5.7997,5.7997,5.7997,5.7997,5.7997,5.7774,5.7333,5.7774,5.7774,5.7351,5.7815,5.7997,5.7997,5.7997,5.775,5.7351,5.7351,5.7589,5.7997,5.7997,5.7997,5.7997,5.7997,5.7997,5.7997,5.7997,5.7997,5.7997,5.7997,5.7997,5.7997,5.7997,5.7997,5.7997,5.7997,5.7997,5.7997,5.7997,5.7997,5.7997,5.7997,5.7997,5.7997,5.7997,5.7997,5.7997,5.7997,5.7997,5.7997,5.7997,5.7997,5.7862,5.7401,5.7109,5.6438,5.5191,5.4668,5.4359,5.4359,5.4774,5.4848,5.4422,5.4774,5.5042,5.5042,5.5042,5.4622,5.3698,5.3649,5.3287,5.2576,5.2559,5.2179,5.145,5.145,5.0909,4.9911,4.9911,4.9593,5.3584,5.4074,5.462,5.4757,5.591,5.7184,5.7839,5.7474,5.7184,5.7862,5.7997,5.7997,5.7997,5.7997,5.7997,5.7997,5.7997,5.7997,5.7997,5.7997,5.7997,5.7997,5.7997,5.7997,5.7997,5.7997,5.7997,5.7997,5.7997,5.7997,5.7997,5.7997,5.7997,5.7997,5.7997,5.7997,5.7997,5.7997,5.7997,5.7997,5.7997,5.7997,5.7997,5.7997,5.7997,5.7997,5.7997,5.7997,5.7997,5.7997,5.7997,5.7997,5.7997,5.7997,5.7997,5.7997,5.7997,5.7997,5.7997,5.7997,5.7997,5.7997,5.7997,5.7997,5.7997,5.7997,5.7997,5.7997,5.7997,5.7997,5.7997,5.7997,5.7997,5.7997,5.7997,5.7997,5.7997,5.7997,5.7997,5.7997,5.7997,5.7997,5.7997,5.7997,5.7997,5.7997,5.7376,5.6642,5.5893,5.5752,5.5706,5.5706,5.578,5.5762,5.5706,5.578,5.5808,5.5808,5.5808,5.5819,5.592,5.5762,5.537,5.4717,5.4699,5.4327,5.3592,5.3592,5.2876,5.1517,5.1431,5.0646,5.4218,5.4482,5.4878,5.6095,5.7091,5.7797,5.7955,5.7886,5.7815,5.7973,5.7997,5.7997,5.7997,5.7997,5.7997,5.7997,5.7997,5.7997,5.7997,5.7997,5.7997,5.7997,5.7997,5.7997,5.7997,5.7997,5.7997,5.7997,5.7997,5.7997,5.7997,5.7997,5.7997,5.7997,5.7997,5.7997,5.7997,5.7997,5.7997,5.7997,5.7997,5.7997,5.7997,5.7997,5.7997,5.7997,5.7997,5.7997,5.7997,5.7997,5.7997,5.7997,5.7997,5.7997,5.7997,5.7997,5.7997,5.7997,5.7997,5.7997,5.7997,5.7997,5.7997,5.7997,5.7997,5.7997,5.7997,5.7997,5.7997,5.7997,5.7997,5.7997,5.7997,5.7997,5.7997,5.7997,5.7997,5.7997,5.7997,5.7997,5.7997,5.7997,5.7997,5.7997,5.7997,5.7997,5.7376,5.6835,5.6668,5.6104,5.5706,5.5706,5.6259,5.6385,5.5734,5.6286,5.6642,5.6642,5.6642,5.692,5.748,5.6331,5.5635,5.5458,5.5458,5.5097,5.4345,5.4345,5.39,5.2994,5.2439,5.1978,5.3962,5.4606,5.5495,5.7047,5.7726,5.7997,5.7997,5.7997,5.7997,5.7997,5.7997,5.7997,5.7997,5.7997,5.7997,5.7997,5.7997,5.7997,5.7997,5.7997,5.7997,5.7997,5.7997,5.7997,5.7997,5.7997,5.7997,5.7997,5.7997,5.7997,5.7997,5.7997,5.7997,5.7997,5.7997,5.7997,5.7997,5.7997,5.7997,5.7997,5.7997,5.7997,5.7997,5.7997,5.7997,5.7997,5.7997,5.7997,5.7997,5.7997,5.7997,5.7997,5.7997,5.7997,5.7997,5.7997,5.7997,5.7997,5.7997,5.7997,5.7997,5.7997,5.7997,5.7997,5.7997,5.7997,5.7997,5.7997,5.7997,5.7997,5.7997,5.7997,5.7997,5.7997,5.7997,5.7997,5.7997,5.7997,5.7997,5.7997,5.7997,5.7997,5.7997,5.7997,5.7997,5.7997,5.766,5.7425,5.7425,5.7073,5.6789,5.6789,5.7191,5.7241,5.6858,5.7191,5.7425,5.7425,5.7425,5.7589,5.7973,5.7223,5.6789,5.6789,5.6789,5.6616,5.6227,5.6227,5.5659,5.4577,5.4207,5.3639,5.3668,5.4791,5.6223,5.766,5.7997,5.7997,5.7997,5.7997,5.7997,5.7997,5.7997,5.7997,5.7997,5.7997,5.7997,5.7997,5.7997,5.7997,5.7997,5.7997,5.7997,5.7997,5.7997,5.7997,5.7997,5.7997,5.7997,5.7997,5.7997,5.7997,5.7997,5.7997,5.7997,5.7997,5.7997,5.7997,5.7997,5.7997,5.7997,5.7997,5.7997,5.7997,5.7997,5.7997,5.7997,5.7997,5.7997,5.7997,5.7997,5.7997,5.7997,5.7997,5.7997,5.7997,5.7997,5.7997,5.7997,5.7997,5.7997,5.7997,5.7997,5.7997,5.7997,5.7997,5.7997,5.7997,5.7997,5.7997,5.7997,5.7997,5.7997,5.7997,5.7997,5.7997,5.7997,5.7997,5.7997,5.7997,5.7997,5.7997,5.7997,5.7997,5.7997,5.7997,5.7997,5.7997,5.7997,5.7997,5.7997,5.7997,5.7997,5.7997,5.7997,5.7997,5.7997,5.7997,5.7997,5.7997,5.7997,5.7997,5.7997,5.7997,5.7997,5.7997,5.7997,5.7997,5.7997,5.7997,5.7379,5.6163,5.6063,5.5312,5.4264,5.557,5.6946,5.7797,5.7997,5.7997,5.7997,5.7997,5.7997,5.7997,5.7997,5.7997,5.7997,5.7997,5.7997,5.7997,5.7997,5.7997,5.7997,5.7997,5.7997,5.7997,5.7997,5.7997,5.7997,5.7997,5.7997,5.7997,5.7997,5.7997,5.7997,5.7997,5.7997,5.7997,5.7997,5.7997,5.7997,5.7997,5.7997,5.7997,5.7997,5.7997,5.7997,5.7997,5.7997,5.7997,5.7997,5.7997,5.7997,5.7997,5.7997,5.7997,5.7997,5.7997,5.7997,5.7997,5.7997,5.7997,5.7997,5.7997,5.7997,5.7997,5.7997,5.7997,5.7997,5.7997,5.7997,5.7997,5.7997,5.7997,5.7997,5.7997,5.7997,5.7997,5.7997,5.7997,5.7997,5.7997,5.7997,5.7997,5.7997,5.7997,5.7997,5.7997,5.7997,5.7997,5.7997,5.7997,5.7997,5.7997,5.7997,5.7997,5.7997,5.7997,5.7997,5.7997,5.7997,5.7997,5.7997,5.7997,5.7997,5.7997,5.7997,5.7997,5.7997,5.7997,5.7997,5.7997,5.7918,5.7697,5.7046,5.6626,5.4909,5.5695,5.6501,5.7708,5.7997,5.7997,5.7997,5.7997,5.7997,5.7997,5.7997,5.7997,5.7997,5.7997,5.7997,5.7997,5.7997,5.7997,5.7997,5.7997,5.7997,5.7997,5.7997,5.7997,5.7997,5.7997,5.7997,5.7997,5.7997,5.7997,5.7997,5.7997,5.7997,5.7997,5.7997,5.7997,5.7997,5.7997,5.7997,5.7997,5.7997,5.7997,5.7997,5.7997,5.7997,5.7997,5.7997,5.7997,5.7997,5.7997,5.7997,5.7997,5.7997,5.7997,5.7997,5.7997,5.7997,5.7997,5.7997,5.7997,5.7997,5.7997,5.7997,5.7997,5.7997,5.7997,5.7997,5.7997,5.7997,5.7997,5.7997,5.7997,5.7997,5.7997,5.7997,5.7997,5.7997,5.7997,5.7997,5.7997,5.7997,5.7997,5.7997,5.7997,5.7997,5.7997,5.7997,5.7997,5.7997,5.7997,5.7997,5.7997,5.7997,5.7997,5.7997,5.7997,5.7997,5.7997,5.7997,5.7997,5.7997,5.7997,5.7997,5.7997,5.7997,5.7997,5.7997,5.7997,5.7997,5.7997,5.7679,5.7516,5.5072,5.5581,5.6031,5.7382,5.7862,5.7997,5.7997,5.7997,5.7997,5.7997,5.7997,5.7997,5.7997,5.7997,5.7997,5.7997,5.7997,5.7997,5.7997,5.7997,5.7997,5.7997,5.7997,5.7997,5.7997,5.7997,5.7997,5.7997,5.7997,5.7997,5.7997,5.7997,5.7997,5.7997,5.7997,5.7997,5.7997,5.7997,5.7997,5.7997,5.7997,5.7997,5.7997,5.7997,5.7997,5.7997,5.7997,5.7997,5.7997,5.7997,5.7997,5.7997,5.7997,5.7997,5.7997,5.7997,5.7997,5.7997,5.7997,5.7997,5.7997,5.7997,5.7997,5.7997,5.7997,5.7997,5.7997,5.7997,5.7997,5.7997,5.7997,5.7997,5.7997,5.7997,5.7997,5.7997,5.7997,5.7997,5.7997,5.7997,5.7997,5.7997,5.7997,5.7997,5.7997,5.7997,5.7997,5.7997,5.7997,5.7997,5.7997,5.7997,5.7997,5.7997,5.7997,5.7997,5.7997,5.7997,5.7997,5.7997,5.7997,5.7997,5.7997,5.7997,5.7997,5.7997,5.7997,5.7997,5.7997,5.7997,5.7997,5.7997,5.4468,5.5173,5.5893,5.6765,5.7474,5.7997,5.7997,5.7997,5.7997,5.7997,5.7997,5.7997,5.7997,5.7997,5.7997,5.7997,5.7997,5.7997,5.7997,5.7997,5.7997,5.7997,5.7997,5.7997,5.7997,5.7997,5.7997,5.7997,5.7997,5.7997,5.7997,5.7997,5.7997,5.7997,5.7997,5.7997,5.7997,5.7997,5.7997,5.7997,5.7997,5.7997,5.7997,5.7997,5.7997,5.7997,5.7997,5.7997,5.7997,5.7997,5.7997,5.7997,5.7997,5.7997,5.7997,5.7997,5.7997,5.7997,5.7997,5.7997,5.7997,5.7997,5.7997,5.7997,5.7997,5.7997,5.7997,5.7997,5.7997,5.7997,5.7997,5.7997,5.7997,5.7997,5.7997,5.7997,5.7997,5.7997,5.7997,5.7997,5.7997,5.7997,5.7997,5.7997,5.7997,5.7997,5.7997,5.7997,5.7997,5.7997,5.7997,5.7997,5.7997,5.7997,5.7997,5.7997,5.7997,5.7997,5.7997,5.7997,5.7997,5.7997,5.7997,5.7997,5.7997,5.7997,5.7997,5.7997,5.7997,5.7997,5.7997,5.7997,5.4405,5.5131,5.5893,5.6695,5.7449,5.7997,5.7997,5.7997,5.7997,5.7997,5.7997,5.7997,5.7997,5.7997,5.7997,5.7997,5.7997,5.7997,5.7997,5.7997,5.7997,5.7997,5.7997,5.7997,5.7997,5.7997,5.7997,5.7997,5.7997,5.7997,5.7997,5.7997,5.7997,5.7997,5.7997,5.7997,5.7997,5.7997,5.7997,5.7997,5.7997,5.7997,5.7997,5.7997,5.7997,5.7997,5.7997,5.7997,5.7997,5.7997,5.7997,5.7997,5.7997,5.7997,5.7997,5.7997,5.7997,5.7997,5.7997,5.7997,5.7997,5.7997,5.7997,5.7997,5.7997,5.7997,5.7997,5.7997,5.7997,5.7997,5.7997,5.7997,5.7997,5.7997,5.7997,5.7997,5.7997,5.7997,5.7997,5.7997,5.7997,5.7997,5.7997,5.7997,5.7997,5.7997,5.7997,5.7997,5.7997,5.7997,5.7997,5.7997,5.7997,5.7997,5.7997,5.7997,5.7997,5.7997,5.7997,5.7997,5.7997,5.7997,5.7997,5.7997,5.7997,5.7997,5.7997,5.7997,5.7997,5.7997,5.7997,5.7997,5.4106,5.4774,5.5466,5.5984,5.6894,5.7637,5.7637,5.7821,5.7997,5.7997,5.7997,5.7997,5.7997,5.7997,5.7997,5.7997,5.7997,5.7997,5.7997,5.7997,5.7997,5.7997,5.7997,5.7997,5.7997,5.7997,5.7997,5.7997,5.7997,5.7997,5.7997,5.7997,5.7997,5.7997,5.7997,5.7997,5.7997,5.7997,5.7997,5.7997,5.7997,5.7997,5.7997,5.7997,5.7997,5.7997,5.7997,5.7997,5.7997,5.7997,5.7997,5.7997,5.7997,5.7997,5.7997,5.7997,5.7997,5.7997,5.7997,5.7997,5.7997,5.7997,5.7997,5.7997,5.7997,5.7997,5.7997,5.7997,5.7997,5.7997,5.7997,5.7997,5.7997,5.7997,5.7997,5.7997,5.7997,5.7997,5.7997,5.7997,5.7997,5.7997,5.7997,5.7997,5.7997,5.7997,5.7997,5.7997,5.7997,5.7997,5.7997,5.7997,5.7997,5.7997,5.7997,5.7997,5.7997,5.7997,5.7997,5.7997,5.7997,5.7997,5.7997,5.7997,5.7997,5.7997,5.7997,5.7997,5.7997,5.7997,5.7997,5.7997,0.0,0.0,0.0,5.4589,5.5759,5.6843,5.6843,5.7425,5.7973,5.7973,5.7997,5.7997,5.7997,5.7997,5.7997,5.7997,5.7997,5.7997,5.7997,5.7997,5.7997,5.7997,5.7997,5.7997,5.7997,5.7997,5.7997,5.7997,5.7997,5.7997,5.7997,5.7997,5.7997,5.7997,5.7997,5.7997,5.7997,5.7997,5.7997,5.7997,5.7997,5.7997,5.7997,5.7997,5.7997,5.7997,5.7997,5.7997,5.7997,5.7997,5.7997,5.7997,5.7997,5.7997,5.7997,5.7997,5.7997,5.7997,5.7997,5.7997,5.7997,5.7997,5.7997,5.7997,5.7997,5.7997,5.7997,5.7997,5.7997,5.7997,5.7997,5.7997,5.7997,5.7997,5.7997,5.7997,5.7997,5.7997,5.7997,5.7997,5.7997,5.7997,5.7997,5.7997,5.7997,5.7997,5.7997,5.7997,5.7997,5.7997,5.7997,5.7997,5.7997,5.7997,5.7997,5.7997,5.7997,5.7997,5.7997,5.7997,5.7997,5.7997,5.7997,5.7997,5.7997,5.7997,5.7997,5.7997,5.7997,5.7997,5.7997,5.7997,5.3501,0.0,0.0,0.0,0.0,0.0,5.6031,5.6624,5.7209,5.7209,5.7637,5.7997,5.7997,5.7997,5.7997,5.7997,5.7997,5.7997,5.7997,5.7997,5.7997,5.7997,5.7997,5.7997,5.7997,5.7997,5.7997,5.7997,5.7997,5.7997,5.7997,5.7997,5.7997,5.7997,5.7997,5.7997,5.7997,5.7997,5.7997,5.7997,5.7997,5.7997,5.7997,5.7997,5.7997,5.7997,5.7997,5.7997,5.7997,5.7997,5.7997,5.7997,5.7997,5.7997,5.7997,5.7997,5.7997,5.7997,5.7997,5.7997,5.7997,5.7997,5.7997,5.7997,5.7997,5.7997,5.7997,5.7997,5.7997,5.7997,5.7997,5.7997,5.7997,5.7997,5.7997,5.7997,5.7997,5.7997,5.7997,5.7997,5.7997,5.7997,5.7997,5.7997,5.7997,5.7997,5.7997,5.7997,5.7997,5.7997,5.7997,5.7997,5.7997,5.7997,5.7997,5.7997,5.7997,5.7997,5.7997,5.7997,5.7997,5.7997,5.7997,5.7997,5.7997,5.7997,5.7997,5.7997,5.7997,5.7997,5.7997,5.7997,5.3501,5.3799,5.4121,5.4121,0.0,0.0,5.5232,5.6095,5.6912,5.6912,5.7492,5.7997,5.7997,5.7997,5.7997,5.7997,5.7997,5.7997,5.7997,5.7997,5.7997,5.7997,5.7997,5.7997,5.7997,5.7997,5.7997,5.7997,5.7997,5.7997,5.7997,5.7997,5.7997,5.7997,5.7997,5.7997,5.7997,5.7997,5.7997,5.7997,5.7997,5.7997,5.7997,5.7997,5.7997,5.7997,5.7997,5.7997,5.7997,5.7997,5.7997,5.7997,5.7997,5.7997,5.7997,5.7997,5.7997,5.7997,5.7997,5.7997,5.7997,5.7997,5.7997,5.7997,5.7997,5.7997,5.7997,5.7997,5.7997,5.7997,5.7997,5.7997,5.7997,5.7997,5.7997,5.7997,5.7997,5.7997,5.7997,5.7997,5.7997,5.7997,5.7997,5.7997,5.7997,5.7997,5.7997,5.7997,5.7997,5.7997,5.7997,5.7997,5.7997,5.7997,5.7997,5.7997,5.7997,5.7997,5.7997,5.7997,5.7997,5.7997,5.7997,5.7997,5.7997,5.7997,5.7997,5.7997,5.7997,5.7997,5.7997,5.7997,5.3501,5.3501,5.3501,5.3501,5.3994,0.0,5.4482,5.5616,5.6642,5.6642,5.7216,5.7732,5.7732,5.7732,5.7732,5.7732,5.7821,5.7909,5.7997,5.7997,5.7997,5.7997,5.7997,5.7997,5.7997,5.7997,5.7997,5.7997,5.7997,5.7997,5.7997,5.7997,5.7997,5.7997,5.7997,5.7997,5.7997,5.7997,5.7997,5.7997,5.7997,5.7997,5.7997,5.7997,5.7997,5.7997,5.7997,5.7997,5.7997,5.7997,5.7997,5.7997,5.7997,5.7997,5.7997,5.7997,5.7997,5.7997,5.7997,5.7997,5.7997,5.7997,5.7997,5.7997,5.7997,5.7997,5.7997,5.7997,5.7997,5.7997,5.7997,5.7997,5.7997,5.7997,5.7997,5.7997,5.7997,5.7997,5.7997,5.7997,5.7997,5.7997,5.7997,5.7997,5.7997,5.7997,5.7997,5.7997,5.7997,5.7997,5.7997,5.7997,5.7997,5.7997,5.7997,5.7997,5.7997,5.7997,5.7997,5.7997,5.7997,5.7997,5.7997,5.7997,5.7997,5.7997,5.7997,5.7997,5.7997,5.7997,5.7997,5.7997,5.3501,5.3501,5.3501,5.3501,5.3618,0.0,5.3717,5.4422,5.5059,5.5059,5.5638,5.6141,5.6141,5.6141,5.6141,5.6141,5.6677,5.7309,5.7909,5.7997,5.7997,5.7997,5.7997,5.7997,5.7997,5.7997,5.7997,5.7997,5.7997,5.7997,5.7997,5.7997,5.7997,5.7997,5.7997,5.7997,5.7997,5.7997,5.7997,5.7997,5.7997,5.7997,5.7997,5.7997,5.7997,5.7997,5.7997,5.7997,5.7997,5.7997,5.7997,5.7997,5.7997,5.7997,5.7997,5.7997,5.7997,5.7997,5.7997,5.7997,5.7997,5.7997,5.7997,5.7997,5.7997,5.7997,5.7997,5.7997,5.7997,5.7997,5.7997,5.7997,5.7997,5.7997,5.7997,5.7997,5.7997,5.7997,5.7997,5.7997,5.7997,5.7997,5.7997,5.7997,5.7997,5.7997,5.7997,5.7997,5.7997,5.7997,5.7997,5.7997,5.7997,5.7997,5.7997,5.7997,5.7997,5.7997,5.7997,5.7997,5.7997,5.7997,5.7997,5.7997,5.7997,5.7997,5.7997,5.7997,5.7997,5.7997,5.7997,5.7997,5.3348,5.3501,5.3501,5.3501,5.3501,0.0,0.0,5.4074,5.4589,5.4589,5.5173,5.5706,5.5706,5.5706,5.5706,5.5706,5.6049,5.6421,5.6789,5.7504,5.7997,5.7997,5.7997,5.7997,5.7997,5.7997,5.7997,5.7997,5.7997,5.7997,5.7997,5.7997,5.7997,5.7997,5.7997,5.7997,5.7997,5.7997,5.7997,5.7997,5.7997,5.7997,5.7997,5.7997,5.7997,5.7997,5.7997,5.7997,5.7997,5.7997,5.7997,5.7997,5.7997,5.7997,5.7997,5.7997,5.7997,5.7997,5.7997,5.7997,5.7997,5.7997,5.7997,5.7997,5.7997,5.7997,5.7997,5.7997,5.7997,5.7997,5.7997,5.7997,5.7997,5.7997,5.7997,5.7997,5.7997,5.7997,5.7997,5.7997,5.7997,5.7997,5.7997,5.7997,5.7997,5.7997,5.7997,5.7997,5.7997,5.7997,5.7997,5.7997,5.7997,5.7997,5.7997,5.7997,5.7997,5.7997,5.7997,5.7997,5.7997,5.7997,5.7997,5.7997,5.7997,5.7997,5.7997,5.7997,5.7997,5.7997,5.7997,5.7997,5.2956,5.3348,5.3501,5.3501,5.3501,5.3501,0.0,0.0,0.0,5.4405,5.4848,5.5279,5.5279,5.5279,5.5279,5.5279,5.5408,5.5495,5.5495,5.6685,5.7618,5.7774,5.7909,5.7997,5.7997,5.7997,5.7997,5.7997,5.7997,5.7997,5.7997,5.7997,5.7997,5.7997,5.7997,5.7997,5.7997,5.7997,5.7997,5.7997,5.7997,5.7997,5.7997,5.7997,5.7997,5.7997,5.7997,5.7997,5.7997,5.7997,5.7997,5.7997,5.7997,5.7997,5.7997,5.7997,5.7997,5.7997,5.7997,5.7997,5.7997,5.7997,5.7997,5.7997,5.7997,5.7997,5.7997,5.7997,5.7997,5.7997,5.7997,5.7997,5.7997,5.7997,5.7997,5.7997,5.7997,5.7997,5.7997,5.7997,5.7997,5.7997,5.7997,5.7997,5.7997,5.7997,5.7997,5.7997,5.7997,5.7997,5.7997,5.7997,5.7997,5.7997,5.7997,5.7997,5.7997,5.7997,5.7997,5.7997,5.7997,5.7997,5.7997,5.7997,5.7997,5.7997,5.7997,5.7997,5.7997,5.7997,5.7997,5.7997,5.2046,5.28,5.3501,5.3501,5.3501,5.3501,5.3501,0.0,5.3601,5.3601,0.0,5.375,5.375,0.0,0.0,5.375,5.4296,5.4726,5.4726,5.5437,5.6241,5.6938,5.7613,5.7997,5.7997,5.7997,5.7997,5.7997,5.7997,5.7997,5.7997,5.7997,5.7997,5.7997,5.7997,5.7997,5.7997,5.7997,5.7997,5.7997,5.7997,5.7997,5.7997,5.7997,5.7997,5.7997,5.7997,5.7997,5.7997,5.7997,5.7997,5.7997,5.7997,5.7997,5.7997,5.7997,5.7997,5.7997,5.7997,5.7997,5.7997,5.7997,5.7997,5.7997,5.7997,5.7997,5.7997,5.7997,5.7997,5.7997,5.7997,5.7997,5.7997,5.7997,5.7997,5.7997,5.7997,5.7997,5.7997,5.7997,5.7997,5.7997,5.7997,5.7997,5.7997,5.7997,5.7997,5.7997,5.7997,5.7997,5.7997,5.7997,5.7997,5.7997,5.7997,5.7997,5.7997,5.7997,5.7997,5.7997,5.7997,5.7997,5.7997,5.7997,5.7997,5.7997,5.7997,5.7997,5.7997,5.7997,5.7997,5.7997,5.0855,5.1776,5.2435,5.1829,5.2609,5.3348,5.2714,5.3059,5.3501,5.3501,0.0,0.0,0.0,0.0,0.0,0.0,5.375,5.3962,5.3962,5.4606,5.5367,5.6104,5.6483,5.6858,5.7309,5.775,5.7997,5.7997,5.7997,5.7997,5.7997,5.7997,5.7997,5.7997,5.7997,5.7997,5.7997,5.7997,5.7997,5.7997,5.7997,5.7997,5.7997,5.7997,5.7997,5.7997,5.7997,5.7997,5.7997,5.7997,5.7997,5.7997,5.7997,5.7997,5.7997,5.7997,5.7997,5.7997,5.7997,5.7997,5.7997,5.7997,5.7997,5.7997,5.7997,5.7997,5.7997,5.7997,5.7997,5.7997,5.7997,5.7997,5.7997,5.7997,5.7997,5.7997,5.7997,5.7997,5.7997,5.7997,5.7997,5.7997,5.7997,5.7997,5.7997,5.7997,5.7997,5.7997,5.7997,5.7997,5.7997,5.7997,5.7997,5.7997,5.7997,5.7997,5.7997,5.7997,5.7997,5.7997,5.7997,5.7997,5.7997,5.7997,5.7997,5.7997,5.7997,5.7997,5.7997,5.7997,5.7997,5.7997,4.9813,5.093,5.1651,5.0665,5.1521,5.2451,5.1667,5.2098,5.2644,5.2644,5.2644,0.0,0.0,0.0,5.3144,5.3467,0.0,5.3501,5.3501,5.3962,5.4575,5.532,5.5581,5.6022,5.6817,5.7376,5.7774,5.7997,5.7997,5.7997,5.7997,5.7997,5.7997,5.7997,5.7997,5.7997,5.7997,5.7997,5.7997,5.7997,5.7997,5.7997,5.7997,5.7997,5.7997,5.7997,5.7997,5.7997,5.7997,5.7997,5.7997,5.7997,5.7997,5.7997,5.7997,5.7997,5.7997,5.7997,5.7997,5.7997,5.7997,5.7997,5.7997,5.7997,5.7997,5.7997,5.7997,5.7997,5.7997,5.7997,5.7997,5.7997,5.7997,5.7997,5.7997,5.7997,5.7997,5.7997,5.7997,5.7997,5.7997,5.7997,5.7997,5.7997,5.7997,5.7997,5.7997,5.7997,5.7997,5.7997,5.7997,5.7997,5.7997,5.7997,5.7997,5.7997,5.7997,5.7997,5.7997,5.7997,5.7997,5.7997,5.7997,5.7997,5.7997,5.7997,5.7997,5.7997,5.7997,5.7997,5.7997,5.7997,4.9135,5.0326,5.1651,5.0665,5.0451,5.0474,5.0451,5.0474,5.049,5.049,5.049,5.0779,5.176,5.1957,5.2277,5.3348,5.3501,0.0,0.0,5.3534,5.3799,5.4544,5.5262,5.6022,5.6817,5.6912,5.7234,5.795,5.7997,5.7997,5.7997,5.7997,5.7997,5.7997,5.7997,5.7997,5.7997,5.7997,5.7997,5.7997,5.7997,5.7997,5.7997,5.7997,5.7997,5.7997,5.7997,5.7997,5.7997,5.7997,5.7997,5.7997,5.7997,5.7997,5.7997,5.7997,5.7997,5.7997,5.7997,5.7997,5.7997,5.7997,5.7997,5.7997,5.7997,5.7997,5.7997,5.7997,5.7997,5.7997,5.7997,5.7997,5.7997,5.7997,5.7997,5.7997,5.7997,5.7997,5.7997,5.7997,5.7997,5.7997,5.7997,5.7997,5.7997,5.7997,5.7997,5.7997,5.7997,5.7997,5.7997,5.7997,5.7997,5.7997,5.7997,5.7997,5.7997,5.7997,5.7997,5.7997,5.7997,5.7997,5.7997,5.7997,5.7997,5.7997,5.7997,5.7997,5.7997,5.7997,5.7997,5.7997,4.8907,4.932,4.9599,4.8625,4.9392,5.0204,4.9496,4.9891,5.0397,5.0397,5.0397,5.0512,5.0855,5.0892,5.1229,5.2277,5.2435,5.2679,0.0,5.3501,5.3584,5.3832,5.4513,5.5072,5.5338,5.6304,5.6989,5.7259,5.7726,5.7997,5.7997,5.7997,5.7997,5.7997,5.7997,5.7997,5.7997,5.7997,5.7997,5.7997,5.7997,5.7997,5.7997,5.7997,5.7997,5.7997,5.7997,5.7997,5.7997,5.7997,5.7997,5.7997,5.7997,5.7997,5.7997,5.7997,5.7997,5.7997,5.7997,5.7997,5.7997,5.7997,5.7997,5.7997,5.7997,5.7997,5.7997,5.7997,5.7997,5.7997,5.7997,5.7997,5.7997,5.7997,5.7997,5.7997,5.7997,5.7997,5.7997,5.7997,5.7997,5.7997,5.7997,5.7997,5.7997,5.7997,5.7997,5.7997,5.7997,5.7997,5.7997,5.7997,5.7997,5.7997,5.7997,5.7997,5.7997,5.7997,5.7997,5.7997,5.7997,5.7997,5.7997,5.7997,5.7997,5.7997,5.7997,5.7997,5.7997,5.7997,5.7997,5.7997,4.9376,4.9376,4.9231,4.8543,4.9125,4.9655,4.8948,4.9069,4.9392,4.9773,4.9551,4.9631,5.0741,5.032,5.0397,5.217,5.2153,5.2277,0.0,5.3501,5.3501,5.3501,5.3913,5.4405,5.4922,5.5882,5.6695,5.7259,5.7726,5.7997,5.7997,5.7997,5.7997,5.7997,5.7997,5.7997,5.7997,5.7997,5.7997,5.7997,5.7997,5.7997,5.7997,5.7997,5.7997,5.7997,5.7997,5.7997,5.7997,5.7997,5.7997,5.7997,5.7997,5.7997,5.7997,5.7997,5.7997,5.7997,5.7997,5.7997,5.7997,5.7997,5.7997,5.7997,5.7997,5.7997,5.7997,5.7997,5.7997,5.7997,5.7997,5.7997,5.7997,5.7997,5.7997,5.7997,5.7997,5.7997,5.7997,5.7997,5.7997,5.7997,5.7997,5.7997,5.7997,5.7997,5.7997,5.7997,5.7997,5.7997,5.7997,5.7997,5.7997,5.7997,5.7997,5.7997,5.7997,5.7997,5.7997,5.7997,5.7997,5.7997,5.8125,5.8419,5.8143,5.8143,5.8437,5.8143,5.7997,5.7997,5.7997,5.7997]}]]